Wetterdaten: Donnerstag, 03.11.2016
Datum Zeit Temp. A. Temp. A. max Feuchte A. Luftdruck Regen Wind Richtung Richtung Sonnenschein ET UV Solar Taupunkt Windböen
03.11.2016 00:00 2,6 °C 2,6 °C 94 % 1019,5 hPa 0,0 mm 1,3 km/h (1 Bft) S-SW 200 ° 0 min 0,000 mm 0,0 UV-I 0 W/m² 1,7 °C 4,8 km/h (1 Bft)
03.11.2016 00:01 2,6 °C 2,6 °C 94 % 1019,5 hPa 0,0 mm 3,3 km/h (1 Bft) S-SO 162 ° 0 min 0,000 mm 0,0 UV-I 0 W/m² 1,7 °C 6,4 km/h (2 Bft)
03.11.2016 00:02 2,6 °C 2,6 °C 94 % 1019,6 hPa 0,0 mm 3,8 km/h (1 Bft) S-SO 162 ° 0 min 0,000 mm 0,0 UV-I 0 W/m² 1,7 °C 6,4 km/h (2 Bft)
03.11.2016 00:03 2,6 °C 2,6 °C 94 % 1019,5 hPa 0,0 mm 3,0 km/h (1 Bft) S-SO 162 ° 0 min 0,000 mm 0,0 UV-I 0 W/m² 1,7 °C 6,4 km/h (2 Bft)
03.11.2016 00:04 2,6 °C 2,6 °C 94 % 1019,5 hPa 0,0 mm 1,5 km/h (1 Bft) S-SO 162 ° 0 min 0,000 mm 0,0 UV-I 0 W/m² 1,7 °C 3,2 km/h (1 Bft)
03.11.2016 00:05 2,6 °C 2,7 °C 94 % 1019,5 hPa 0,0 mm 0,3 km/h (0 Bft) S-SO 162 ° 0 min 0,000 mm 0,0 UV-I 0 W/m² 1,7 °C 1,6 km/h (1 Bft)
03.11.2016 00:06 2,6 °C 2,6 °C 94 % 1019,5 hPa 0,0 mm 1,0 km/h (0 Bft) S-SO 162 ° 0 min 0,000 mm 0,0 UV-I 0 W/m² 1,7 °C 1,6 km/h (1 Bft)
03.11.2016 00:07 2,6 °C 2,7 °C 94 % 1019,5 hPa 0,0 mm 0,9 km/h (0 Bft) S-SO 162 ° 0 min 0,000 mm 0,0 UV-I 0 W/m² 1,7 °C 3,2 km/h (1 Bft)
03.11.2016 00:08 2,6 °C 2,6 °C 94 % 1019,5 hPa 0,0 mm 0,9 km/h (0 Bft) S-SO 162 ° 0 min 0,000 mm 0,0 UV-I 0 W/m² 1,7 °C 1,6 km/h (1 Bft)
03.11.2016 00:09 2,6 °C 2,7 °C 94 % 1019,5 hPa 0,0 mm 0,9 km/h (0 Bft) S-SW 202 ° 0 min 0,000 mm 0,0 UV-I 0 W/m² 1,7 °C 3,2 km/h (1 Bft)
03.11.2016 00:10 2,6 °C 2,7 °C 94 % 1019,5 hPa 0,0 mm 2,8 km/h (1 Bft) S-SW 193 ° 0 min 0,000 mm 0,0 UV-I 0 W/m² 1,7 °C 4,8 km/h (1 Bft)
03.11.2016 00:11 2,6 °C 2,7 °C 94 % 1019,5 hPa 0,0 mm 2,8 km/h (1 Bft) SW 223 ° 0 min 0,000 mm 0,0 UV-I 0 W/m² 1,7 °C 3,2 km/h (1 Bft)
03.11.2016 00:12 2,6 °C 2,7 °C 94 % 1019,5 hPa 0,0 mm 2,3 km/h (1 Bft) SW 223 ° 0 min 0,000 mm 0,0 UV-I 0 W/m² 1,7 °C 3,2 km/h (1 Bft)
03.11.2016 00:13 2,7 °C 2,7 °C 94 % 1019,6 hPa 0,0 mm 2,7 km/h (1 Bft) SW 221 ° 0 min 0,000 mm 0,0 UV-I 0 W/m² 1,8 °C 3,2 km/h (1 Bft)
03.11.2016 00:14 2,7 °C 2,7 °C 94 % 1019,6 hPa 0,0 mm 1,7 km/h (1 Bft) SW 221 ° 0 min 0,000 mm 0,0 UV-I 0 W/m² 1,8 °C 3,2 km/h (1 Bft)
03.11.2016 00:15 2,7 °C 2,7 °C 94 % 1019,6 hPa 0,0 mm 0,6 km/h (0 Bft) SW 221 ° 0 min 0,000 mm 0,0 UV-I 0 W/m² 1,8 °C 1,6 km/h (1 Bft)
03.11.2016 00:16 2,7 °C 2,7 °C 94 % 1019,6 hPa 0,0 mm 2,0 km/h (1 Bft) SW 219 ° 0 min 0,000 mm 0,0 UV-I 0 W/m² 1,8 °C 3,2 km/h (1 Bft)
03.11.2016 00:17 2,7 °C 2,7 °C 94 % 1019,6 hPa 0,0 mm 2,2 km/h (1 Bft) SW 216 ° 0 min 0,000 mm 0,0 UV-I 0 W/m² 1,8 °C 3,2 km/h (1 Bft)
03.11.2016 00:18 2,7 °C 2,7 °C 93 % 1019,6 hPa 0,0 mm 1,3 km/h (1 Bft) SW 216 ° 0 min 0,000 mm 0,0 UV-I 0 W/m² 1,7 °C 3,2 km/h (1 Bft)
03.11.2016 00:19 2,7 °C 2,7 °C 93 % 1019,6 hPa 0,0 mm 2,7 km/h (1 Bft) SW 216 ° 0 min 0,000 mm 0,0 UV-I 0 W/m² 1,7 °C 4,8 km/h (1 Bft)
03.11.2016 00:20 2,7 °C 2,7 °C 93 % 1019,6 hPa 0,0 mm 2,6 km/h (1 Bft) SW 215 ° 0 min 0,000 mm 0,0 UV-I 0 W/m² 1,7 °C 3,2 km/h (1 Bft)
03.11.2016 00:21 2,7 °C 2,7 °C 94 % 1019,7 hPa 0,0 mm 0,9 km/h (0 Bft) SW 215 ° 0 min 0,000 mm 0,0 UV-I 0 W/m² 1,8 °C 1,6 km/h (1 Bft)
03.11.2016 00:22 2,7 °C 2,7 °C 94 % 1019,7 hPa 0,0 mm 1,0 km/h (0 Bft) SW 215 ° 0 min 0,000 mm 0,0 UV-I 0 W/m² 1,8 °C 1,6 km/h (1 Bft)
03.11.2016 00:23 2,7 °C 2,7 °C 94 % 1019,6 hPa 0,0 mm 3,7 km/h (1 Bft) S-SW 213 ° 0 min 0,000 mm 0,0 UV-I 0 W/m² 1,8 °C 6,4 km/h (2 Bft)
03.11.2016 00:24 2,7 °C 2,7 °C 94 % 1019,6 hPa 0,0 mm 3,3 km/h (1 Bft) S 190 ° 0 min 0,000 mm 0,0 UV-I 0 W/m² 1,8 °C 4,8 km/h (1 Bft)
03.11.2016 00:25 2,7 °C 2,7 °C 94 % 1019,6 hPa 0,0 mm 2,5 km/h (1 Bft) S 190 ° 0 min 0,000 mm 0,0 UV-I 0 W/m² 1,8 °C 3,2 km/h (1 Bft)
03.11.2016 00:26 2,7 °C 2,7 °C 94 % 1019,6 hPa 0,0 mm 3,3 km/h (1 Bft) S 183 ° 0 min 0,000 mm 0,0 UV-I 0 W/m² 1,8 °C 6,4 km/h (2 Bft)
03.11.2016 00:27 2,7 °C 2,7 °C 94 % 1019,6 hPa 0,0 mm 1,5 km/h (1 Bft) S 183 ° 0 min 0,000 mm 0,0 UV-I 0 W/m² 1,8 °C 3,2 km/h (1 Bft)
03.11.2016 00:28 2,7 °C 2,7 °C 94 % 1019,6 hPa 0,0 mm 2,5 km/h (1 Bft) S 188 ° 0 min 0,000 mm 0,0 UV-I 0 W/m² 1,8 °C 6,4 km/h (2 Bft)
03.11.2016 00:29 2,7 °C 2,7 °C 94 % 1019,6 hPa 0,0 mm 3,7 km/h (1 Bft) S-SW 200 ° 0 min 0,000 mm 0,0 UV-I 0 W/m² 1,8 °C 6,4 km/h (2 Bft)
03.11.2016 00:30 2,7 °C 2,7 °C 94 % 1019,6 hPa 0,0 mm 4,2 km/h (1 Bft) S 190 ° 0 min 0,000 mm 0,0 UV-I 0 W/m² 1,8 °C 4,8 km/h (1 Bft)
03.11.2016 00:31 2,7 °C 2,7 °C 93 % 1019,7 hPa 0,0 mm 4,4 km/h (1 Bft) S-SW 194 ° 0 min 0,000 mm 0,0 UV-I 0 W/m² 1,7 °C 6,4 km/h (2 Bft)
03.11.2016 00:32 2,7 °C 2,7 °C 93 % 1019,7 hPa 0,0 mm 4,1 km/h (1 Bft) S-SW 201 ° 0 min 0,000 mm 0,0 UV-I 0 W/m² 1,7 °C 8,0 km/h (2 Bft)
03.11.2016 00:33 2,7 °C 2,7 °C 93 % 1019,6 hPa 0,0 mm 6,8 km/h (2 Bft) S-SO 159 ° 0 min 0,000 mm 0,0 UV-I 0 W/m² 1,7 °C 8,0 km/h (2 Bft)
03.11.2016 00:34 2,7 °C 2,7 °C 93 % 1019,6 hPa 0,0 mm 5,4 km/h (1 Bft) S 173 ° 0 min 0,000 mm 0,0 UV-I 0 W/m² 1,7 °C 6,4 km/h (2 Bft)
03.11.2016 00:35 2,7 °C 2,7 °C 93 % 1019,6 hPa 0,0 mm 5,7 km/h (1 Bft) S-SW 198 ° 0 min 0,000 mm 0,0 UV-I 0 W/m² 1,7 °C 8,0 km/h (2 Bft)
03.11.2016 00:36 2,8 °C 2,8 °C 93 % 1019,6 hPa 0,0 mm 5,2 km/h (1 Bft) S-SW 203 ° 0 min 0,000 mm 0,0 UV-I 0 W/m² 1,8 °C 8,0 km/h (2 Bft)
03.11.2016 00:37 2,8 °C 2,8 °C 93 % 1019,6 hPa 0,0 mm 5,4 km/h (1 Bft) S 175 ° 0 min 0,000 mm 0,0 UV-I 0 W/m² 1,8 °C 8,0 km/h (2 Bft)
03.11.2016 00:38 2,8 °C 2,8 °C 93 % 1019,5 hPa 0,0 mm 3,8 km/h (1 Bft) S 171 ° 0 min 0,000 mm 0,0 UV-I 0 W/m² 1,8 °C 4,8 km/h (1 Bft)
03.11.2016 00:39 2,8 °C 2,8 °C 93 % 1019,5 hPa 0,0 mm 2,8 km/h (1 Bft) S 186 ° 0 min 0,000 mm 0,0 UV-I 0 W/m² 1,8 °C 4,8 km/h (1 Bft)
03.11.2016 00:40 2,8 °C 2,8 °C 93 % 1019,6 hPa 0,0 mm 5,5 km/h (1 Bft) S-SO 164 ° 0 min 0,000 mm 0,0 UV-I 0 W/m² 1,8 °C 8,0 km/h (2 Bft)
03.11.2016 00:41 2,8 °C 2,8 °C 93 % 1019,5 hPa 0,0 mm 5,2 km/h (1 Bft) S-SO 163 ° 0 min 0,000 mm 0,0 UV-I 0 W/m² 1,8 °C 8,0 km/h (2 Bft)
03.11.2016 00:42 2,8 °C 2,8 °C 93 % 1019,5 hPa 0,0 mm 4,1 km/h (1 Bft) S-SO 163 ° 0 min 0,000 mm 0,0 UV-I 0 W/m² 1,8 °C 6,4 km/h (2 Bft)
03.11.2016 00:43 2,8 °C 2,8 °C 93 % 1019,5 hPa 0,0 mm 2,8 km/h (1 Bft) S-SW 196 ° 0 min 0,000 mm 0,0 UV-I 0 W/m² 1,8 °C 4,8 km/h (1 Bft)
03.11.2016 00:44 2,8 °C 2,8 °C 93 % 1019,4 hPa 0,0 mm 3,3 km/h (1 Bft) S 188 ° 0 min 0,000 mm 0,0 UV-I 0 W/m² 1,8 °C 4,8 km/h (1 Bft)
03.11.2016 00:45 2,8 °C 2,8 °C 93 % 1019,5 hPa 0,0 mm 3,0 km/h (1 Bft) S 178 ° 0 min 0,000 mm 0,0 UV-I 0 W/m² 1,8 °C 4,8 km/h (1 Bft)
03.11.2016 00:46 2,7 °C 2,8 °C 93 % 1019,5 hPa 0,0 mm 3,7 km/h (1 Bft) S 180 ° 0 min 0,000 mm 0,0 UV-I 0 W/m² 1,7 °C 6,4 km/h (2 Bft)
03.11.2016 00:47 2,7 °C 2,8 °C 93 % 1019,5 hPa 0,0 mm 3,6 km/h (1 Bft) S 178 ° 0 min 0,000 mm 0,0 UV-I 0 W/m² 1,7 °C 6,4 km/h (2 Bft)
03.11.2016 00:48 2,7 °C 2,7 °C 93 % 1019,5 hPa 0,0 mm 2,2 km/h (1 Bft) S 178 ° 0 min 0,000 mm 0,0 UV-I 0 W/m² 1,7 °C 3,2 km/h (1 Bft)
03.11.2016 00:49 2,7 °C 2,7 °C 93 % 1019,5 hPa 0,0 mm 2,4 km/h (1 Bft) S-SW 198 ° 0 min 0,000 mm 0,0 UV-I 0 W/m² 1,7 °C 6,4 km/h (2 Bft)
03.11.2016 00:50 2,7 °C 2,7 °C 93 % 1019,6 hPa 0,0 mm 5,6 km/h (1 Bft) S-SW 193 ° 0 min 0,000 mm 0,0 UV-I 0 W/m² 1,7 °C 9,7 km/h (2 Bft)
03.11.2016 00:51 2,7 °C 2,7 °C 93 % 1019,6 hPa 0,0 mm 4,2 km/h (1 Bft) S-SW 203 ° 0 min 0,000 mm 0,0 UV-I 0 W/m² 1,7 °C 6,4 km/h (2 Bft)
03.11.2016 00:52 2,7 °C 2,7 °C 93 % 1019,6 hPa 0,0 mm 2,5 km/h (1 Bft) S-SW 193 ° 0 min 0,000 mm 0,0 UV-I 0 W/m² 1,7 °C 4,8 km/h (1 Bft)
03.11.2016 00:53 2,7 °C 2,7 °C 93 % 1019,6 hPa 0,0 mm 4,1 km/h (1 Bft) S-SW 207 ° 0 min 0,000 mm 0,0 UV-I 0 W/m² 1,7 °C 4,8 km/h (1 Bft)
03.11.2016 00:54 2,8 °C 2,8 °C 93 % 1019,6 hPa 0,0 mm 4,2 km/h (1 Bft) S-SW 206 ° 0 min 0,000 mm 0,0 UV-I 0 W/m² 1,8 °C 6,4 km/h (2 Bft)
03.11.2016 00:55 2,7 °C 2,8 °C 93 % 1019,6 hPa 0,0 mm 3,2 km/h (1 Bft) S-SW 205 ° 0 min 0,000 mm 0,0 UV-I 0 W/m² 1,7 °C 4,8 km/h (1 Bft)
03.11.2016 00:56 2,8 °C 2,8 °C 93 % 1019,5 hPa 0,0 mm 3,0 km/h (1 Bft) S-SW 195 ° 0 min 0,000 mm 0,0 UV-I 0 W/m² 1,8 °C 4,8 km/h (1 Bft)
03.11.2016 00:57 2,8 °C 2,8 °C 93 % 1019,5 hPa 0,0 mm 2,1 km/h (1 Bft) S-SW 195 ° 0 min 0,000 mm 0,0 UV-I 0 W/m² 1,8 °C 3,2 km/h (1 Bft)
03.11.2016 00:58 2,7 °C 2,8 °C 93 % 1019,5 hPa 0,0 mm 2,3 km/h (1 Bft) S-SW 195 ° 0 min 0,000 mm 0,0 UV-I 0 W/m² 1,7 °C 3,2 km/h (1 Bft)
03.11.2016 00:59 2,7 °C 2,8 °C 93 % 1019,5 hPa 0,0 mm 1,7 km/h (1 Bft) S-SW 195 ° 0 min 0,000 mm 0,0 UV-I 0 W/m² 1,7 °C 3,2 km/h (1 Bft)
03.11.2016 01:00 2,7 °C 2,7 °C 93 % 1019,5 hPa 0,0 mm 3,6 km/h (1 Bft) S-SW 195 ° 0 min 0,000 mm 0,0 UV-I 0 W/m² 1,7 °C 4,8 km/h (1 Bft)
03.11.2016 01:01 2,7 °C 2,7 °C 93 % 1019,5 hPa 0,0 mm 2,1 km/h (1 Bft) S 186 ° 0 min 0,000 mm 0,0 UV-I 0 W/m² 1,7 °C 3,2 km/h (1 Bft)
03.11.2016 01:02 2,7 °C 2,7 °C 93 % 1019,5 hPa 0,0 mm 2,3 km/h (1 Bft) S 186 ° 0 min 0,000 mm 0,0 UV-I 0 W/m² 1,7 °C 3,2 km/h (1 Bft)
03.11.2016 01:03 2,7 °C 2,8 °C 93 % 1019,5 hPa 0,0 mm 2,7 km/h (1 Bft) S 186 ° 0 min 0,000 mm 0,0 UV-I 0 W/m² 1,7 °C 4,8 km/h (1 Bft)
03.11.2016 01:04 2,7 °C 2,7 °C 93 % 1019,5 hPa 0,0 mm 0,4 km/h (0 Bft) S 186 ° 0 min 0,000 mm 0,0 UV-I 0 W/m² 1,7 °C 1,6 km/h (1 Bft)
03.11.2016 01:05 2,7 °C 2,7 °C 93 % 1019,5 hPa 0,0 mm 0,5 km/h (0 Bft) S 186 ° 0 min 0,000 mm 0,0 UV-I 0 W/m² 1,7 °C 1,6 km/h (1 Bft)
03.11.2016 01:06 2,7 °C 2,7 °C 93 % 1019,5 hPa 0,0 mm 4,4 km/h (1 Bft) S-SW 196 ° 0 min 0,000 mm 0,0 UV-I 0 W/m² 1,7 °C 4,8 km/h (1 Bft)
03.11.2016 01:07 2,7 °C 2,7 °C 93 % 1019,5 hPa 0,0 mm 2,8 km/h (1 Bft) S 190 ° 0 min 0,000 mm 0,0 UV-I 0 W/m² 1,7 °C 4,8 km/h (1 Bft)
03.11.2016 01:08 2,7 °C 2,7 °C 93 % 1019,5 hPa 0,0 mm 1,8 km/h (1 Bft) S 190 ° 0 min 0,000 mm 0,0 UV-I 0 W/m² 1,7 °C 3,2 km/h (1 Bft)
03.11.2016 01:09 2,7 °C 2,7 °C 93 % 1019,6 hPa 0,0 mm 1,9 km/h (1 Bft) S 190 ° 0 min 0,000 mm 0,0 UV-I 0 W/m² 1,7 °C 3,2 km/h (1 Bft)
03.11.2016 01:10 2,7 °C 2,7 °C 93 % 1019,6 hPa 0,0 mm 0,6 km/h (0 Bft) S 190 ° 0 min 0,000 mm 0,0 UV-I 0 W/m² 1,7 °C 1,6 km/h (1 Bft)
03.11.2016 01:11 2,7 °C 2,7 °C 93 % 1019,6 hPa 0,0 mm 1,8 km/h (1 Bft) S 190 ° 0 min 0,000 mm 0,0 UV-I 0 W/m² 1,7 °C 3,2 km/h (1 Bft)
03.11.2016 01:12 2,7 °C 2,7 °C 93 % 1019,7 hPa 0,0 mm 1,0 km/h (0 Bft) S 190 ° 0 min 0,000 mm 0,0 UV-I 0 W/m² 1,7 °C 3,2 km/h (1 Bft)
03.11.2016 01:13 2,7 °C 2,7 °C 93 % 1019,6 hPa 0,0 mm 0,8 km/h (0 Bft) S 190 ° 0 min 0,000 mm 0,0 UV-I 0 W/m² 1,7 °C 1,6 km/h (1 Bft)
03.11.2016 01:14 2,7 °C 2,7 °C 93 % 1019,7 hPa 0,0 mm 1,7 km/h (1 Bft) S 190 ° 0 min 0,000 mm 0,0 UV-I 0 W/m² 1,7 °C 3,2 km/h (1 Bft)
03.11.2016 01:15 2,7 °C 2,7 °C 93 % 1019,7 hPa 0,0 mm 0,5 km/h (0 Bft) S 190 ° 0 min 0,000 mm 0,0 UV-I 0 W/m² 1,7 °C 1,6 km/h (1 Bft)
03.11.2016 01:16 2,7 °C 2,7 °C 93 % 1019,7 hPa 0,0 mm 1,3 km/h (1 Bft) S 190 ° 0 min 0,000 mm 0,0 UV-I 0 W/m² 1,7 °C 3,2 km/h (1 Bft)
03.11.2016 01:17 2,7 °C 2,7 °C 93 % 1019,7 hPa 0,0 mm 3,1 km/h (1 Bft) S 189 ° 0 min 0,000 mm 0,0 UV-I 0 W/m² 1,7 °C 6,4 km/h (2 Bft)
03.11.2016 01:18 2,7 °C 2,7 °C 93 % 1019,7 hPa 0,0 mm 1,2 km/h (1 Bft) S 188 ° 0 min 0,000 mm 0,0 UV-I 0 W/m² 1,7 °C 3,2 km/h (1 Bft)
03.11.2016 01:19 2,7 °C 2,7 °C 93 % 1019,6 hPa 0,0 mm 1,9 km/h (1 Bft) S 188 ° 0 min 0,000 mm 0,0 UV-I 0 W/m² 1,7 °C 3,2 km/h (1 Bft)
03.11.2016 01:20 2,7 °C 2,7 °C 94 % 1019,7 hPa 0,0 mm 4,3 km/h (1 Bft) S-SW 206 ° 0 min 0,000 mm 0,0 UV-I 0 W/m² 1,8 °C 6,4 km/h (2 Bft)
03.11.2016 01:21 2,7 °C 2,7 °C 93 % 1019,6 hPa 0,0 mm 5,0 km/h (1 Bft) S-SW 192 ° 0 min 0,000 mm 0,0 UV-I 0 W/m² 1,7 °C 6,4 km/h (2 Bft)
03.11.2016 01:22 2,7 °C 2,7 °C 93 % 1019,6 hPa 0,0 mm 4,0 km/h (1 Bft) S 184 ° 0 min 0,000 mm 0,0 UV-I 0 W/m² 1,7 °C 6,4 km/h (2 Bft)
03.11.2016 01:23 2,7 °C 2,7 °C 93 % 1019,7 hPa 0,0 mm 2,9 km/h (1 Bft) S 177 ° 0 min 0,000 mm 0,0 UV-I 0 W/m² 1,7 °C 6,4 km/h (2 Bft)
03.11.2016 01:24 2,7 °C 2,7 °C 93 % 1019,7 hPa 0,0 mm 4,6 km/h (1 Bft) S 180 ° 0 min 0,000 mm 0,0 UV-I 0 W/m² 1,7 °C 6,4 km/h (2 Bft)
03.11.2016 01:25 2,7 °C 2,8 °C 93 % 1019,7 hPa 0,0 mm 3,6 km/h (1 Bft) S 189 ° 0 min 0,000 mm 0,0 UV-I 0 W/m² 1,7 °C 6,4 km/h (2 Bft)
03.11.2016 01:26 2,8 °C 2,8 °C 93 % 1019,7 hPa 0,0 mm 4,7 km/h (1 Bft) S 176 ° 0 min 0,000 mm 0,0 UV-I 0 W/m² 1,8 °C 6,4 km/h (2 Bft)
03.11.2016 01:27 2,8 °C 2,8 °C 93 % 1019,7 hPa 0,0 mm 4,9 km/h (1 Bft) S-SW 212 ° 0 min 0,000 mm 0,0 UV-I 0 W/m² 1,8 °C 6,4 km/h (2 Bft)
03.11.2016 01:28 2,8 °C 2,8 °C 93 % 1019,7 hPa 0,0 mm 2,8 km/h (1 Bft) S 179 ° 0 min 0,000 mm 0,0 UV-I 0 W/m² 1,8 °C 3,2 km/h (1 Bft)
03.11.2016 01:29 2,8 °C 2,8 °C 93 % 1019,8 hPa 0,0 mm 4,5 km/h (1 Bft) S-SW 192 ° 0 min 0,000 mm 0,0 UV-I 0 W/m² 1,8 °C 6,4 km/h (2 Bft)
03.11.2016 01:30 2,8 °C 2,8 °C 92 % 1019,8 hPa 0,0 mm 5,9 km/h (2 Bft) S 181 ° 0 min 0,000 mm 0,0 UV-I 0 W/m² 1,6 °C 8,0 km/h (2 Bft)
03.11.2016 01:31 2,8 °C 2,8 °C 92 % 1019,7 hPa 0,0 mm 2,5 km/h (1 Bft) S 178 ° 0 min 0,000 mm 0,0 UV-I 0 W/m² 1,6 °C 4,8 km/h (1 Bft)
03.11.2016 01:32 2,9 °C 2,9 °C 92 % 1019,7 hPa 0,0 mm 5,8 km/h (2 Bft) S 176 ° 0 min 0,000 mm 0,0 UV-I 0 W/m² 1,7 °C 8,0 km/h (2 Bft)
03.11.2016 01:33 2,9 °C 2,9 °C 92 % 1019,8 hPa 0,0 mm 3,9 km/h (1 Bft) S 190 ° 0 min 0,000 mm 0,0 UV-I 0 W/m² 1,7 °C 6,4 km/h (2 Bft)
03.11.2016 01:34 2,9 °C 2,9 °C 92 % 1019,7 hPa 0,0 mm 3,5 km/h (1 Bft) S-SW 196 ° 0 min 0,000 mm 0,0 UV-I 0 W/m² 1,7 °C 4,8 km/h (1 Bft)
03.11.2016 01:35 2,9 °C 2,9 °C 92 % 1019,7 hPa 0,0 mm 5,2 km/h (1 Bft) S-SW 197 ° 0 min 0,000 mm 0,0 UV-I 0 W/m² 1,7 °C 9,7 km/h (2 Bft)
03.11.2016 01:36 2,9 °C 2,9 °C 92 % 1019,7 hPa 0,0 mm 5,6 km/h (1 Bft) S-SW 192 ° 0 min 0,000 mm 0,0 UV-I 0 W/m² 1,7 °C 8,0 km/h (2 Bft)
03.11.2016 01:37 2,9 °C 2,9 °C 92 % 1019,8 hPa 0,0 mm 2,8 km/h (1 Bft) S-SW 192 ° 0 min 0,000 mm 0,0 UV-I 0 W/m² 1,7 °C 4,8 km/h (1 Bft)
03.11.2016 01:38 2,9 °C 2,9 °C 92 % 1019,8 hPa 0,0 mm 5,2 km/h (1 Bft) S 190 ° 0 min 0,000 mm 0,0 UV-I 0 W/m² 1,7 °C 6,4 km/h (2 Bft)
03.11.2016 01:39 2,9 °C 2,9 °C 92 % 1019,8 hPa 0,0 mm 5,2 km/h (1 Bft) S-SW 193 ° 0 min 0,000 mm 0,0 UV-I 0 W/m² 1,7 °C 8,0 km/h (2 Bft)
03.11.2016 01:40 2,9 °C 2,9 °C 92 % 1019,8 hPa 0,0 mm 5,0 km/h (1 Bft) S 191 ° 0 min 0,000 mm 0,0 UV-I 0 W/m² 1,7 °C 6,4 km/h (2 Bft)
03.11.2016 01:41 2,9 °C 2,9 °C 92 % 1019,8 hPa 0,0 mm 5,9 km/h (2 Bft) S 186 ° 0 min 0,000 mm 0,0 UV-I 0 W/m² 1,7 °C 8,0 km/h (2 Bft)
03.11.2016 01:42 2,9 °C 2,9 °C 92 % 1019,8 hPa 0,0 mm 5,5 km/h (1 Bft) S-SO 168 ° 0 min 0,000 mm 0,0 UV-I 0 W/m² 1,7 °C 9,7 km/h (2 Bft)
03.11.2016 01:43 2,9 °C 2,9 °C 92 % 1019,8 hPa 0,0 mm 3,2 km/h (1 Bft) S 190 ° 0 min 0,000 mm 0,0 UV-I 0 W/m² 1,7 °C 4,8 km/h (1 Bft)
03.11.2016 01:44 2,9 °C 2,9 °C 92 % 1019,8 hPa 0,0 mm 1,9 km/h (1 Bft) S 189 ° 0 min 0,000 mm 0,0 UV-I 0 W/m² 1,7 °C 3,2 km/h (1 Bft)
03.11.2016 01:45 2,9 °C 2,9 °C 92 % 1019,8 hPa 0,0 mm 5,3 km/h (1 Bft) S-SW 196 ° 0 min 0,000 mm 0,0 UV-I 0 W/m² 1,7 °C 6,4 km/h (2 Bft)
03.11.2016 01:46 2,9 °C 2,9 °C 92 % 1019,8 hPa 0,0 mm 2,3 km/h (1 Bft) S-SW 196 ° 0 min 0,000 mm 0,0 UV-I 0 W/m² 1,7 °C 4,8 km/h (1 Bft)
03.11.2016 01:47 2,9 °C 2,9 °C 92 % 1019,8 hPa 0,0 mm 2,5 km/h (1 Bft) S-SW 196 ° 0 min 0,000 mm 0,0 UV-I 0 W/m² 1,7 °C 3,2 km/h (1 Bft)
03.11.2016 01:48 2,9 °C 2,9 °C 92 % 1019,8 hPa 0,0 mm 4,5 km/h (1 Bft) S-SO 166 ° 0 min 0,000 mm 0,0 UV-I 0 W/m² 1,7 °C 8,0 km/h (2 Bft)
03.11.2016 01:49 2,9 °C 2,9 °C 92 % 1019,8 hPa 0,0 mm 3,6 km/h (1 Bft) S 175 ° 0 min 0,000 mm 0,0 UV-I 0 W/m² 1,7 °C 6,4 km/h (2 Bft)
03.11.2016 01:50 2,9 °C 2,9 °C 92 % 1019,8 hPa 0,0 mm 3,4 km/h (1 Bft) S 175 ° 0 min 0,000 mm 0,0 UV-I 0 W/m² 1,7 °C 4,8 km/h (1 Bft)
03.11.2016 01:51 2,8 °C 2,9 °C 93 % 1019,8 hPa 0,0 mm 2,7 km/h (1 Bft) S 175 ° 0 min 0,000 mm 0,0 UV-I 0 W/m² 1,8 °C 4,8 km/h (1 Bft)
03.11.2016 01:52 2,8 °C 2,9 °C 93 % 1019,8 hPa 0,0 mm 4,0 km/h (1 Bft) S-SO 152 ° 0 min 0,000 mm 0,0 UV-I 0 W/m² 1,8 °C 6,4 km/h (2 Bft)
03.11.2016 01:53 2,8 °C 2,8 °C 93 % 1019,8 hPa 0,0 mm 3,3 km/h (1 Bft) S 191 ° 0 min 0,000 mm 0,0 UV-I 0 W/m² 1,8 °C 6,4 km/h (2 Bft)
03.11.2016 01:54 2,8 °C 2,8 °C 93 % 1019,8 hPa 0,0 mm 3,0 km/h (1 Bft) S 190 ° 0 min 0,000 mm 0,0 UV-I 0 W/m² 1,8 °C 6,4 km/h (2 Bft)
03.11.2016 01:55 2,8 °C 2,8 °C 93 % 1019,8 hPa 0,0 mm 4,8 km/h (1 Bft) S-SO 167 ° 0 min 0,000 mm 0,0 UV-I 0 W/m² 1,8 °C 6,4 km/h (2 Bft)
03.11.2016 01:56 2,8 °C 2,8 °C 93 % 1019,8 hPa 0,0 mm 4,7 km/h (1 Bft) S-SW 195 ° 0 min 0,000 mm 0,0 UV-I 0 W/m² 1,8 °C 8,0 km/h (2 Bft)
03.11.2016 01:57 2,8 °C 2,8 °C 93 % 1019,8 hPa 0,0 mm 3,6 km/h (1 Bft) S 189 ° 0 min 0,000 mm 0,0 UV-I 0 W/m² 1,8 °C 4,8 km/h (1 Bft)
03.11.2016 01:58 2,8 °C 2,8 °C 92 % 1019,8 hPa 0,0 mm 5,8 km/h (2 Bft) S-SW 192 ° 0 min 0,000 mm 0,0 UV-I 0 W/m² 1,6 °C 8,0 km/h (2 Bft)
03.11.2016 01:59 2,8 °C 2,8 °C 92 % 1019,9 hPa 0,0 mm 6,6 km/h (2 Bft) S-SO 167 ° 0 min 0,000 mm 0,0 UV-I 0 W/m² 1,6 °C 9,7 km/h (2 Bft)
03.11.2016 02:00 2,8 °C 2,8 °C 92 % 1019,9 hPa 0,0 mm 6,0 km/h (2 Bft) S-SW 202 ° 0 min 0,000 mm 0,0 UV-I 0 W/m² 1,6 °C 11,3 km/h (2 Bft)
03.11.2016 02:01 2,9 °C 2,9 °C 92 % 1019,9 hPa 0,0 mm 5,5 km/h (1 Bft) S 182 ° 0 min 0,000 mm 0,0 UV-I 0 W/m² 1,7 °C 9,7 km/h (2 Bft)
03.11.2016 02:02 2,9 °C 2,9 °C 92 % 1019,9 hPa 0,0 mm 5,5 km/h (1 Bft) S 174 ° 0 min 0,000 mm 0,0 UV-I 0 W/m² 1,7 °C 8,0 km/h (2 Bft)
03.11.2016 02:03 2,9 °C 2,9 °C 92 % 1019,9 hPa 0,0 mm 5,4 km/h (1 Bft) S 180 ° 0 min 0,000 mm 0,0 UV-I 0 W/m² 1,7 °C 6,4 km/h (2 Bft)
03.11.2016 02:04 2,9 °C 2,9 °C 92 % 1019,9 hPa 0,0 mm 5,0 km/h (1 Bft) W-SW 242 ° 0 min 0,000 mm 0,0 UV-I 0 W/m² 1,7 °C 6,4 km/h (2 Bft)
03.11.2016 02:05 2,9 °C 2,9 °C 92 % 1019,9 hPa 0,0 mm 2,7 km/h (1 Bft) S 173 ° 0 min 0,000 mm 0,0 UV-I 0 W/m² 1,7 °C 4,8 km/h (1 Bft)
03.11.2016 02:06 2,9 °C 2,9 °C 92 % 1019,9 hPa 0,0 mm 6,0 km/h (2 Bft) S 185 ° 0 min 0,000 mm 0,0 UV-I 0 W/m² 1,7 °C 11,3 km/h (2 Bft)
03.11.2016 02:07 2,9 °C 2,9 °C 92 % 1019,9 hPa 0,0 mm 4,6 km/h (1 Bft) S 180 ° 0 min 0,000 mm 0,0 UV-I 0 W/m² 1,7 °C 6,4 km/h (2 Bft)
03.11.2016 02:08 2,9 °C 2,9 °C 92 % 1020,0 hPa 0,0 mm 5,3 km/h (1 Bft) S 187 ° 0 min 0,000 mm 0,0 UV-I 0 W/m² 1,7 °C 6,4 km/h (2 Bft)
03.11.2016 02:09 2,9 °C 2,9 °C 92 % 1020,0 hPa 0,0 mm 6,2 km/h (2 Bft) S 173 ° 0 min 0,000 mm 0,0 UV-I 0 W/m² 1,7 °C 9,7 km/h (2 Bft)
03.11.2016 02:10 2,9 °C 2,9 °C 92 % 1019,9 hPa 0,0 mm 6,6 km/h (2 Bft) S-SW 202 ° 0 min 0,000 mm 0,0 UV-I 0 W/m² 1,7 °C 8,0 km/h (2 Bft)
03.11.2016 02:11 2,9 °C 2,9 °C 92 % 1019,9 hPa 0,0 mm 5,0 km/h (1 Bft) SW 228 ° 0 min 0,000 mm 0,0 UV-I 0 W/m² 1,7 °C 8,0 km/h (2 Bft)
03.11.2016 02:12 2,9 °C 2,9 °C 92 % 1019,9 hPa 0,0 mm 2,5 km/h (1 Bft) S 188 ° 0 min 0,000 mm 0,0 UV-I 0 W/m² 1,7 °C 4,8 km/h (1 Bft)
03.11.2016 02:13 3,0 °C 3,0 °C 92 % 1019,9 hPa 0,0 mm 5,0 km/h (1 Bft) S-SW 197 ° 0 min 0,000 mm 0,0 UV-I 0 W/m² 1,8 °C 6,4 km/h (2 Bft)
03.11.2016 02:14 3,0 °C 3,0 °C 91 % 1019,9 hPa 0,0 mm 6,0 km/h (2 Bft) S-SW 199 ° 0 min 0,000 mm 0,0 UV-I 0 W/m² 1,7 °C 8,0 km/h (2 Bft)
03.11.2016 02:15 3,0 °C 3,0 °C 91 % 1019,9 hPa 0,0 mm 2,9 km/h (1 Bft) S-SW 199 ° 0 min 0,000 mm 0,0 UV-I 0 W/m² 1,7 °C 4,8 km/h (1 Bft)
03.11.2016 02:16 3,0 °C 3,0 °C 91 % 1019,9 hPa 0,0 mm 3,0 km/h (1 Bft) S 182 ° 0 min 0,000 mm 0,0 UV-I 0 W/m² 1,7 °C 6,4 km/h (2 Bft)
03.11.2016 02:17 3,0 °C 3,0 °C 91 % 1019,9 hPa 0,0 mm 3,9 km/h (1 Bft) S-SW 196 ° 0 min 0,000 mm 0,0 UV-I 0 W/m² 1,7 °C 4,8 km/h (1 Bft)
03.11.2016 02:18 3,0 °C 3,1 °C 91 % 1019,9 hPa 0,0 mm 2,7 km/h (1 Bft) S-SW 196 ° 0 min 0,000 mm 0,0 UV-I 0 W/m² 1,7 °C 3,2 km/h (1 Bft)
03.11.2016 02:19 3,1 °C 3,1 °C 91 % 1019,9 hPa 0,0 mm 3,3 km/h (1 Bft) S-SW 196 ° 0 min 0,000 mm 0,0 UV-I 0 W/m² 1,8 °C 4,8 km/h (1 Bft)
03.11.2016 02:20 3,1 °C 3,1 °C 91 % 1019,9 hPa 0,0 mm 3,0 km/h (1 Bft) S-SW 196 ° 0 min 0,000 mm 0,0 UV-I 0 W/m² 1,8 °C 4,8 km/h (1 Bft)
03.11.2016 02:21 3,1 °C 3,1 °C 91 % 1019,9 hPa 0,0 mm 3,4 km/h (1 Bft) S-SW 193 ° 0 min 0,000 mm 0,0 UV-I 0 W/m² 1,8 °C 4,8 km/h (1 Bft)
03.11.2016 02:22 3,1 °C 3,1 °C 91 % 1019,9 hPa 0,0 mm 2,8 km/h (1 Bft) S-SW 197 ° 0 min 0,000 mm 0,0 UV-I 0 W/m² 1,8 °C 4,8 km/h (1 Bft)
03.11.2016 02:23 3,1 °C 3,1 °C 91 % 1020,0 hPa 0,0 mm 2,1 km/h (1 Bft) S-SW 197 ° 0 min 0,000 mm 0,0 UV-I 0 W/m² 1,8 °C 3,2 km/h (1 Bft)
03.11.2016 02:24 3,1 °C 3,1 °C 91 % 1020,0 hPa 0,0 mm 2,1 km/h (1 Bft) S-SW 197 ° 0 min 0,000 mm 0,0 UV-I 0 W/m² 1,8 °C 3,2 km/h (1 Bft)
03.11.2016 02:25 3,1 °C 3,1 °C 91 % 1020,0 hPa 0,0 mm 1,8 km/h (1 Bft) S-SW 197 ° 0 min 0,000 mm 0,0 UV-I 0 W/m² 1,8 °C 3,2 km/h (1 Bft)
03.11.2016 02:26 3,1 °C 3,1 °C 91 % 1020,0 hPa 0,0 mm 0,7 km/h (0 Bft) S-SW 197 ° 0 min 0,000 mm 0,0 UV-I 0 W/m² 1,8 °C 1,6 km/h (1 Bft)
03.11.2016 02:27 3,1 °C 3,1 °C 91 % 1020,0 hPa 0,0 mm 0,4 km/h (0 Bft) S-SW 197 ° 0 min 0,000 mm 0,0 UV-I 0 W/m² 1,8 °C 1,6 km/h (1 Bft)
03.11.2016 02:28 3,1 °C 3,1 °C 91 % 1020,1 hPa 0,0 mm 0,1 km/h (0 Bft) S-SW 197 ° 0 min 0,000 mm 0,0 UV-I 0 W/m² 1,8 °C 1,6 km/h (1 Bft)
03.11.2016 02:29 3,0 °C 3,1 °C 91 % 1020,1 hPa 0,0 mm 1,3 km/h (1 Bft) S-SW 197 ° 0 min 0,000 mm 0,0 UV-I 0 W/m² 1,7 °C 3,2 km/h (1 Bft)
03.11.2016 02:30 3,1 °C 3,1 °C 91 % 1020,0 hPa 0,0 mm 1,7 km/h (1 Bft) SW 234 ° 0 min 0,000 mm 0,0 UV-I 0 W/m² 1,8 °C 3,2 km/h (1 Bft)
03.11.2016 02:31 3,1 °C 3,1 °C 91 % 1020,0 hPa 0,0 mm 0,5 km/h (0 Bft) SW 234 ° 0 min 0,000 mm 0,0 UV-I 0 W/m² 1,8 °C 1,6 km/h (1 Bft)
03.11.2016 02:32 3,1 °C 3,1 °C 91 % 1020,0 hPa 0,0 mm 0,0 km/h (0 Bft) SW 234 ° 0 min 0,000 mm 0,0 UV-I 0 W/m² 1,8 °C 0,0 km/h (0 Bft)
03.11.2016 02:33 3,1 °C 3,1 °C 91 % 1020,0 hPa 0,0 mm 0,0 km/h (0 Bft) SW 234 ° 0 min 0,000 mm 0,0 UV-I 0 W/m² 1,8 °C 0,0 km/h (0 Bft)
03.11.2016 02:34 3,0 °C 3,1 °C 91 % 1020,1 hPa 0,0 mm 0,9 km/h (0 Bft) SW 234 ° 0 min 0,000 mm 0,0 UV-I 0 W/m² 1,7 °C 1,6 km/h (1 Bft)
03.11.2016 02:35 3,0 °C 3,1 °C 92 % 1020,1 hPa 0,0 mm 1,3 km/h (1 Bft) SW 234 ° 0 min 0,000 mm 0,0 UV-I 0 W/m² 1,8 °C 3,2 km/h (1 Bft)
03.11.2016 02:36 3,0 °C 3,0 °C 92 % 1020,0 hPa 0,0 mm 0,4 km/h (0 Bft) SW 234 ° 0 min 0,000 mm 0,0 UV-I 0 W/m² 1,8 °C 1,6 km/h (1 Bft)
03.11.2016 02:37 2,9 °C 3,0 °C 92 % 1020,0 hPa 0,0 mm 0,0 km/h (0 Bft) SW 234 ° 0 min 0,000 mm 0,0 UV-I 0 W/m² 1,7 °C 0,0 km/h (0 Bft)
03.11.2016 02:38 3,0 °C 3,0 °C 92 % 1020,0 hPa 0,0 mm 0,0 km/h (0 Bft) SW 234 ° 0 min 0,000 mm 0,0 UV-I 0 W/m² 1,8 °C 0,0 km/h (0 Bft)
03.11.2016 02:39 2,9 °C 3,0 °C 92 % 1020,0 hPa 0,0 mm 0,0 km/h (0 Bft) SW 234 ° 0 min 0,000 mm 0,0 UV-I 0 W/m² 1,7 °C 0,0 km/h (0 Bft)
03.11.2016 02:40 2,9 °C 2,9 °C 92 % 1020,0 hPa 0,0 mm 0,0 km/h (0 Bft) SW 234 ° 0 min 0,000 mm 0,0 UV-I 0 W/m² 1,7 °C 0,0 km/h (0 Bft)
03.11.2016 02:41 2,9 °C 2,9 °C 92 % 1020,0 hPa 0,0 mm 0,0 km/h (0 Bft) SW 234 ° 0 min 0,000 mm 0,0 UV-I 0 W/m² 1,7 °C 0,0 km/h (0 Bft)
03.11.2016 02:42 2,9 °C 2,9 °C 92 % 1020,0 hPa 0,0 mm 0,6 km/h (0 Bft) SW 234 ° 0 min 0,000 mm 0,0 UV-I 0 W/m² 1,7 °C 1,6 km/h (1 Bft)
03.11.2016 02:43 2,9 °C 2,9 °C 92 % 1020,1 hPa 0,0 mm 1,2 km/h (1 Bft) SW 234 ° 0 min 0,000 mm 0,0 UV-I 0 W/m² 1,7 °C 3,2 km/h (1 Bft)
03.11.2016 02:44 2,9 °C 2,9 °C 92 % 1020,0 hPa 0,0 mm 0,0 km/h (0 Bft) SW 234 ° 0 min 0,000 mm 0,0 UV-I 0 W/m² 1,7 °C 0,0 km/h (0 Bft)
03.11.2016 02:45 2,9 °C 2,9 °C 92 % 1020,0 hPa 0,0 mm 0,0 km/h (0 Bft) SW 234 ° 0 min 0,000 mm 0,0 UV-I 0 W/m² 1,7 °C 0,0 km/h (0 Bft)
03.11.2016 02:46 2,9 °C 2,9 °C 93 % 1020,0 hPa 0,0 mm 0,0 km/h (0 Bft) SW 234 ° 0 min 0,000 mm 0,0 UV-I 0 W/m² 1,9 °C 0,0 km/h (0 Bft)
03.11.2016 02:47 2,9 °C 2,9 °C 92 % 1020,0 hPa 0,0 mm 0,1 km/h (0 Bft) SW 234 ° 0 min 0,000 mm 0,0 UV-I 0 W/m² 1,7 °C 1,6 km/h (1 Bft)
03.11.2016 02:48 2,8 °C 2,9 °C 93 % 1020,0 hPa 0,0 mm 0,0 km/h (0 Bft) SW 234 ° 0 min 0,000 mm 0,0 UV-I 0 W/m² 1,8 °C 0,0 km/h (0 Bft)
03.11.2016 02:49 2,8 °C 2,8 °C 93 % 1020,1 hPa 0,0 mm 0,0 km/h (0 Bft) SW 234 ° 0 min 0,000 mm 0,0 UV-I 0 W/m² 1,8 °C 0,0 km/h (0 Bft)
03.11.2016 02:50 2,8 °C 2,8 °C 93 % 1020,1 hPa 0,0 mm 0,0 km/h (0 Bft) SW 234 ° 0 min 0,000 mm 0,0 UV-I 0 W/m² 1,8 °C 0,0 km/h (0 Bft)
03.11.2016 02:51 2,8 °C 2,8 °C 93 % 1020,1 hPa 0,0 mm 0,8 km/h (0 Bft) SW 234 ° 0 min 0,000 mm 0,0 UV-I 0 W/m² 1,8 °C 1,6 km/h (1 Bft)
03.11.2016 02:52 2,8 °C 2,8 °C 93 % 1020,0 hPa 0,0 mm 1,4 km/h (1 Bft) SW 234 ° 0 min 0,000 mm 0,0 UV-I 0 W/m² 1,8 °C 1,6 km/h (1 Bft)
03.11.2016 02:53 2,8 °C 2,8 °C 93 % 1020,0 hPa 0,0 mm 1,7 km/h (1 Bft) SW 234 ° 0 min 0,000 mm 0,0 UV-I 0 W/m² 1,8 °C 3,2 km/h (1 Bft)
03.11.2016 02:54 2,8 °C 2,8 °C 93 % 1020,0 hPa 0,0 mm 0,6 km/h (0 Bft) SW 234 ° 0 min 0,000 mm 0,0 UV-I 0 W/m² 1,8 °C 1,6 km/h (1 Bft)
03.11.2016 02:55 2,8 °C 2,8 °C 93 % 1020,0 hPa 0,0 mm 1,8 km/h (1 Bft) SW 219 ° 0 min 0,000 mm 0,0 UV-I 0 W/m² 1,8 °C 3,2 km/h (1 Bft)
03.11.2016 02:56 2,8 °C 2,8 °C 93 % 1020,0 hPa 0,0 mm 3,4 km/h (1 Bft) S-SW 203 ° 0 min 0,000 mm 0,0 UV-I 0 W/m² 1,8 °C 4,8 km/h (1 Bft)
03.11.2016 02:57 2,8 °C 2,8 °C 93 % 1020,0 hPa 0,0 mm 2,1 km/h (1 Bft) S-SW 203 ° 0 min 0,000 mm 0,0 UV-I 0 W/m² 1,8 °C 3,2 km/h (1 Bft)
03.11.2016 02:58 2,8 °C 2,8 °C 93 % 1020,0 hPa 0,0 mm 2,0 km/h (1 Bft) S-SW 203 ° 0 min 0,000 mm 0,0 UV-I 0 W/m² 1,8 °C 3,2 km/h (1 Bft)
03.11.2016 02:59 2,8 °C 2,8 °C 93 % 1020,0 hPa 0,0 mm 1,7 km/h (1 Bft) S-SW 203 ° 0 min 0,000 mm 0,0 UV-I 0 W/m² 1,8 °C 3,2 km/h (1 Bft)
03.11.2016 03:00 2,8 °C 2,9 °C 93 % 1020,0 hPa 0,0 mm 0,1 km/h (0 Bft) S-SW 203 ° 0 min 0,000 mm 0,0 UV-I 0 W/m² 1,8 °C 1,6 km/h (1 Bft)
03.11.2016 03:01 2,9 °C 2,9 °C 93 % 1020,0 hPa 0,0 mm 0,0 km/h (0 Bft) S-SW 203 ° 0 min 0,000 mm 0,0 UV-I 0 W/m² 1,9 °C 0,0 km/h (0 Bft)
03.11.2016 03:02 2,9 °C 2,9 °C 93 % 1020,1 hPa 0,0 mm 0,0 km/h (0 Bft) S-SW 203 ° 0 min 0,000 mm 0,0 UV-I 0 W/m² 1,9 °C 0,0 km/h (0 Bft)
03.11.2016 03:03 2,9 °C 2,9 °C 93 % 1020,1 hPa 0,0 mm 0,0 km/h (0 Bft) S-SW 203 ° 0 min 0,000 mm 0,0 UV-I 0 W/m² 1,9 °C 0,0 km/h (0 Bft)
03.11.2016 03:04 2,8 °C 2,9 °C 93 % 1020,1 hPa 0,0 mm 0,0 km/h (0 Bft) S-SW 203 ° 0 min 0,000 mm 0,0 UV-I 0 W/m² 1,8 °C 0,0 km/h (0 Bft)
03.11.2016 03:05 2,8 °C 2,8 °C 93 % 1020,1 hPa 0,0 mm 0,0 km/h (0 Bft) S-SW 203 ° 0 min 0,000 mm 0,0 UV-I 0 W/m² 1,8 °C 0,0 km/h (0 Bft)
03.11.2016 03:06 2,9 °C 2,9 °C 93 % 1020,1 hPa 0,0 mm 0,0 km/h (0 Bft) S-SW 203 ° 0 min 0,000 mm 0,0 UV-I 0 W/m² 1,9 °C 0,0 km/h (0 Bft)
03.11.2016 03:07 2,9 °C 2,9 °C 92 % 1020,2 hPa 0,0 mm 0,0 km/h (0 Bft) S-SW 203 ° 0 min 0,000 mm 0,0 UV-I 0 W/m² 1,7 °C 0,0 km/h (0 Bft)
03.11.2016 03:08 2,9 °C 2,9 °C 92 % 1020,1 hPa 0,0 mm 0,0 km/h (0 Bft) S-SW 203 ° 0 min 0,000 mm 0,0 UV-I 0 W/m² 1,7 °C 0,0 km/h (0 Bft)
03.11.2016 03:09 2,9 °C 2,9 °C 92 % 1020,1 hPa 0,0 mm 0,0 km/h (0 Bft) S-SW 203 ° 0 min 0,000 mm 0,0 UV-I 0 W/m² 1,7 °C 0,0 km/h (0 Bft)
03.11.2016 03:10 2,9 °C 2,9 °C 92 % 1020,1 hPa 0,0 mm 0,0 km/h (0 Bft) S-SW 203 ° 0 min 0,000 mm 0,0 UV-I 0 W/m² 1,7 °C 0,0 km/h (0 Bft)
03.11.2016 03:11 2,9 °C 2,9 °C 92 % 1020,2 hPa 0,0 mm 0,0 km/h (0 Bft) S-SW 203 ° 0 min 0,000 mm 0,0 UV-I 0 W/m² 1,7 °C 0,0 km/h (0 Bft)
03.11.2016 03:12 2,9 °C 2,9 °C 92 % 1020,1 hPa 0,0 mm 1,4 km/h (1 Bft) S-SW 203 ° 0 min 0,000 mm 0,0 UV-I 0 W/m² 1,7 °C 3,2 km/h (1 Bft)
03.11.2016 03:13 2,9 °C 2,9 °C 92 % 1020,2 hPa 0,0 mm 2,4 km/h (1 Bft) S-SW 203 ° 0 min 0,000 mm 0,0 UV-I 0 W/m² 1,7 °C 3,2 km/h (1 Bft)
03.11.2016 03:14 2,9 °C 2,9 °C 92 % 1020,2 hPa 0,0 mm 0,8 km/h (0 Bft) S-SW 203 ° 0 min 0,000 mm 0,0 UV-I 0 W/m² 1,7 °C 3,2 km/h (1 Bft)
03.11.2016 03:15 2,9 °C 2,9 °C 92 % 1020,2 hPa 0,0 mm 4,1 km/h (1 Bft) S-SW 201 ° 0 min 0,000 mm 0,0 UV-I 0 W/m² 1,7 °C 6,4 km/h (2 Bft)
03.11.2016 03:16 2,9 °C 3,0 °C 92 % 1020,3 hPa 0,0 mm 1,1 km/h (1 Bft) S-SW 201 ° 0 min 0,000 mm 0,0 UV-I 0 W/m² 1,7 °C 1,6 km/h (1 Bft)
03.11.2016 03:17 2,9 °C 2,9 °C 92 % 1020,3 hPa 0,0 mm 1,7 km/h (1 Bft) S-SW 201 ° 0 min 0,000 mm 0,0 UV-I 0 W/m² 1,7 °C 3,2 km/h (1 Bft)
03.11.2016 03:18 3,0 °C 3,0 °C 92 % 1020,3 hPa 0,0 mm 2,7 km/h (1 Bft) SW 229 ° 0 min 0,000 mm 0,0 UV-I 0 W/m² 1,8 °C 4,8 km/h (1 Bft)
03.11.2016 03:19 3,0 °C 3,0 °C 92 % 1020,3 hPa 0,0 mm 1,9 km/h (1 Bft) SW 229 ° 0 min 0,000 mm 0,0 UV-I 0 W/m² 1,8 °C 3,2 km/h (1 Bft)
03.11.2016 03:20 3,0 °C 3,0 °C 91 % 1020,2 hPa 0,0 mm 1,3 km/h (1 Bft) SW 229 ° 0 min 0,000 mm 0,0 UV-I 0 W/m² 1,7 °C 3,2 km/h (1 Bft)
03.11.2016 03:21 3,0 °C 3,1 °C 91 % 1020,2 hPa 0,0 mm 3,8 km/h (1 Bft) W-SW 254 ° 0 min 0,000 mm 0,0 UV-I 0 W/m² 1,7 °C 6,4 km/h (2 Bft)
03.11.2016 03:22 3,0 °C 3,1 °C 91 % 1020,2 hPa 0,0 mm 2,4 km/h (1 Bft) W-SW 254 ° 0 min 0,000 mm 0,0 UV-I 0 W/m² 1,7 °C 4,8 km/h (1 Bft)
03.11.2016 03:23 3,1 °C 3,1 °C 91 % 1020,3 hPa 0,0 mm 1,7 km/h (1 Bft) W-SW 254 ° 0 min 0,000 mm 0,0 UV-I 0 W/m² 1,8 °C 3,2 km/h (1 Bft)
03.11.2016 03:24 3,1 °C 3,1 °C 91 % 1020,2 hPa 0,0 mm 2,3 km/h (1 Bft) W-SW 254 ° 0 min 0,000 mm 0,0 UV-I 0 W/m² 1,8 °C 3,2 km/h (1 Bft)
03.11.2016 03:25 3,1 °C 3,1 °C 91 % 1020,2 hPa 0,0 mm 2,8 km/h (1 Bft) S-SW 202 ° 0 min 0,000 mm 0,0 UV-I 0 W/m² 1,8 °C 4,8 km/h (1 Bft)
03.11.2016 03:26 3,1 °C 3,1 °C 91 % 1020,2 hPa 0,0 mm 2,8 km/h (1 Bft) S-SW 202 ° 0 min 0,000 mm 0,0 UV-I 0 W/m² 1,8 °C 4,8 km/h (1 Bft)
03.11.2016 03:27 3,1 °C 3,1 °C 91 % 1020,1 hPa 0,0 mm 1,7 km/h (1 Bft) S-SW 202 ° 0 min 0,000 mm 0,0 UV-I 0 W/m² 1,8 °C 3,2 km/h (1 Bft)
03.11.2016 03:28 3,1 °C 3,1 °C 91 % 1020,2 hPa 0,0 mm 0,9 km/h (0 Bft) S-SW 202 ° 0 min 0,000 mm 0,0 UV-I 0 W/m² 1,8 °C 3,2 km/h (1 Bft)
03.11.2016 03:29 3,1 °C 3,1 °C 91 % 1020,1 hPa 0,0 mm 1,4 km/h (1 Bft) S-SW 202 ° 0 min 0,000 mm 0,0 UV-I 0 W/m² 1,8 °C 3,2 km/h (1 Bft)
03.11.2016 03:30 3,0 °C 3,1 °C 91 % 1020,1 hPa 0,0 mm 1,7 km/h (1 Bft) S-SW 202 ° 0 min 0,000 mm 0,0 UV-I 0 W/m² 1,7 °C 3,2 km/h (1 Bft)
03.11.2016 03:31 3,1 °C 3,1 °C 91 % 1020,1 hPa 0,0 mm 2,5 km/h (1 Bft) S-SW 202 ° 0 min 0,000 mm 0,0 UV-I 0 W/m² 1,8 °C 4,8 km/h (1 Bft)
03.11.2016 03:32 3,1 °C 3,1 °C 91 % 1020,1 hPa 0,0 mm 2,3 km/h (1 Bft) S 190 ° 0 min 0,000 mm 0,0 UV-I 0 W/m² 1,8 °C 3,2 km/h (1 Bft)
03.11.2016 03:33 3,1 °C 3,1 °C 91 % 1020,1 hPa 0,0 mm 4,4 km/h (1 Bft) S-SW 205 ° 0 min 0,000 mm 0,0 UV-I 0 W/m² 1,8 °C 6,4 km/h (2 Bft)
03.11.2016 03:34 3,1 °C 3,1 °C 91 % 1020,1 hPa 0,0 mm 3,6 km/h (1 Bft) S-SW 203 ° 0 min 0,000 mm 0,0 UV-I 0 W/m² 1,8 °C 4,8 km/h (1 Bft)
03.11.2016 03:35 3,1 °C 3,1 °C 91 % 1020,1 hPa 0,0 mm 2,9 km/h (1 Bft) SW 221 ° 0 min 0,000 mm 0,0 UV-I 0 W/m² 1,8 °C 4,8 km/h (1 Bft)
03.11.2016 03:36 3,1 °C 3,1 °C 91 % 1020,1 hPa 0,0 mm 3,6 km/h (1 Bft) W-SW 252 ° 0 min 0,000 mm 0,0 UV-I 0 W/m² 1,8 °C 4,8 km/h (1 Bft)
03.11.2016 03:37 3,1 °C 3,1 °C 91 % 1020,1 hPa 0,0 mm 5,1 km/h (1 Bft) SW 230 ° 0 min 0,000 mm 0,0 UV-I 0 W/m² 1,8 °C 8,0 km/h (2 Bft)
03.11.2016 03:38 3,1 °C 3,1 °C 91 % 1020,1 hPa 0,0 mm 3,2 km/h (1 Bft) S-SW 198 ° 0 min 0,000 mm 0,0 UV-I 0 W/m² 1,8 °C 6,4 km/h (2 Bft)
03.11.2016 03:39 3,1 °C 3,1 °C 91 % 1020,1 hPa 0,0 mm 3,1 km/h (1 Bft) S-SW 195 ° 0 min 0,000 mm 0,0 UV-I 0 W/m² 1,8 °C 4,8 km/h (1 Bft)
03.11.2016 03:40 3,1 °C 3,1 °C 91 % 1020,1 hPa 0,0 mm 3,5 km/h (1 Bft) SW 219 ° 0 min 0,000 mm 0,0 UV-I 0 W/m² 1,8 °C 4,8 km/h (1 Bft)
03.11.2016 03:41 3,1 °C 3,1 °C 91 % 1020,1 hPa 0,0 mm 2,6 km/h (1 Bft) SW 219 ° 0 min 0,000 mm 0,0 UV-I 0 W/m² 1,8 °C 3,2 km/h (1 Bft)
03.11.2016 03:42 3,1 °C 3,1 °C 91 % 1020,1 hPa 0,0 mm 1,9 km/h (1 Bft) SW 219 ° 0 min 0,000 mm 0,0 UV-I 0 W/m² 1,8 °C 3,2 km/h (1 Bft)
03.11.2016 03:43 3,1 °C 3,1 °C 91 % 1020,1 hPa 0,0 mm 3,2 km/h (1 Bft) S-SW 194 ° 0 min 0,000 mm 0,0 UV-I 0 W/m² 1,8 °C 4,8 km/h (1 Bft)
03.11.2016 03:44 3,1 °C 3,1 °C 91 % 1020,0 hPa 0,0 mm 1,6 km/h (1 Bft) S-SW 194 ° 0 min 0,000 mm 0,0 UV-I 0 W/m² 1,8 °C 1,6 km/h (1 Bft)
03.11.2016 03:45 3,1 °C 3,1 °C 91 % 1020,1 hPa 0,0 mm 2,9 km/h (1 Bft) S-SW 194 ° 0 min 0,000 mm 0,0 UV-I 0 W/m² 1,8 °C 4,8 km/h (1 Bft)
03.11.2016 03:46 3,1 °C 3,1 °C 91 % 1020,1 hPa 0,0 mm 3,6 km/h (1 Bft) S-SW 195 ° 0 min 0,000 mm 0,0 UV-I 0 W/m² 1,8 °C 4,8 km/h (1 Bft)
03.11.2016 03:47 3,1 °C 3,1 °C 91 % 1020,1 hPa 0,0 mm 2,4 km/h (1 Bft) S-SW 194 ° 0 min 0,000 mm 0,0 UV-I 0 W/m² 1,8 °C 3,2 km/h (1 Bft)
03.11.2016 03:48 3,1 °C 3,1 °C 91 % 1020,0 hPa 0,0 mm 4,0 km/h (1 Bft) S 185 ° 0 min 0,000 mm 0,0 UV-I 0 W/m² 1,8 °C 4,8 km/h (1 Bft)
03.11.2016 03:49 3,1 °C 3,1 °C 91 % 1020,1 hPa 0,0 mm 3,2 km/h (1 Bft) S-SW 206 ° 0 min 0,000 mm 0,0 UV-I 0 W/m² 1,8 °C 6,4 km/h (2 Bft)
03.11.2016 03:50 3,1 °C 3,1 °C 91 % 1020,1 hPa 0,0 mm 2,8 km/h (1 Bft) S-SW 204 ° 0 min 0,000 mm 0,0 UV-I 0 W/m² 1,8 °C 4,8 km/h (1 Bft)
03.11.2016 03:51 3,1 °C 3,1 °C 91 % 1020,1 hPa 0,0 mm 3,6 km/h (1 Bft) W-SW 257 ° 0 min 0,000 mm 0,0 UV-I 0 W/m² 1,8 °C 6,4 km/h (2 Bft)
03.11.2016 03:52 3,1 °C 3,1 °C 91 % 1020,1 hPa 0,0 mm 4,0 km/h (1 Bft) W-SW 252 ° 0 min 0,000 mm 0,0 UV-I 0 W/m² 1,8 °C 4,8 km/h (1 Bft)
03.11.2016 03:53 3,1 °C 3,1 °C 91 % 1020,1 hPa 0,0 mm 1,7 km/h (1 Bft) W-SW 252 ° 0 min 0,000 mm 0,0 UV-I 0 W/m² 1,8 °C 3,2 km/h (1 Bft)
03.11.2016 03:54 3,1 °C 3,1 °C 91 % 1020,2 hPa 0,0 mm 1,5 km/h (1 Bft) W-SW 252 ° 0 min 0,000 mm 0,0 UV-I 0 W/m² 1,8 °C 3,2 km/h (1 Bft)
03.11.2016 03:55 3,1 °C 3,1 °C 91 % 1020,2 hPa 0,0 mm 2,3 km/h (1 Bft) W-SW 253 ° 0 min 0,000 mm 0,0 UV-I 0 W/m² 1,8 °C 4,8 km/h (1 Bft)
03.11.2016 03:56 3,1 °C 3,1 °C 92 % 1020,2 hPa 0,0 mm 3,3 km/h (1 Bft) W-SW 243 ° 0 min 0,000 mm 0,0 UV-I 0 W/m² 1,9 °C 4,8 km/h (1 Bft)
03.11.2016 03:57 3,1 °C 3,1 °C 92 % 1020,3 hPa 0,0 mm 1,8 km/h (1 Bft) W-SW 243 ° 0 min 0,000 mm 0,0 UV-I 0 W/m² 1,9 °C 3,2 km/h (1 Bft)
03.11.2016 03:58 3,1 °C 3,1 °C 92 % 1020,2 hPa 0,0 mm 2,7 km/h (1 Bft) W-SW 243 ° 0 min 0,000 mm 0,0 UV-I 0 W/m² 1,9 °C 3,2 km/h (1 Bft)
03.11.2016 03:59 3,1 °C 3,1 °C 92 % 1020,1 hPa 0,0 mm 2,3 km/h (1 Bft) W-SW 243 ° 0 min 0,000 mm 0,0 UV-I 0 W/m² 1,9 °C 3,2 km/h (1 Bft)
03.11.2016 04:00 3,1 °C 3,1 °C 92 % 1020,2 hPa 0,0 mm 2,6 km/h (1 Bft) W-SW 243 ° 0 min 0,000 mm 0,0 UV-I 0 W/m² 1,9 °C 3,2 km/h (1 Bft)
03.11.2016 04:01 3,1 °C 3,1 °C 92 % 1020,1 hPa 0,0 mm 3,1 km/h (1 Bft) S-SW 213 ° 0 min 0,000 mm 0,0 UV-I 0 W/m² 1,9 °C 4,8 km/h (1 Bft)
03.11.2016 04:02 3,1 °C 3,1 °C 92 % 1020,1 hPa 0,0 mm 3,0 km/h (1 Bft) S-SW 198 ° 0 min 0,000 mm 0,0 UV-I 0 W/m² 1,9 °C 3,2 km/h (1 Bft)
03.11.2016 04:03 3,1 °C 3,1 °C 92 % 1020,1 hPa 0,0 mm 4,7 km/h (1 Bft) S 170 ° 0 min 0,000 mm 0,0 UV-I 0 W/m² 1,9 °C 6,4 km/h (2 Bft)
03.11.2016 04:04 3,1 °C 3,1 °C 92 % 1020,1 hPa 0,0 mm 5,3 km/h (1 Bft) S-SW 192 ° 0 min 0,000 mm 0,0 UV-I 0 W/m² 1,9 °C 6,4 km/h (2 Bft)
03.11.2016 04:05 3,1 °C 3,1 °C 92 % 1020,1 hPa 0,0 mm 4,6 km/h (1 Bft) S-SW 196 ° 0 min 0,000 mm 0,0 UV-I 0 W/m² 1,9 °C 6,4 km/h (2 Bft)
03.11.2016 04:06 3,1 °C 3,1 °C 92 % 1020,1 hPa 0,0 mm 2,2 km/h (1 Bft) S 173 ° 0 min 0,000 mm 0,0 UV-I 0 W/m² 1,9 °C 4,8 km/h (1 Bft)
03.11.2016 04:07 3,1 °C 3,1 °C 92 % 1020,1 hPa 0,0 mm 3,3 km/h (1 Bft) S 187 ° 0 min 0,000 mm 0,0 UV-I 0 W/m² 1,9 °C 6,4 km/h (2 Bft)
03.11.2016 04:08 3,1 °C 3,1 °C 92 % 1020,1 hPa 0,0 mm 3,3 km/h (1 Bft) S 188 ° 0 min 0,000 mm 0,0 UV-I 0 W/m² 1,9 °C 4,8 km/h (1 Bft)
03.11.2016 04:09 3,1 °C 3,1 °C 92 % 1020,1 hPa 0,0 mm 4,8 km/h (1 Bft) S 186 ° 0 min 0,000 mm 0,0 UV-I 0 W/m² 1,9 °C 6,4 km/h (2 Bft)
03.11.2016 04:10 3,1 °C 3,1 °C 91 % 1020,1 hPa 0,0 mm 4,0 km/h (1 Bft) S 181 ° 0 min 0,000 mm 0,0 UV-I 0 W/m² 1,8 °C 8,0 km/h (2 Bft)
03.11.2016 04:11 3,1 °C 3,1 °C 91 % 1020,0 hPa 0,0 mm 4,1 km/h (1 Bft) S 188 ° 0 min 0,000 mm 0,0 UV-I 0 W/m² 1,8 °C 4,8 km/h (1 Bft)
03.11.2016 04:12 3,1 °C 3,1 °C 91 % 1020,1 hPa 0,0 mm 3,2 km/h (1 Bft) S-SW 213 ° 0 min 0,000 mm 0,0 UV-I 0 W/m² 1,8 °C 4,8 km/h (1 Bft)
03.11.2016 04:13 3,1 °C 3,1 °C 91 % 1020,2 hPa 0,0 mm 2,7 km/h (1 Bft) W-SW 242 ° 0 min 0,000 mm 0,0 UV-I 0 W/m² 1,8 °C 4,8 km/h (1 Bft)
03.11.2016 04:14 3,1 °C 3,1 °C 91 % 1020,1 hPa 0,0 mm 4,0 km/h (1 Bft) S-SW 198 ° 0 min 0,000 mm 0,0 UV-I 0 W/m² 1,8 °C 6,4 km/h (2 Bft)
03.11.2016 04:15 3,1 °C 3,1 °C 91 % 1020,1 hPa 0,0 mm 2,6 km/h (1 Bft) S-SW 198 ° 0 min 0,000 mm 0,0 UV-I 0 W/m² 1,8 °C 3,2 km/h (1 Bft)
03.11.2016 04:16 3,1 °C 3,1 °C 91 % 1020,1 hPa 0,0 mm 1,9 km/h (1 Bft) S-SW 198 ° 0 min 0,000 mm 0,0 UV-I 0 W/m² 1,8 °C 4,8 km/h (1 Bft)
03.11.2016 04:17 3,1 °C 3,1 °C 91 % 1020,1 hPa 0,0 mm 2,5 km/h (1 Bft) S-SW 198 ° 0 min 0,000 mm 0,0 UV-I 0 W/m² 1,8 °C 4,8 km/h (1 Bft)
03.11.2016 04:18 3,1 °C 3,1 °C 91 % 1020,1 hPa 0,0 mm 2,6 km/h (1 Bft) S-SW 198 ° 0 min 0,000 mm 0,0 UV-I 0 W/m² 1,8 °C 3,2 km/h (1 Bft)
03.11.2016 04:19 3,1 °C 3,1 °C 91 % 1020,1 hPa 0,0 mm 2,2 km/h (1 Bft) SW 216 ° 0 min 0,000 mm 0,0 UV-I 0 W/m² 1,8 °C 3,2 km/h (1 Bft)
03.11.2016 04:20 3,1 °C 3,1 °C 92 % 1020,1 hPa 0,0 mm 0,7 km/h (0 Bft) SW 216 ° 0 min 0,000 mm 0,0 UV-I 0 W/m² 1,9 °C 1,6 km/h (1 Bft)
03.11.2016 04:21 3,1 °C 3,1 °C 92 % 1020,0 hPa 0,0 mm 0,1 km/h (0 Bft) SW 216 ° 0 min 0,000 mm 0,0 UV-I 0 W/m² 1,9 °C 1,6 km/h (1 Bft)
03.11.2016 04:22 3,1 °C 3,1 °C 92 % 1020,1 hPa 0,0 mm 2,1 km/h (1 Bft) SW 216 ° 0 min 0,000 mm 0,0 UV-I 0 W/m² 1,9 °C 3,2 km/h (1 Bft)
03.11.2016 04:23 3,1 °C 3,1 °C 92 % 1020,1 hPa 0,0 mm 2,0 km/h (1 Bft) SW 216 ° 0 min 0,000 mm 0,0 UV-I 0 W/m² 1,9 °C 3,2 km/h (1 Bft)
03.11.2016 04:24 3,1 °C 3,1 °C 92 % 1020,1 hPa 0,0 mm 2,7 km/h (1 Bft) SW 215 ° 0 min 0,000 mm 0,0 UV-I 0 W/m² 1,9 °C 4,8 km/h (1 Bft)
03.11.2016 04:25 3,1 °C 3,1 °C 92 % 1020,1 hPa 0,0 mm 1,9 km/h (1 Bft) SW 215 ° 0 min 0,000 mm 0,0 UV-I 0 W/m² 1,9 °C 3,2 km/h (1 Bft)
03.11.2016 04:26 3,1 °C 3,1 °C 92 % 1020,0 hPa 0,0 mm 0,1 km/h (0 Bft) SW 215 ° 0 min 0,000 mm 0,0 UV-I 0 W/m² 1,9 °C 1,6 km/h (1 Bft)
03.11.2016 04:27 3,1 °C 3,1 °C 92 % 1020,1 hPa 0,0 mm 1,5 km/h (1 Bft) SW 215 ° 0 min 0,000 mm 0,0 UV-I 0 W/m² 1,9 °C 3,2 km/h (1 Bft)
03.11.2016 04:28 3,1 °C 3,1 °C 92 % 1020,1 hPa 0,0 mm 1,2 km/h (1 Bft) SW 215 ° 0 min 0,000 mm 0,0 UV-I 0 W/m² 1,9 °C 3,2 km/h (1 Bft)
03.11.2016 04:29 3,1 °C 3,1 °C 92 % 1020,1 hPa 0,0 mm 2,3 km/h (1 Bft) W-SW 243 ° 0 min 0,000 mm 0,0 UV-I 0 W/m² 1,9 °C 4,8 km/h (1 Bft)
03.11.2016 04:30 3,1 °C 3,1 °C 92 % 1020,1 hPa 0,0 mm 3,7 km/h (1 Bft) W 269 ° 0 min 0,000 mm 0,0 UV-I 0 W/m² 1,9 °C 4,8 km/h (1 Bft)
03.11.2016 04:31 3,1 °C 3,1 °C 92 % 1020,1 hPa 0,0 mm 2,9 km/h (1 Bft) W 269 ° 0 min 0,000 mm 0,0 UV-I 0 W/m² 1,9 °C 4,8 km/h (1 Bft)
03.11.2016 04:32 3,0 °C 3,1 °C 92 % 1020,2 hPa 0,0 mm 2,8 km/h (1 Bft) W 269 ° 0 min 0,000 mm 0,0 UV-I 0 W/m² 1,8 °C 3,2 km/h (1 Bft)
03.11.2016 04:33 3,1 °C 3,1 °C 92 % 1020,2 hPa 0,0 mm 2,1 km/h (1 Bft) W 269 ° 0 min 0,000 mm 0,0 UV-I 0 W/m² 1,9 °C 3,2 km/h (1 Bft)
03.11.2016 04:34 3,1 °C 3,1 °C 92 % 1020,2 hPa 0,0 mm 1,7 km/h (1 Bft) W 269 ° 0 min 0,000 mm 0,0 UV-I 0 W/m² 1,9 °C 3,2 km/h (1 Bft)
03.11.2016 04:35 3,0 °C 3,1 °C 92 % 1020,2 hPa 0,0 mm 1,3 km/h (1 Bft) W 269 ° 0 min 0,000 mm 0,0 UV-I 0 W/m² 1,8 °C 1,6 km/h (1 Bft)
03.11.2016 04:36 3,0 °C 3,0 °C 92 % 1020,3 hPa 0,0 mm 0,1 km/h (0 Bft) W 269 ° 0 min 0,000 mm 0,0 UV-I 0 W/m² 1,8 °C 1,6 km/h (1 Bft)
03.11.2016 04:37 3,0 °C 3,1 °C 92 % 1020,3 hPa 0,0 mm 0,4 km/h (0 Bft) W 269 ° 0 min 0,000 mm 0,0 UV-I 0 W/m² 1,8 °C 1,6 km/h (1 Bft)
03.11.2016 04:38 3,0 °C 3,0 °C 92 % 1020,3 hPa 0,0 mm 0,1 km/h (0 Bft) W 269 ° 0 min 0,000 mm 0,0 UV-I 0 W/m² 1,8 °C 1,6 km/h (1 Bft)
03.11.2016 04:39 3,0 °C 3,0 °C 92 % 1020,3 hPa 0,0 mm 0,1 km/h (0 Bft) W 269 ° 0 min 0,000 mm 0,0 UV-I 0 W/m² 1,8 °C 1,6 km/h (1 Bft)
03.11.2016 04:40 2,9 °C 3,0 °C 92 % 1020,3 hPa 0,0 mm 0,9 km/h (0 Bft) W 269 ° 0 min 0,000 mm 0,0 UV-I 0 W/m² 1,7 °C 1,6 km/h (1 Bft)
03.11.2016 04:41 3,0 °C 3,0 °C 92 % 1020,4 hPa 0,0 mm 0,7 km/h (0 Bft) W 269 ° 0 min 0,000 mm 0,0 UV-I 0 W/m² 1,8 °C 1,6 km/h (1 Bft)
03.11.2016 04:42 2,9 °C 3,0 °C 92 % 1020,4 hPa 0,0 mm 0,9 km/h (0 Bft) W 269 ° 0 min 0,000 mm 0,0 UV-I 0 W/m² 1,7 °C 1,6 km/h (1 Bft)
03.11.2016 04:43 3,0 °C 3,0 °C 92 % 1020,3 hPa 0,0 mm 0,0 km/h (0 Bft) W 269 ° 0 min 0,000 mm 0,0 UV-I 0 W/m² 1,8 °C 0,0 km/h (0 Bft)
03.11.2016 04:44 2,9 °C 3,0 °C 92 % 1020,3 hPa 0,0 mm 0,0 km/h (0 Bft) W 269 ° 0 min 0,000 mm 0,0 UV-I 0 W/m² 1,7 °C 0,0 km/h (0 Bft)
03.11.2016 04:45 3,0 °C 3,0 °C 92 % 1020,3 hPa 0,0 mm 0,0 km/h (0 Bft) W 269 ° 0 min 0,000 mm 0,0 UV-I 0 W/m² 1,8 °C 0,0 km/h (0 Bft)
03.11.2016 04:46 2,9 °C 3,0 °C 92 % 1020,3 hPa 0,0 mm 0,0 km/h (0 Bft) W 269 ° 0 min 0,000 mm 0,0 UV-I 0 W/m² 1,7 °C 0,0 km/h (0 Bft)
03.11.2016 04:47 3,0 °C 3,0 °C 92 % 1020,3 hPa 0,0 mm 0,0 km/h (0 Bft) W 269 ° 0 min 0,000 mm 0,0 UV-I 0 W/m² 1,8 °C 0,0 km/h (0 Bft)
03.11.2016 04:48 2,9 °C 3,0 °C 92 % 1020,3 hPa 0,0 mm 0,0 km/h (0 Bft) W 269 ° 0 min 0,000 mm 0,0 UV-I 0 W/m² 1,7 °C 0,0 km/h (0 Bft)
03.11.2016 04:49 3,0 °C 3,0 °C 92 % 1020,4 hPa 0,0 mm 0,0 km/h (0 Bft) W 269 ° 0 min 0,000 mm 0,0 UV-I 0 W/m² 1,8 °C 0,0 km/h (0 Bft)
03.11.2016 04:50 3,0 °C 3,0 °C 92 % 1020,4 hPa 0,0 mm 0,0 km/h (0 Bft) W 269 ° 0 min 0,000 mm 0,0 UV-I 0 W/m² 1,8 °C 0,0 km/h (0 Bft)
03.11.2016 04:51 2,9 °C 3,0 °C 92 % 1020,5 hPa 0,0 mm 0,0 km/h (0 Bft) W 269 ° 0 min 0,000 mm 0,0 UV-I 0 W/m² 1,7 °C 0,0 km/h (0 Bft)
03.11.2016 04:52 2,9 °C 3,0 °C 92 % 1020,5 hPa 0,0 mm 0,0 km/h (0 Bft) W 269 ° 0 min 0,000 mm 0,0 UV-I 0 W/m² 1,7 °C 0,0 km/h (0 Bft)
03.11.2016 04:53 3,0 °C 3,0 °C 92 % 1020,5 hPa 0,0 mm 0,0 km/h (0 Bft) W 269 ° 0 min 0,000 mm 0,0 UV-I 0 W/m² 1,8 °C 0,0 km/h (0 Bft)
03.11.2016 04:54 3,0 °C 3,0 °C 92 % 1020,5 hPa 0,0 mm 0,0 km/h (0 Bft) W 269 ° 0 min 0,000 mm 0,0 UV-I 0 W/m² 1,8 °C 0,0 km/h (0 Bft)
03.11.2016 04:55 2,9 °C 3,0 °C 93 % 1020,5 hPa 0,0 mm 3,3 km/h (1 Bft) W 261 ° 0 min 0,000 mm 0,0 UV-I 0 W/m² 1,9 °C 6,4 km/h (2 Bft)
03.11.2016 04:56 3,0 °C 3,0 °C 93 % 1020,5 hPa 0,0 mm 3,1 km/h (1 Bft) W 261 ° 0 min 0,000 mm 0,0 UV-I 0 W/m² 2,0 °C 4,8 km/h (1 Bft)
03.11.2016 04:57 3,0 °C 3,0 °C 93 % 1020,5 hPa 0,0 mm 0,6 km/h (0 Bft) W 261 ° 0 min 0,000 mm 0,0 UV-I 0 W/m² 2,0 °C 1,6 km/h (1 Bft)
03.11.2016 04:58 2,9 °C 3,0 °C 93 % 1020,4 hPa 0,0 mm 0,5 km/h (0 Bft) W 261 ° 0 min 0,000 mm 0,0 UV-I 0 W/m² 1,9 °C 1,6 km/h (1 Bft)
03.11.2016 04:59 2,9 °C 3,0 °C 93 % 1020,4 hPa 0,0 mm 0,6 km/h (0 Bft) W 261 ° 0 min 0,000 mm 0,0 UV-I 0 W/m² 1,9 °C 1,6 km/h (1 Bft)
03.11.2016 05:00 3,0 °C 3,0 °C 93 % 1020,4 hPa 0,0 mm 0,7 km/h (0 Bft) W 261 ° 0 min 0,000 mm 0,0 UV-I 0 W/m² 2,0 °C 1,6 km/h (1 Bft)
03.11.2016 05:01 2,9 °C 3,0 °C 93 % 1020,4 hPa 0,0 mm 1,1 km/h (1 Bft) W 260 ° 0 min 0,000 mm 0,0 UV-I 0 W/m² 1,9 °C 4,8 km/h (1 Bft)
03.11.2016 05:02 2,9 °C 2,9 °C 93 % 1020,4 hPa 0,0 mm 1,9 km/h (1 Bft) W 259 ° 0 min 0,000 mm 0,0 UV-I 0 W/m² 1,9 °C 3,2 km/h (1 Bft)
03.11.2016 05:03 2,9 °C 2,9 °C 93 % 1020,5 hPa 0,0 mm 2,8 km/h (1 Bft) W-SW 256 ° 0 min 0,000 mm 0,0 UV-I 0 W/m² 1,9 °C 4,8 km/h (1 Bft)
03.11.2016 05:04 2,9 °C 2,9 °C 93 % 1020,5 hPa 0,0 mm 2,5 km/h (1 Bft) W-SW 256 ° 0 min 0,000 mm 0,0 UV-I 0 W/m² 1,9 °C 4,8 km/h (1 Bft)
03.11.2016 05:05 2,9 °C 2,9 °C 93 % 1020,4 hPa 0,0 mm 4,8 km/h (1 Bft) W-SW 256 ° 0 min 0,000 mm 0,0 UV-I 0 W/m² 1,9 °C 6,4 km/h (2 Bft)
03.11.2016 05:06 2,9 °C 2,9 °C 93 % 1020,5 hPa 0,0 mm 2,7 km/h (1 Bft) W-SW 256 ° 0 min 0,000 mm 0,0 UV-I 0 W/m² 1,9 °C 3,2 km/h (1 Bft)
03.11.2016 05:07 2,9 °C 2,9 °C 93 % 1020,5 hPa 0,0 mm 3,2 km/h (1 Bft) W-SW 255 ° 0 min 0,000 mm 0,0 UV-I 0 W/m² 1,9 °C 4,8 km/h (1 Bft)
03.11.2016 05:08 2,9 °C 2,9 °C 93 % 1020,5 hPa 0,0 mm 3,5 km/h (1 Bft) W-SW 246 ° 0 min 0,000 mm 0,0 UV-I 0 W/m² 1,9 °C 4,8 km/h (1 Bft)
03.11.2016 05:09 2,9 °C 2,9 °C 93 % 1020,5 hPa 0,0 mm 1,8 km/h (1 Bft) W-SW 246 ° 0 min 0,000 mm 0,0 UV-I 0 W/m² 1,9 °C 3,2 km/h (1 Bft)
03.11.2016 05:10 2,9 °C 2,9 °C 93 % 1020,5 hPa 0,0 mm 2,1 km/h (1 Bft) W-SW 246 ° 0 min 0,000 mm 0,0 UV-I 0 W/m² 1,9 °C 3,2 km/h (1 Bft)
03.11.2016 05:11 2,9 °C 2,9 °C 92 % 1020,5 hPa 0,0 mm 2,5 km/h (1 Bft) S-SW 206 ° 0 min 0,000 mm 0,0 UV-I 0 W/m² 1,7 °C 4,8 km/h (1 Bft)
03.11.2016 05:12 2,9 °C 2,9 °C 93 % 1020,5 hPa 0,0 mm 2,7 km/h (1 Bft) S-SW 209 ° 0 min 0,000 mm 0,0 UV-I 0 W/m² 1,9 °C 6,4 km/h (2 Bft)
03.11.2016 05:13 2,9 °C 2,9 °C 92 % 1020,5 hPa 0,0 mm 1,8 km/h (1 Bft) S-SW 209 ° 0 min 0,000 mm 0,0 UV-I 0 W/m² 1,7 °C 3,2 km/h (1 Bft)
03.11.2016 05:14 2,9 °C 2,9 °C 92 % 1020,5 hPa 0,0 mm 1,8 km/h (1 Bft) S-SW 209 ° 0 min 0,000 mm 0,0 UV-I 0 W/m² 1,7 °C 3,2 km/h (1 Bft)
03.11.2016 05:15 2,9 °C 2,9 °C 92 % 1020,6 hPa 0,0 mm 2,6 km/h (1 Bft) S-SW 204 ° 0 min 0,000 mm 0,0 UV-I 0 W/m² 1,7 °C 4,8 km/h (1 Bft)
03.11.2016 05:16 2,9 °C 2,9 °C 92 % 1020,5 hPa 0,0 mm 2,3 km/h (1 Bft) S-SW 204 ° 0 min 0,000 mm 0,0 UV-I 0 W/m² 1,7 °C 3,2 km/h (1 Bft)
03.11.2016 05:17 2,9 °C 2,9 °C 92 % 1020,5 hPa 0,0 mm 2,4 km/h (1 Bft) S-SW 204 ° 0 min 0,000 mm 0,0 UV-I 0 W/m² 1,7 °C 4,8 km/h (1 Bft)
03.11.2016 05:18 2,9 °C 2,9 °C 92 % 1020,5 hPa 0,0 mm 2,1 km/h (1 Bft) SW 216 ° 0 min 0,000 mm 0,0 UV-I 0 W/m² 1,7 °C 3,2 km/h (1 Bft)
03.11.2016 05:19 2,8 °C 2,9 °C 92 % 1020,5 hPa 0,0 mm 2,3 km/h (1 Bft) S-SW 207 ° 0 min 0,000 mm 0,0 UV-I 0 W/m² 1,6 °C 4,8 km/h (1 Bft)
03.11.2016 05:20 2,9 °C 2,9 °C 92 % 1020,5 hPa 0,0 mm 2,7 km/h (1 Bft) S-SW 207 ° 0 min 0,000 mm 0,0 UV-I 0 W/m² 1,7 °C 4,8 km/h (1 Bft)
03.11.2016 05:21 2,8 °C 2,9 °C 92 % 1020,5 hPa 0,0 mm 1,6 km/h (1 Bft) S-SW 207 ° 0 min 0,000 mm 0,0 UV-I 0 W/m² 1,6 °C 3,2 km/h (1 Bft)
03.11.2016 05:22 2,8 °C 2,9 °C 92 % 1020,5 hPa 0,0 mm 2,9 km/h (1 Bft) S-SW 207 ° 0 min 0,000 mm 0,0 UV-I 0 W/m² 1,6 °C 4,8 km/h (1 Bft)
03.11.2016 05:23 2,8 °C 2,9 °C 92 % 1020,5 hPa 0,0 mm 3,8 km/h (1 Bft) S-SW 196 ° 0 min 0,000 mm 0,0 UV-I 0 W/m² 1,6 °C 6,4 km/h (2 Bft)
03.11.2016 05:24 2,8 °C 2,9 °C 92 % 1020,5 hPa 0,0 mm 2,0 km/h (1 Bft) W-SW 250 ° 0 min 0,000 mm 0,0 UV-I 0 W/m² 1,6 °C 4,8 km/h (1 Bft)
03.11.2016 05:25 2,8 °C 2,9 °C 92 % 1020,5 hPa 0,0 mm 1,0 km/h (0 Bft) W-SW 250 ° 0 min 0,000 mm 0,0 UV-I 0 W/m² 1,6 °C 1,6 km/h (1 Bft)
03.11.2016 05:26 2,8 °C 2,9 °C 92 % 1020,5 hPa 0,0 mm 3,1 km/h (1 Bft) SW 236 ° 0 min 0,000 mm 0,0 UV-I 0 W/m² 1,6 °C 4,8 km/h (1 Bft)
03.11.2016 05:27 2,8 °C 2,9 °C 92 % 1020,5 hPa 0,0 mm 5,2 km/h (1 Bft) S-SW 209 ° 0 min 0,000 mm 0,0 UV-I 0 W/m² 1,6 °C 8,0 km/h (2 Bft)
03.11.2016 05:28 2,8 °C 2,9 °C 92 % 1020,5 hPa 0,0 mm 2,7 km/h (1 Bft) SW 229 ° 0 min 0,000 mm 0,0 UV-I 0 W/m² 1,6 °C 3,2 km/h (1 Bft)
03.11.2016 05:29 2,8 °C 2,9 °C 92 % 1020,5 hPa 0,0 mm 1,7 km/h (1 Bft) SW 229 ° 0 min 0,000 mm 0,0 UV-I 0 W/m² 1,6 °C 3,2 km/h (1 Bft)
03.11.2016 05:30 2,8 °C 2,8 °C 92 % 1020,5 hPa 0,0 mm 1,4 km/h (1 Bft) SW 229 ° 0 min 0,000 mm 0,0 UV-I 0 W/m² 1,6 °C 1,6 km/h (1 Bft)
03.11.2016 05:31 2,8 °C 2,8 °C 92 % 1020,5 hPa 0,0 mm 1,4 km/h (1 Bft) SW 229 ° 0 min 0,000 mm 0,0 UV-I 0 W/m² 1,6 °C 3,2 km/h (1 Bft)
03.11.2016 05:32 2,8 °C 2,8 °C 92 % 1020,5 hPa 0,0 mm 3,0 km/h (1 Bft) SW 221 ° 0 min 0,000 mm 0,0 UV-I 0 W/m² 1,6 °C 3,2 km/h (1 Bft)
03.11.2016 05:33 2,8 °C 2,8 °C 92 % 1020,5 hPa 0,0 mm 2,4 km/h (1 Bft) SW 221 ° 0 min 0,000 mm 0,0 UV-I 0 W/m² 1,6 °C 4,8 km/h (1 Bft)
03.11.2016 05:34 2,8 °C 2,8 °C 92 % 1020,5 hPa 0,0 mm 3,8 km/h (1 Bft) S-SW 210 ° 0 min 0,000 mm 0,0 UV-I 0 W/m² 1,6 °C 6,4 km/h (2 Bft)
03.11.2016 05:35 2,8 °C 2,8 °C 92 % 1020,5 hPa 0,0 mm 3,3 km/h (1 Bft) S-SW 207 ° 0 min 0,000 mm 0,0 UV-I 0 W/m² 1,6 °C 4,8 km/h (1 Bft)
03.11.2016 05:36 2,8 °C 2,8 °C 92 % 1020,5 hPa 0,0 mm 2,1 km/h (1 Bft) S-SW 207 ° 0 min 0,000 mm 0,0 UV-I 0 W/m² 1,6 °C 3,2 km/h (1 Bft)
03.11.2016 05:37 2,8 °C 2,8 °C 92 % 1020,5 hPa 0,0 mm 2,7 km/h (1 Bft) S-SW 207 ° 0 min 0,000 mm 0,0 UV-I 0 W/m² 1,6 °C 4,8 km/h (1 Bft)
03.11.2016 05:38 2,8 °C 2,8 °C 92 % 1020,5 hPa 0,0 mm 2,5 km/h (1 Bft) S-SW 207 ° 0 min 0,000 mm 0,0 UV-I 0 W/m² 1,6 °C 4,8 km/h (1 Bft)
03.11.2016 05:39 2,8 °C 2,8 °C 92 % 1020,5 hPa 0,0 mm 0,9 km/h (0 Bft) S-SW 207 ° 0 min 0,000 mm 0,0 UV-I 0 W/m² 1,6 °C 3,2 km/h (1 Bft)
03.11.2016 05:40 2,8 °C 2,8 °C 92 % 1020,5 hPa 0,0 mm 2,0 km/h (1 Bft) S-SW 207 ° 0 min 0,000 mm 0,0 UV-I 0 W/m² 1,6 °C 3,2 km/h (1 Bft)
03.11.2016 05:41 2,8 °C 2,8 °C 92 % 1020,5 hPa 0,0 mm 2,7 km/h (1 Bft) S-SW 207 ° 0 min 0,000 mm 0,0 UV-I 0 W/m² 1,6 °C 4,8 km/h (1 Bft)
03.11.2016 05:42 2,7 °C 2,8 °C 92 % 1020,5 hPa 0,0 mm 1,8 km/h (1 Bft) S-SW 207 ° 0 min 0,000 mm 0,0 UV-I 0 W/m² 1,5 °C 3,2 km/h (1 Bft)
03.11.2016 05:43 2,7 °C 2,7 °C 92 % 1020,5 hPa 0,0 mm 2,7 km/h (1 Bft) S-SW 207 ° 0 min 0,000 mm 0,0 UV-I 0 W/m² 1,5 °C 4,8 km/h (1 Bft)
03.11.2016 05:44 2,7 °C 2,7 °C 92 % 1020,5 hPa 0,0 mm 2,3 km/h (1 Bft) S-SW 207 ° 0 min 0,000 mm 0,0 UV-I 0 W/m² 1,5 °C 4,8 km/h (1 Bft)
03.11.2016 05:45 2,7 °C 2,7 °C 92 % 1020,5 hPa 0,0 mm 1,1 km/h (1 Bft) S-SW 207 ° 0 min 0,000 mm 0,0 UV-I 0 W/m² 1,5 °C 3,2 km/h (1 Bft)
03.11.2016 05:46 2,7 °C 2,7 °C 92 % 1020,5 hPa 0,0 mm 2,6 km/h (1 Bft) S-SW 207 ° 0 min 0,000 mm 0,0 UV-I 0 W/m² 1,5 °C 4,8 km/h (1 Bft)
03.11.2016 05:47 2,7 °C 2,7 °C 92 % 1020,6 hPa 0,0 mm 2,3 km/h (1 Bft) S-SW 207 ° 0 min 0,000 mm 0,0 UV-I 0 W/m² 1,5 °C 3,2 km/h (1 Bft)
03.11.2016 05:48 2,6 °C 2,7 °C 92 % 1020,5 hPa 0,0 mm 1,6 km/h (1 Bft) S-SW 207 ° 0 min 0,000 mm 0,0 UV-I 0 W/m² 1,4 °C 3,2 km/h (1 Bft)
03.11.2016 05:49 2,7 °C 2,7 °C 92 % 1020,5 hPa 0,0 mm 2,1 km/h (1 Bft) S-SW 207 ° 0 min 0,000 mm 0,0 UV-I 0 W/m² 1,5 °C 3,2 km/h (1 Bft)
03.11.2016 05:50 2,6 °C 2,7 °C 92 % 1020,6 hPa 0,0 mm 1,6 km/h (1 Bft) S-SW 207 ° 0 min 0,000 mm 0,0 UV-I 0 W/m² 1,4 °C 3,2 km/h (1 Bft)
03.11.2016 05:51 2,6 °C 2,6 °C 92 % 1020,6 hPa 0,0 mm 0,2 km/h (0 Bft) S-SW 207 ° 0 min 0,000 mm 0,0 UV-I 0 W/m² 1,4 °C 1,6 km/h (1 Bft)
03.11.2016 05:52 2,6 °C 2,6 °C 92 % 1020,6 hPa 0,0 mm 0,0 km/h (0 Bft) S-SW 207 ° 0 min 0,000 mm 0,0 UV-I 0 W/m² 1,4 °C 0,0 km/h (0 Bft)
03.11.2016 05:53 2,6 °C 2,6 °C 91 % 1020,5 hPa 0,0 mm 0,0 km/h (0 Bft) S-SW 207 ° 0 min 0,000 mm 0,0 UV-I 0 W/m² 1,3 °C 0,0 km/h (0 Bft)
03.11.2016 05:54 2,6 °C 2,6 °C 91 % 1020,6 hPa 0,0 mm 0,0 km/h (0 Bft) S-SW 207 ° 0 min 0,000 mm 0,0 UV-I 0 W/m² 1,3 °C 0,0 km/h (0 Bft)
03.11.2016 05:55 2,6 °C 2,6 °C 91 % 1020,6 hPa 0,0 mm 0,0 km/h (0 Bft) S-SW 207 ° 0 min 0,000 mm 0,0 UV-I 0 W/m² 1,3 °C 0,0 km/h (0 Bft)
03.11.2016 05:56 2,6 °C 2,6 °C 91 % 1020,6 hPa 0,0 mm 0,0 km/h (0 Bft) S-SW 207 ° 0 min 0,000 mm 0,0 UV-I 0 W/m² 1,3 °C 0,0 km/h (0 Bft)
03.11.2016 05:57 2,5 °C 2,6 °C 91 % 1020,6 hPa 0,0 mm 1,3 km/h (1 Bft) S-SW 207 ° 0 min 0,000 mm 0,0 UV-I 0 W/m² 1,2 °C 1,6 km/h (1 Bft)
03.11.2016 05:58 2,6 °C 2,6 °C 91 % 1020,6 hPa 0,0 mm 1,3 km/h (1 Bft) S-SW 207 ° 0 min 0,000 mm 0,0 UV-I 0 W/m² 1,3 °C 3,2 km/h (1 Bft)
03.11.2016 05:59 2,5 °C 2,6 °C 91 % 1020,6 hPa 0,0 mm 1,6 km/h (1 Bft) S-SW 207 ° 0 min 0,000 mm 0,0 UV-I 0 W/m² 1,2 °C 3,2 km/h (1 Bft)
03.11.2016 06:00 2,4 °C 2,5 °C 91 % 1020,6 hPa 0,0 mm 0,3 km/h (0 Bft) S-SW 207 ° 0 min 0,000 mm 0,0 UV-I 0 W/m² 1,1 °C 1,6 km/h (1 Bft)
03.11.2016 06:01 2,4 °C 2,5 °C 91 % 1020,6 hPa 0,0 mm 0,0 km/h (0 Bft) S-SW 207 ° 0 min 0,000 mm 0,0 UV-I 0 W/m² 1,1 °C 0,0 km/h (0 Bft)
03.11.2016 06:02 2,4 °C 2,4 °C 91 % 1020,5 hPa 0,0 mm 0,1 km/h (0 Bft) S-SW 207 ° 0 min 0,000 mm 0,0 UV-I 0 W/m² 1,1 °C 1,6 km/h (1 Bft)
03.11.2016 06:03 2,4 °C 2,4 °C 91 % 1020,5 hPa 0,0 mm 0,3 km/h (0 Bft) S-SW 207 ° 0 min 0,000 mm 0,0 UV-I 0 W/m² 1,1 °C 1,6 km/h (1 Bft)
03.11.2016 06:04 2,4 °C 2,4 °C 91 % 1020,6 hPa 0,0 mm 0,0 km/h (0 Bft) S-SW 207 ° 0 min 0,000 mm 0,0 UV-I 0 W/m² 1,1 °C 0,0 km/h (0 Bft)
03.11.2016 06:05 2,3 °C 2,4 °C 91 % 1020,6 hPa 0,0 mm 0,5 km/h (0 Bft) S-SW 207 ° 0 min 0,000 mm 0,0 UV-I 0 W/m² 1,0 °C 1,6 km/h (1 Bft)
03.11.2016 06:06 2,3 °C 2,4 °C 91 % 1020,7 hPa 0,0 mm 0,3 km/h (0 Bft) S-SW 207 ° 0 min 0,000 mm 0,0 UV-I 0 W/m² 1,0 °C 1,6 km/h (1 Bft)
03.11.2016 06:07 2,3 °C 2,3 °C 91 % 1020,6 hPa 0,0 mm 0,5 km/h (0 Bft) S-SW 207 ° 0 min 0,000 mm 0,0 UV-I 0 W/m² 1,0 °C 1,6 km/h (1 Bft)
03.11.2016 06:08 2,3 °C 2,3 °C 91 % 1020,6 hPa 0,0 mm 0,7 km/h (0 Bft) S-SW 207 ° 0 min 0,000 mm 0,0 UV-I 0 W/m² 1,0 °C 1,6 km/h (1 Bft)
03.11.2016 06:09 2,2 °C 2,3 °C 91 % 1020,6 hPa 0,0 mm 0,3 km/h (0 Bft) S-SW 207 ° 0 min 0,000 mm 0,0 UV-I 0 W/m² 0,9 °C 1,6 km/h (1 Bft)
03.11.2016 06:10 2,2 °C 2,3 °C 91 % 1020,6 hPa 0,0 mm 0,0 km/h (0 Bft) S-SW 207 ° 0 min 0,000 mm 0,0 UV-I 0 W/m² 0,9 °C 0,0 km/h (0 Bft)
03.11.2016 06:11 2,2 °C 2,2 °C 91 % 1020,6 hPa 0,0 mm 0,0 km/h (0 Bft) S-SW 207 ° 0 min 0,000 mm 0,0 UV-I 0 W/m² 0,9 °C 0,0 km/h (0 Bft)
03.11.2016 06:12 2,2 °C 2,2 °C 92 % 1020,7 hPa 0,0 mm 0,0 km/h (0 Bft) S-SW 207 ° 0 min 0,000 mm 0,0 UV-I 0 W/m² 1,0 °C 0,0 km/h (0 Bft)
03.11.2016 06:13 2,1 °C 2,2 °C 91 % 1020,7 hPa 0,0 mm 0,0 km/h (0 Bft) S-SW 207 ° 0 min 0,000 mm 0,0 UV-I 0 W/m² 0,8 °C 0,0 km/h (0 Bft)
03.11.2016 06:14 2,1 °C 2,2 °C 91 % 1020,7 hPa 0,0 mm 0,0 km/h (0 Bft) S-SW 207 ° 0 min 0,000 mm 0,0 UV-I 0 W/m² 0,8 °C 0,0 km/h (0 Bft)
03.11.2016 06:15 2,1 °C 2,1 °C 91 % 1020,7 hPa 0,0 mm 0,0 km/h (0 Bft) S-SW 207 ° 0 min 0,000 mm 0,0 UV-I 0 W/m² 0,8 °C 0,0 km/h (0 Bft)
03.11.2016 06:16 2,1 °C 2,1 °C 91 % 1020,7 hPa 0,0 mm 0,0 km/h (0 Bft) S-SW 207 ° 0 min 0,000 mm 0,0 UV-I 0 W/m² 0,8 °C 0,0 km/h (0 Bft)
03.11.2016 06:17 2,1 °C 2,1 °C 91 % 1020,7 hPa 0,0 mm 0,0 km/h (0 Bft) S-SW 207 ° 0 min 0,000 mm 0,0 UV-I 0 W/m² 0,8 °C 0,0 km/h (0 Bft)
03.11.2016 06:18 2,0 °C 2,1 °C 91 % 1020,7 hPa 0,0 mm 0,9 km/h (0 Bft) S-SW 207 ° 0 min 0,000 mm 0,0 UV-I 0 W/m² 0,7 °C 1,6 km/h (1 Bft)
03.11.2016 06:19 2,0 °C 2,0 °C 92 % 1020,7 hPa 0,0 mm 0,6 km/h (0 Bft) S-SW 207 ° 0 min 0,000 mm 0,0 UV-I 0 W/m² 0,8 °C 1,6 km/h (1 Bft)
03.11.2016 06:20 1,9 °C 2,0 °C 92 % 1020,7 hPa 0,0 mm 0,3 km/h (0 Bft) S-SW 207 ° 0 min 0,000 mm 0,0 UV-I 0 W/m² 0,7 °C 1,6 km/h (1 Bft)
03.11.2016 06:21 2,0 °C 2,0 °C 92 % 1020,7 hPa 0,0 mm 0,0 km/h (0 Bft) S-SW 207 ° 0 min 0,000 mm 0,0 UV-I 0 W/m² 0,8 °C 0,0 km/h (0 Bft)
03.11.2016 06:22 1,9 °C 2,0 °C 92 % 1020,8 hPa 0,0 mm 0,0 km/h (0 Bft) S-SW 207 ° 0 min 0,000 mm 0,0 UV-I 0 W/m² 0,7 °C 0,0 km/h (0 Bft)
03.11.2016 06:23 1,9 °C 1,9 °C 92 % 1020,8 hPa 0,0 mm 0,0 km/h (0 Bft) S-SW 207 ° 0 min 0,000 mm 0,0 UV-I 0 W/m² 0,7 °C 0,0 km/h (0 Bft)
03.11.2016 06:24 1,9 °C 1,9 °C 91 % 1020,8 hPa 0,0 mm 0,0 km/h (0 Bft) S-SW 207 ° 0 min 0,000 mm 0,0 UV-I 0 W/m² 0,6 °C 0,0 km/h (0 Bft)
03.11.2016 06:25 1,9 °C 1,9 °C 91 % 1020,8 hPa 0,0 mm 0,0 km/h (0 Bft) S-SW 207 ° 0 min 0,000 mm 0,0 UV-I 0 W/m² 0,6 °C 0,0 km/h (0 Bft)
03.11.2016 06:26 1,9 °C 1,9 °C 91 % 1020,8 hPa 0,0 mm 0,9 km/h (0 Bft) S-SW 207 ° 0 min 0,000 mm 0,0 UV-I 0 W/m² 0,6 °C 1,6 km/h (1 Bft)
03.11.2016 06:27 1,8 °C 1,9 °C 92 % 1020,8 hPa 0,0 mm 0,9 km/h (0 Bft) S-SW 207 ° 0 min 0,000 mm 0,0 UV-I 0 W/m² 0,6 °C 1,6 km/h (1 Bft)
03.11.2016 06:28 1,8 °C 1,8 °C 92 % 1020,8 hPa 0,0 mm 0,3 km/h (0 Bft) S-SW 207 ° 0 min 0,000 mm 0,0 UV-I 0 W/m² 0,6 °C 1,6 km/h (1 Bft)
03.11.2016 06:29 1,8 °C 1,8 °C 92 % 1020,8 hPa 0,0 mm 0,0 km/h (0 Bft) S-SW 207 ° 0 min 0,000 mm 0,0 UV-I 0 W/m² 0,6 °C 0,0 km/h (0 Bft)
03.11.2016 06:30 1,8 °C 1,8 °C 92 % 1020,8 hPa 0,0 mm 0,3 km/h (0 Bft) S-SW 207 ° 0 min 0,000 mm 0,0 UV-I 0 W/m² 0,6 °C 1,6 km/h (1 Bft)
03.11.2016 06:31 1,8 °C 1,8 °C 92 % 1020,8 hPa 0,0 mm 1,4 km/h (1 Bft) S-SW 206 ° 0 min 0,000 mm 0,0 UV-I 0 W/m² 0,6 °C 4,8 km/h (1 Bft)
03.11.2016 06:32 1,7 °C 1,8 °C 92 % 1020,8 hPa 0,0 mm 1,7 km/h (1 Bft) S-SW 206 ° 0 min 0,000 mm 0,0 UV-I 0 W/m² 0,5 °C 3,2 km/h (1 Bft)
03.11.2016 06:33 1,7 °C 1,7 °C 92 % 1020,8 hPa 0,0 mm 1,9 km/h (1 Bft) S-SW 206 ° 0 min 0,000 mm 0,0 UV-I 0 W/m² 0,5 °C 3,2 km/h (1 Bft)
03.11.2016 06:34 1,7 °C 1,7 °C 92 % 1020,8 hPa 0,0 mm 1,8 km/h (1 Bft) S-SW 206 ° 0 min 0,000 mm 0,0 UV-I 0 W/m² 0,5 °C 3,2 km/h (1 Bft)
03.11.2016 06:35 1,7 °C 1,7 °C 93 % 1020,9 hPa 0,0 mm 1,3 km/h (1 Bft) S-SW 201 ° 0 min 0,000 mm 0,0 UV-I 0 W/m² 0,7 °C 3,2 km/h (1 Bft)
03.11.2016 06:36 1,7 °C 1,7 °C 93 % 1020,8 hPa 0,0 mm 1,9 km/h (1 Bft) S-SW 201 ° 0 min 0,000 mm 0,0 UV-I 0 W/m² 0,7 °C 3,2 km/h (1 Bft)
03.11.2016 06:37 1,7 °C 1,7 °C 93 % 1020,8 hPa 0,0 mm 2,7 km/h (1 Bft) S-SW 199 ° 0 min 0,000 mm 0,0 UV-I 0 W/m² 0,7 °C 3,2 km/h (1 Bft)
03.11.2016 06:38 1,7 °C 1,7 °C 93 % 1020,9 hPa 0,0 mm 3,1 km/h (1 Bft) S-SW 193 ° 0 min 0,000 mm 0,0 UV-I 0 W/m² 0,7 °C 4,8 km/h (1 Bft)
03.11.2016 06:39 1,7 °C 1,7 °C 93 % 1020,9 hPa 0,0 mm 3,0 km/h (1 Bft) S-SW 193 ° 0 min 0,000 mm 0,0 UV-I 0 W/m² 0,7 °C 4,8 km/h (1 Bft)
03.11.2016 06:40 1,7 °C 1,7 °C 93 % 1020,9 hPa 0,0 mm 3,4 km/h (1 Bft) S 189 ° 0 min 0,000 mm 0,0 UV-I 0 W/m² 0,7 °C 4,8 km/h (1 Bft)
03.11.2016 06:41 1,7 °C 1,7 °C 93 % 1020,9 hPa 0,0 mm 3,0 km/h (1 Bft) S 189 ° 0 min 0,000 mm 0,0 UV-I 0 W/m² 0,7 °C 4,8 km/h (1 Bft)
03.11.2016 06:42 1,7 °C 1,7 °C 93 % 1021,0 hPa 0,0 mm 2,8 km/h (1 Bft) S 190 ° 0 min 0,000 mm 0,0 UV-I 0 W/m² 0,7 °C 4,8 km/h (1 Bft)
03.11.2016 06:43 1,7 °C 1,7 °C 93 % 1021,0 hPa 0,0 mm 1,3 km/h (1 Bft) S 190 ° 0 min 0,000 mm 0,0 UV-I 0 W/m² 0,7 °C 1,6 km/h (1 Bft)
03.11.2016 06:44 1,7 °C 1,7 °C 93 % 1021,0 hPa 0,0 mm 0,2 km/h (0 Bft) S 190 ° 0 min 0,000 mm 0,0 UV-I 0 W/m² 0,7 °C 1,6 km/h (1 Bft)
03.11.2016 06:45 1,7 °C 1,7 °C 93 % 1021,0 hPa 0,0 mm 1,2 km/h (1 Bft) S 189 ° 0 min 0,000 mm 0,0 UV-I 0 W/m² 0,7 °C 3,2 km/h (1 Bft)
03.11.2016 06:46 1,7 °C 1,7 °C 93 % 1021,0 hPa 0,0 mm 0,5 km/h (0 Bft) S 189 ° 0 min 0,000 mm 0,0 UV-I 0 W/m² 0,7 °C 1,6 km/h (1 Bft)
03.11.2016 06:47 1,6 °C 1,7 °C 93 % 1021,0 hPa 0,0 mm 0,0 km/h (0 Bft) S 189 ° 0 min 0,000 mm 0,0 UV-I 0 W/m² 0,6 °C 0,0 km/h (0 Bft)
03.11.2016 06:48 1,6 °C 1,6 °C 93 % 1021,0 hPa 0,0 mm 0,0 km/h (0 Bft) S 189 ° 0 min 0,000 mm 0,0 UV-I 0 W/m² 0,6 °C 0,0 km/h (0 Bft)
03.11.2016 06:49 1,6 °C 1,6 °C 93 % 1021,0 hPa 0,0 mm 0,0 km/h (0 Bft) S 189 ° 0 min 0,000 mm 0,0 UV-I 0 W/m² 0,6 °C 0,0 km/h (0 Bft)
03.11.2016 06:50 1,6 °C 1,6 °C 93 % 1021,1 hPa 0,0 mm 0,0 km/h (0 Bft) S 189 ° 0 min 0,000 mm 0,0 UV-I 0 W/m² 0,6 °C 0,0 km/h (0 Bft)
03.11.2016 06:51 1,6 °C 1,6 °C 93 % 1021,1 hPa 0,0 mm 0,0 km/h (0 Bft) S 189 ° 0 min 0,000 mm 0,0 UV-I 0 W/m² 0,6 °C 0,0 km/h (0 Bft)
03.11.2016 06:52 1,6 °C 1,6 °C 93 % 1021,1 hPa 0,0 mm 0,9 km/h (0 Bft) S 189 ° 0 min 0,000 mm 0,0 UV-I 0 W/m² 0,6 °C 3,2 km/h (1 Bft)
03.11.2016 06:53 1,6 °C 1,6 °C 93 % 1021,1 hPa 0,0 mm 2,2 km/h (1 Bft) S 189 ° 0 min 0,000 mm 0,0 UV-I 0 W/m² 0,6 °C 3,2 km/h (1 Bft)
03.11.2016 06:54 1,5 °C 1,6 °C 93 % 1021,1 hPa 0,0 mm 2,9 km/h (1 Bft) S 172 ° 0 min 0,000 mm 0,0 UV-I 0 W/m² 0,5 °C 4,8 km/h (1 Bft)
03.11.2016 06:55 1,5 °C 1,6 °C 93 % 1021,2 hPa 0,0 mm 2,1 km/h (1 Bft) S 172 ° 0 min 0,000 mm 0,0 UV-I 0 W/m² 0,5 °C 3,2 km/h (1 Bft)
03.11.2016 06:56 1,5 °C 1,5 °C 93 % 1021,2 hPa 0,0 mm 1,9 km/h (1 Bft) S 172 ° 0 min 0,000 mm 0,0 UV-I 0 W/m² 0,5 °C 3,2 km/h (1 Bft)
03.11.2016 06:57 1,5 °C 1,5 °C 93 % 1021,2 hPa 0,0 mm 1,8 km/h (1 Bft) S 172 ° 0 min 0,000 mm 0,0 UV-I 0 W/m² 0,5 °C 3,2 km/h (1 Bft)
03.11.2016 06:58 1,5 °C 1,5 °C 93 % 1021,2 hPa 0,0 mm 0,6 km/h (0 Bft) S 172 ° 0 min 0,000 mm 0,0 UV-I 0 W/m² 0,5 °C 1,6 km/h (1 Bft)
03.11.2016 06:59 1,4 °C 1,5 °C 93 % 1021,2 hPa 0,0 mm 0,0 km/h (0 Bft) S 172 ° 0 min 0,000 mm 0,0 UV-I 0 W/m² 0,4 °C 0,0 km/h (0 Bft)
03.11.2016 07:00 1,4 °C 1,5 °C 93 % 1021,2 hPa 0,0 mm 0,0 km/h (0 Bft) S 172 ° 0 min 0,000 mm 0,0 UV-I 0 W/m² 0,4 °C 0,0 km/h (0 Bft)
03.11.2016 07:01 1,4 °C 1,5 °C 93 % 1021,2 hPa 0,0 mm 0,0 km/h (0 Bft) S 172 ° 0 min 0,000 mm 0,0 UV-I 0 W/m² 0,4 °C 0,0 km/h (0 Bft)
03.11.2016 07:02 1,4 °C 1,5 °C 93 % 1021,3 hPa 0,0 mm 0,0 km/h (0 Bft) S 172 ° 0 min 0,000 mm 0,0 UV-I 0 W/m² 0,4 °C 0,0 km/h (0 Bft)
03.11.2016 07:03 1,4 °C 1,4 °C 93 % 1021,3 hPa 0,0 mm 0,0 km/h (0 Bft) S 172 ° 0 min 0,000 mm 0,0 UV-I 0 W/m² 0,4 °C 0,0 km/h (0 Bft)
03.11.2016 07:04 1,4 °C 1,4 °C 93 % 1021,4 hPa 0,0 mm 0,0 km/h (0 Bft) S 172 ° 0 min 0,000 mm 0,0 UV-I 0 W/m² 0,4 °C 0,0 km/h (0 Bft)
03.11.2016 07:05 1,4 °C 1,4 °C 93 % 1021,3 hPa 0,0 mm 0,0 km/h (0 Bft) S 172 ° 0 min 0,000 mm 0,0 UV-I 0 W/m² 0,4 °C 0,0 km/h (0 Bft)
03.11.2016 07:06 1,4 °C 1,4 °C 93 % 1021,4 hPa 0,0 mm 0,0 km/h (0 Bft) S 172 ° 0 min 0,000 mm 0,0 UV-I 0 W/m² 0,4 °C 0,0 km/h (0 Bft)
03.11.2016 07:07 1,4 °C 1,4 °C 93 % 1021,4 hPa 0,0 mm 0,0 km/h (0 Bft) S 172 ° 0 min 0,000 mm 0,0 UV-I 5 W/m² 0,4 °C 0,0 km/h (0 Bft)
03.11.2016 07:08 1,4 °C 1,4 °C 93 % 1021,4 hPa 0,0 mm 0,0 km/h (0 Bft) S 172 ° 0 min 0,000 mm 0,0 UV-I 5 W/m² 0,4 °C 0,0 km/h (0 Bft)
03.11.2016 07:09 1,3 °C 1,4 °C 93 % 1021,4 hPa 0,0 mm 0,0 km/h (0 Bft) S 172 ° 0 min 0,000 mm 0,0 UV-I 5 W/m² 0,3 °C 0,0 km/h (0 Bft)
03.11.2016 07:10 1,3 °C 1,3 °C 93 % 1021,4 hPa 0,0 mm 1,2 km/h (1 Bft) S 172 ° 0 min 0,000 mm 0,0 UV-I 5 W/m² 0,3 °C 1,6 km/h (1 Bft)
03.11.2016 07:11 1,3 °C 1,3 °C 93 % 1021,4 hPa 0,0 mm 0,7 km/h (0 Bft) S 172 ° 0 min 0,000 mm 0,0 UV-I 5 W/m² 0,3 °C 1,6 km/h (1 Bft)
03.11.2016 07:12 1,3 °C 1,3 °C 93 % 1021,4 hPa 0,0 mm 0,3 km/h (0 Bft) S 172 ° 0 min 0,000 mm 0,0 UV-I 5 W/m² 0,3 °C 1,6 km/h (1 Bft)
03.11.2016 07:13 1,2 °C 1,3 °C 93 % 1021,4 hPa 0,0 mm 1,1 km/h (1 Bft) S 172 ° 0 min 0,000 mm 0,0 UV-I 5 W/m² 0,2 °C 1,6 km/h (1 Bft)
03.11.2016 07:14 1,2 °C 1,3 °C 92 % 1021,4 hPa 0,0 mm 0,1 km/h (0 Bft) S 172 ° 0 min 0,000 mm 0,0 UV-I 5 W/m² 0,0 °C 1,6 km/h (1 Bft)
03.11.2016 07:15 1,2 °C 1,2 °C 92 % 1021,4 hPa 0,0 mm 0,1 km/h (0 Bft) S 172 ° 0 min 0,000 mm 0,0 UV-I 7 W/m² 0,0 °C 1,6 km/h (1 Bft)
03.11.2016 07:16 1,2 °C 1,2 °C 92 % 1021,5 hPa 0,0 mm 0,0 km/h (0 Bft) S 172 ° 0 min 0,000 mm 0,0 UV-I 7 W/m² 0,0 °C 0,0 km/h (0 Bft)
03.11.2016 07:17 1,1 °C 1,2 °C 92 % 1021,5 hPa 0,0 mm 0,0 km/h (0 Bft) S 172 ° 0 min 0,000 mm 0,0 UV-I 7 W/m² -0,1 °C 0,0 km/h (0 Bft)
03.11.2016 07:18 1,1 °C 1,1 °C 92 % 1021,5 hPa 0,0 mm 0,0 km/h (0 Bft) S 172 ° 0 min 0,000 mm 0,0 UV-I 7 W/m² -0,1 °C 0,0 km/h (0 Bft)
03.11.2016 07:19 1,1 °C 1,1 °C 92 % 1021,5 hPa 0,0 mm 0,0 km/h (0 Bft) S 172 ° 0 min 0,000 mm 0,0 UV-I 7 W/m² -0,1 °C 0,0 km/h (0 Bft)
03.11.2016 07:20 1,1 °C 1,1 °C 92 % 1021,5 hPa 0,0 mm 0,0 km/h (0 Bft) S 172 ° 0 min 0,000 mm 0,0 UV-I 7 W/m² -0,1 °C 0,0 km/h (0 Bft)
03.11.2016 07:21 1,0 °C 1,1 °C 92 % 1021,5 hPa 0,0 mm 0,2 km/h (0 Bft) S 172 ° 0 min 0,000 mm 0,0 UV-I 7 W/m² -0,2 °C 1,6 km/h (1 Bft)
03.11.2016 07:22 0,9 °C 1,0 °C 92 % 1021,5 hPa 0,0 mm 0,9 km/h (0 Bft) S 172 ° 0 min 0,000 mm 0,0 UV-I 9 W/m² -0,2 °C 1,6 km/h (1 Bft)
03.11.2016 07:23 0,9 °C 0,9 °C 92 % 1021,6 hPa 0,0 mm 1,7 km/h (1 Bft) S 172 ° 0 min 0,000 mm 0,0 UV-I 9 W/m² -0,2 °C 3,2 km/h (1 Bft)
03.11.2016 07:24 0,8 °C 0,9 °C 92 % 1021,5 hPa 0,0 mm 1,7 km/h (1 Bft) S 172 ° 0 min 0,000 mm 0,0 UV-I 9 W/m² -0,3 °C 3,2 km/h (1 Bft)
03.11.2016 07:25 0,8 °C 0,8 °C 92 % 1021,6 hPa 0,0 mm 0,9 km/h (0 Bft) S 172 ° 0 min 0,000 mm 0,0 UV-I 9 W/m² -0,3 °C 1,6 km/h (1 Bft)
03.11.2016 07:26 0,8 °C 0,8 °C 92 % 1021,6 hPa 0,0 mm 0,5 km/h (0 Bft) S 172 ° 0 min 0,000 mm 0,0 UV-I 9 W/m² -0,3 °C 1,6 km/h (1 Bft)
03.11.2016 07:27 0,8 °C 0,8 °C 92 % 1021,7 hPa 0,0 mm 0,5 km/h (0 Bft) S 172 ° 0 min 0,000 mm 0,0 UV-I 9 W/m² -0,3 °C 1,6 km/h (1 Bft)
03.11.2016 07:28 0,7 °C 0,8 °C 92 % 1021,7 hPa 0,0 mm 0,0 km/h (0 Bft) S 172 ° 0 min 0,000 mm 0,0 UV-I 9 W/m² -0,4 °C 0,0 km/h (0 Bft)
03.11.2016 07:29 0,7 °C 0,7 °C 92 % 1021,6 hPa 0,0 mm 0,0 km/h (0 Bft) S 172 ° 0 min 0,000 mm 0,0 UV-I 9 W/m² -0,4 °C 0,0 km/h (0 Bft)
03.11.2016 07:30 0,7 °C 0,7 °C 92 % 1021,7 hPa 0,0 mm 0,0 km/h (0 Bft) S 172 ° 0 min 0,000 mm 0,0 UV-I 9 W/m² -0,4 °C 0,0 km/h (0 Bft)
03.11.2016 07:31 0,7 °C 0,7 °C 92 % 1021,7 hPa 0,0 mm 0,0 km/h (0 Bft) S 172 ° 0 min 0,000 mm 0,0 UV-I 11 W/m² -0,4 °C 0,0 km/h (0 Bft)
03.11.2016 07:32 0,7 °C 0,7 °C 92 % 1021,7 hPa 0,0 mm 0,0 km/h (0 Bft) S 172 ° 0 min 0,000 mm 0,0 UV-I 11 W/m² -0,4 °C 0,0 km/h (0 Bft)
03.11.2016 07:33 0,7 °C 0,7 °C 92 % 1021,7 hPa 0,0 mm 0,0 km/h (0 Bft) S 172 ° 0 min 0,000 mm 0,0 UV-I 11 W/m² -0,4 °C 0,0 km/h (0 Bft)
03.11.2016 07:34 0,7 °C 0,7 °C 92 % 1021,7 hPa 0,0 mm 0,1 km/h (0 Bft) S 172 ° 0 min 0,000 mm 0,0 UV-I 11 W/m² -0,4 °C 1,6 km/h (1 Bft)
03.11.2016 07:35 0,6 °C 0,7 °C 93 % 1021,7 hPa 0,0 mm 0,0 km/h (0 Bft) S 172 ° 0 min 0,000 mm 0,0 UV-I 11 W/m² -0,4 °C 0,0 km/h (0 Bft)
03.11.2016 07:36 0,6 °C 0,7 °C 93 % 1021,7 hPa 0,0 mm 0,0 km/h (0 Bft) S 172 ° 0 min 0,000 mm 0,0 UV-I 11 W/m² -0,4 °C 0,0 km/h (0 Bft)
03.11.2016 07:37 0,6 °C 0,7 °C 93 % 1021,7 hPa 0,0 mm 0,0 km/h (0 Bft) S 172 ° 0 min 0,000 mm 0,0 UV-I 11 W/m² -0,4 °C 0,0 km/h (0 Bft)
03.11.2016 07:38 0,7 °C 0,7 °C 93 % 1021,7 hPa 0,0 mm 0,0 km/h (0 Bft) S 172 ° 0 min 0,000 mm 0,0 UV-I 11 W/m² -0,3 °C 0,0 km/h (0 Bft)
03.11.2016 07:39 0,7 °C 0,7 °C 93 % 1021,7 hPa 0,0 mm 0,0 km/h (0 Bft) S 172 ° 0 min 0,000 mm 0,0 UV-I 12 W/m² -0,3 °C 0,0 km/h (0 Bft)
03.11.2016 07:40 0,7 °C 0,7 °C 93 % 1021,7 hPa 0,0 mm 0,0 km/h (0 Bft) S 172 ° 0 min 0,000 mm 0,0 UV-I 12 W/m² -0,3 °C 0,0 km/h (0 Bft)
03.11.2016 07:41 0,7 °C 0,7 °C 93 % 1021,7 hPa 0,0 mm 0,0 km/h (0 Bft) S 172 ° 0 min 0,000 mm 0,0 UV-I 12 W/m² -0,3 °C 0,0 km/h (0 Bft)
03.11.2016 07:42 0,7 °C 0,7 °C 93 % 1021,7 hPa 0,0 mm 0,0 km/h (0 Bft) S 172 ° 0 min 0,000 mm 0,0 UV-I 12 W/m² -0,3 °C 0,0 km/h (0 Bft)
03.11.2016 07:43 0,7 °C 0,7 °C 93 % 1021,7 hPa 0,0 mm 0,0 km/h (0 Bft) S 172 ° 0 min 0,000 mm 0,0 UV-I 12 W/m² -0,3 °C 0,0 km/h (0 Bft)
03.11.2016 07:44 0,6 °C 0,7 °C 93 % 1021,7 hPa 0,0 mm 0,0 km/h (0 Bft) S 172 ° 0 min 0,000 mm 0,0 UV-I 12 W/m² -0,4 °C 0,0 km/h (0 Bft)
03.11.2016 07:45 0,7 °C 0,7 °C 93 % 1021,8 hPa 0,0 mm 0,0 km/h (0 Bft) S 172 ° 0 min 0,000 mm 0,0 UV-I 12 W/m² -0,3 °C 0,0 km/h (0 Bft)
03.11.2016 07:46 0,6 °C 0,7 °C 93 % 1021,8 hPa 0,0 mm 0,0 km/h (0 Bft) S 172 ° 0 min 0,000 mm 0,0 UV-I 12 W/m² -0,4 °C 0,0 km/h (0 Bft)
03.11.2016 07:47 0,6 °C 0,6 °C 93 % 1021,8 hPa 0,0 mm 0,0 km/h (0 Bft) S 172 ° 0 min 0,000 mm 0,0 UV-I 14 W/m² -0,4 °C 0,0 km/h (0 Bft)
03.11.2016 07:48 0,6 °C 0,6 °C 93 % 1021,8 hPa 0,0 mm 0,0 km/h (0 Bft) S 172 ° 0 min 0,000 mm 0,0 UV-I 14 W/m² -0,4 °C 0,0 km/h (0 Bft)
03.11.2016 07:49 0,6 °C 0,6 °C 93 % 1021,9 hPa 0,0 mm 0,0 km/h (0 Bft) S 172 ° 0 min 0,000 mm 0,0 UV-I 16 W/m² -0,4 °C 0,0 km/h (0 Bft)
03.11.2016 07:50 0,6 °C 0,7 °C 93 % 1021,9 hPa 0,0 mm 0,0 km/h (0 Bft) S 172 ° 0 min 0,000 mm 0,0 UV-I 19 W/m² -0,4 °C 0,0 km/h (0 Bft)
03.11.2016 07:51 0,6 °C 0,6 °C 93 % 1021,9 hPa 0,0 mm 0,0 km/h (0 Bft) S 172 ° 0 min 0,000 mm 0,0 UV-I 21 W/m² -0,4 °C 0,0 km/h (0 Bft)
03.11.2016 07:52 0,6 °C 0,6 °C 93 % 1021,9 hPa 0,0 mm 0,0 km/h (0 Bft) S 172 ° 0 min 0,000 mm 0,0 UV-I 21 W/m² -0,4 °C 0,0 km/h (0 Bft)
03.11.2016 07:53 0,6 °C 0,6 °C 93 % 1021,9 hPa 0,0 mm 0,0 km/h (0 Bft) S 172 ° 0 min 0,000 mm 0,0 UV-I 23 W/m² -0,4 °C 0,0 km/h (0 Bft)
03.11.2016 07:54 0,6 °C 0,6 °C 93 % 1021,9 hPa 0,0 mm 0,0 km/h (0 Bft) S 172 ° 0 min 0,000 mm 0,0 UV-I 21 W/m² -0,4 °C 0,0 km/h (0 Bft)
03.11.2016 07:55 0,6 °C 0,6 °C 93 % 1021,9 hPa 0,0 mm 0,0 km/h (0 Bft) S 172 ° 0 min 0,000 mm 0,0 UV-I 21 W/m² -0,4 °C 0,0 km/h (0 Bft)
03.11.2016 07:56 0,6 °C 0,6 °C 93 % 1021,9 hPa 0,0 mm 0,0 km/h (0 Bft) S 172 ° 0 min 0,000 mm 0,0 UV-I 21 W/m² -0,4 °C 0,0 km/h (0 Bft)
03.11.2016 07:57 0,6 °C 0,6 °C 93 % 1021,9 hPa 0,0 mm 0,0 km/h (0 Bft) S 172 ° 0 min 0,000 mm 0,0 UV-I 21 W/m² -0,4 °C 0,0 km/h (0 Bft)
03.11.2016 07:58 0,6 °C 0,6 °C 93 % 1021,9 hPa 0,0 mm 0,0 km/h (0 Bft) S 172 ° 0 min 0,000 mm 0,0 UV-I 21 W/m² -0,4 °C 0,0 km/h (0 Bft)
03.11.2016 07:59 0,6 °C 0,6 °C 93 % 1022,0 hPa 0,0 mm 0,0 km/h (0 Bft) S 172 ° 0 min 0,000 mm 0,0 UV-I 19 W/m² -0,4 °C 0,0 km/h (0 Bft)
03.11.2016 08:00 0,7 °C 0,7 °C 94 % 1022,0 hPa 0,0 mm 1,1 km/h (1 Bft) SW 219 ° 0 min 0,000 mm 0,0 UV-I 19 W/m² -0,2 °C 3,2 km/h (1 Bft)
03.11.2016 08:01 0,6 °C 0,7 °C 94 % 1022,0 hPa 0,0 mm 0,2 km/h (0 Bft) SW 219 ° 0 min 0,000 mm 0,0 UV-I 19 W/m² -0,3 °C 1,6 km/h (1 Bft)
03.11.2016 08:02 0,6 °C 0,6 °C 94 % 1022,0 hPa 0,0 mm 0,0 km/h (0 Bft) SW 219 ° 0 min 0,000 mm 0,0 UV-I 19 W/m² -0,3 °C 0,0 km/h (0 Bft)
03.11.2016 08:03 0,6 °C 0,6 °C 94 % 1022,0 hPa 0,0 mm 1,3 km/h (1 Bft) SW 219 ° 0 min 0,000 mm 0,0 UV-I 21 W/m² -0,3 °C 3,2 km/h (1 Bft)
03.11.2016 08:04 0,6 °C 0,6 °C 94 % 1022,0 hPa 0,0 mm 2,4 km/h (1 Bft) SW 219 ° 0 min 0,000 mm 0,0 UV-I 21 W/m² -0,3 °C 3,2 km/h (1 Bft)
03.11.2016 08:05 0,6 °C 0,6 °C 94 % 1022,1 hPa 0,0 mm 2,8 km/h (1 Bft) SW 219 ° 0 min 0,000 mm 0,0 UV-I 21 W/m² -0,3 °C 3,2 km/h (1 Bft)
03.11.2016 08:06 0,6 °C 0,6 °C 93 % 1022,1 hPa 0,0 mm 2,7 km/h (1 Bft) SW 218 ° 0 min 0,000 mm 0,0 UV-I 23 W/m² -0,4 °C 3,2 km/h (1 Bft)
03.11.2016 08:07 0,6 °C 0,6 °C 94 % 1022,1 hPa 0,0 mm 3,0 km/h (1 Bft) SW 218 ° 0 min 0,000 mm 0,0 UV-I 23 W/m² -0,3 °C 4,8 km/h (1 Bft)
03.11.2016 08:08 0,6 °C 0,6 °C 94 % 1022,1 hPa 0,0 mm 3,6 km/h (1 Bft) SW 218 ° 0 min 0,000 mm 0,0 UV-I 25 W/m² -0,3 °C 4,8 km/h (1 Bft)
03.11.2016 08:09 0,7 °C 0,7 °C 94 % 1022,1 hPa 0,0 mm 2,1 km/h (1 Bft) SW 218 ° 0 min 0,000 mm 0,0 UV-I 26 W/m² -0,2 °C 3,2 km/h (1 Bft)
03.11.2016 08:10 0,7 °C 0,7 °C 94 % 1022,1 hPa 0,0 mm 1,7 km/h (1 Bft) SW 218 ° 0 min 0,000 mm 0,0 UV-I 30 W/m² -0,2 °C 3,2 km/h (1 Bft)
03.11.2016 08:11 0,7 °C 0,7 °C 94 % 1022,1 hPa 0,0 mm 1,7 km/h (1 Bft) SW 218 ° 0 min 0,000 mm 0,0 UV-I 39 W/m² -0,2 °C 3,2 km/h (1 Bft)
03.11.2016 08:12 0,8 °C 0,8 °C 94 % 1022,1 hPa 0,0 mm 1,3 km/h (1 Bft) SW 218 ° 0 min 0,000 mm 0,0 UV-I 44 W/m² -0,1 °C 1,6 km/h (1 Bft)
03.11.2016 08:13 1,0 °C 1,0 °C 94 % 1022,1 hPa 0,0 mm 0,6 km/h (0 Bft) SW 218 ° 0 min 0,000 mm 0,0 UV-I 47 W/m² 0,1 °C 3,2 km/h (1 Bft)
03.11.2016 08:14 1,1 °C 1,1 °C 95 % 1022,1 hPa 0,0 mm 0,5 km/h (0 Bft) SW 218 ° 0 min 0,000 mm 0,0 UV-I 44 W/m² 0,4 °C 1,6 km/h (1 Bft)
03.11.2016 08:15 1,2 °C 1,2 °C 95 % 1022,2 hPa 0,0 mm 0,0 km/h (0 Bft) SW 218 ° 0 min 0,000 mm 0,0 UV-I 40 W/m² 0,5 °C 0,0 km/h (0 Bft)
03.11.2016 08:16 1,2 °C 1,2 °C 95 % 1022,2 hPa 0,0 mm 0,0 km/h (0 Bft) SW 218 ° 0 min 0,000 mm 0,0 UV-I 35 W/m² 0,5 °C 0,0 km/h (0 Bft)
03.11.2016 08:17 1,3 °C 1,3 °C 95 % 1022,2 hPa 0,0 mm 0,4 km/h (0 Bft) SW 218 ° 0 min 0,000 mm 0,0 UV-I 35 W/m² 0,6 °C 1,6 km/h (1 Bft)
03.11.2016 08:18 1,3 °C 1,3 °C 95 % 1022,2 hPa 0,0 mm 0,6 km/h (0 Bft) SW 219 ° 0 min 0,000 mm 0,0 UV-I 35 W/m² 0,6 °C 1,6 km/h (1 Bft)
03.11.2016 08:19 1,2 °C 1,3 °C 95 % 1022,2 hPa 0,0 mm 0,0 km/h (0 Bft) SW 219 ° 0 min 0,000 mm 0,0 UV-I 33 W/m² 0,5 °C 0,0 km/h (0 Bft)
03.11.2016 08:20 1,1 °C 1,2 °C 94 % 1022,3 hPa 0,0 mm 0,0 km/h (0 Bft) SW 219 ° 0 min 0,000 mm 0,0 UV-I 32 W/m² 0,2 °C 0,0 km/h (0 Bft)
03.11.2016 08:21 1,1 °C 1,1 °C 94 % 1022,3 hPa 0,0 mm 0,1 km/h (0 Bft) SW 219 ° 0 min 0,000 mm 0,0 UV-I 28 W/m² 0,2 °C 1,6 km/h (1 Bft)
03.11.2016 08:22 1,1 °C 1,1 °C 94 % 1022,2 hPa 0,0 mm 0,0 km/h (0 Bft) SW 219 ° 0 min 0,000 mm 0,0 UV-I 28 W/m² 0,2 °C 0,0 km/h (0 Bft)
03.11.2016 08:23 1,1 °C 1,1 °C 94 % 1022,2 hPa 0,0 mm 0,0 km/h (0 Bft) SW 219 ° 0 min 0,000 mm 0,0 UV-I 32 W/m² 0,2 °C 0,0 km/h (0 Bft)
03.11.2016 08:24 1,1 °C 1,1 °C 94 % 1022,2 hPa 0,0 mm 0,6 km/h (0 Bft) SW 219 ° 0 min 0,000 mm 0,0 UV-I 37 W/m² 0,2 °C 1,6 km/h (1 Bft)
03.11.2016 08:25 1,1 °C 1,1 °C 94 % 1022,3 hPa 0,0 mm 1,2 km/h (1 Bft) SW 218 ° 0 min 0,000 mm 0,0 UV-I 42 W/m² 0,2 °C 1,6 km/h (1 Bft)
03.11.2016 08:26 1,1 °C 1,1 °C 94 % 1022,3 hPa 0,0 mm 0,0 km/h (0 Bft) SW 218 ° 0 min 0,000 mm 0,0 UV-I 42 W/m² 0,2 °C 0,0 km/h (0 Bft)
03.11.2016 08:27 1,1 °C 1,1 °C 95 % 1022,4 hPa 0,0 mm 0,0 km/h (0 Bft) SW 218 ° 0 min 0,000 mm 0,0 UV-I 42 W/m² 0,4 °C 0,0 km/h (0 Bft)
03.11.2016 08:28 1,1 °C 1,1 °C 94 % 1022,3 hPa 0,0 mm 0,1 km/h (0 Bft) SW 218 ° 0 min 0,000 mm 0,0 UV-I 42 W/m² 0,2 °C 1,6 km/h (1 Bft)
03.11.2016 08:29 1,1 °C 1,1 °C 94 % 1022,4 hPa 0,0 mm 0,0 km/h (0 Bft) SW 219 ° 0 min 0,000 mm 0,0 UV-I 42 W/m² 0,2 °C 0,0 km/h (0 Bft)
03.11.2016 08:30 1,0 °C 1,1 °C 94 % 1022,4 hPa 0,0 mm 0,1 km/h (0 Bft) SW 219 ° 0 min 0,000 mm 0,0 UV-I 44 W/m² 0,1 °C 1,6 km/h (1 Bft)
03.11.2016 08:31 1,1 °C 1,1 °C 94 % 1022,4 hPa 0,0 mm 0,1 km/h (0 Bft) SW 219 ° 0 min 0,000 mm 0,0 UV-I 46 W/m² 0,2 °C 1,6 km/h (1 Bft)
03.11.2016 08:32 1,1 °C 1,1 °C 95 % 1022,4 hPa 0,0 mm 0,0 km/h (0 Bft) SW 218 ° 0 min 0,000 mm 0,0 UV-I 46 W/m² 0,4 °C 0,0 km/h (0 Bft)
03.11.2016 08:33 1,1 °C 1,1 °C 95 % 1022,4 hPa 0,0 mm 0,0 km/h (0 Bft) SW 219 ° 0 min 0,000 mm 0,0 UV-I 47 W/m² 0,4 °C 0,0 km/h (0 Bft)
03.11.2016 08:34 1,1 °C 1,1 °C 95 % 1022,4 hPa 0,0 mm 0,0 km/h (0 Bft) SW 219 ° 0 min 0,000 mm 0,0 UV-I 47 W/m² 0,4 °C 0,0 km/h (0 Bft)
03.11.2016 08:35 1,1 °C 1,1 °C 95 % 1022,4 hPa 0,0 mm 0,0 km/h (0 Bft) SW 219 ° 0 min 0,000 mm 0,0 UV-I 47 W/m² 0,4 °C 0,0 km/h (0 Bft)
03.11.2016 08:36 1,1 °C 1,1 °C 95 % 1022,4 hPa 0,0 mm 0,0 km/h (0 Bft) SW 218 ° 0 min 0,000 mm 0,0 UV-I 46 W/m² 0,4 °C 0,0 km/h (0 Bft)
03.11.2016 08:37 1,1 °C 1,1 °C 95 % 1022,4 hPa 0,0 mm 0,0 km/h (0 Bft) SW 219 ° 0 min 0,000 mm 0,0 UV-I 46 W/m² 0,4 °C 0,0 km/h (0 Bft)
03.11.2016 08:38 1,1 °C 1,1 °C 95 % 1022,4 hPa 0,0 mm 0,0 km/h (0 Bft) SW 218 ° 0 min 0,000 mm 0,0 UV-I 49 W/m² 0,4 °C 0,0 km/h (0 Bft)
03.11.2016 08:39 1,1 °C 1,1 °C 95 % 1022,4 hPa 0,0 mm 0,0 km/h (0 Bft) SW 218 ° 0 min 0,000 mm 0,0 UV-I 53 W/m² 0,4 °C 0,0 km/h (0 Bft)
03.11.2016 08:40 1,1 °C 1,1 °C 95 % 1022,5 hPa 0,0 mm 0,0 km/h (0 Bft) SW 219 ° 0 min 0,000 mm 0,5 UV-I 63 W/m² 0,4 °C 0,0 km/h (0 Bft)
03.11.2016 08:41 1,1 °C 1,2 °C 95 % 1022,5 hPa 0,0 mm 0,0 km/h (0 Bft) SW 218 ° 0 min 0,000 mm 0,5 UV-I 69 W/m² 0,4 °C 0,0 km/h (0 Bft)
03.11.2016 08:42 1,2 °C 1,2 °C 95 % 1022,4 hPa 0,0 mm 0,0 km/h (0 Bft) SW 218 ° 0 min 0,000 mm 0,5 UV-I 72 W/m² 0,5 °C 0,0 km/h (0 Bft)
03.11.2016 08:43 1,2 °C 1,2 °C 95 % 1022,5 hPa 0,0 mm 0,0 km/h (0 Bft) SW 218 ° 0 min 0,000 mm 0,5 UV-I 76 W/m² 0,5 °C 0,0 km/h (0 Bft)
03.11.2016 08:44 1,2 °C 1,2 °C 95 % 1022,4 hPa 0,0 mm 0,0 km/h (0 Bft) SW 218 ° 0 min 0,000 mm 0,5 UV-I 77 W/m² 0,5 °C 0,0 km/h (0 Bft)
03.11.2016 08:45 1,2 °C 1,2 °C 95 % 1022,4 hPa 0,0 mm 0,0 km/h (0 Bft) SW 219 ° 0 min 0,000 mm 0,5 UV-I 79 W/m² 0,5 °C 0,0 km/h (0 Bft)
03.11.2016 08:46 1,2 °C 1,3 °C 95 % 1022,4 hPa 0,0 mm 0,0 km/h (0 Bft) SW 218 ° 0 min 0,000 mm 0,5 UV-I 84 W/m² 0,5 °C 0,0 km/h (0 Bft)
03.11.2016 08:47 1,3 °C 1,3 °C 95 % 1022,4 hPa 0,0 mm 0,1 km/h (0 Bft) SW 218 ° 0 min 0,000 mm 0,5 UV-I 84 W/m² 0,6 °C 1,6 km/h (1 Bft)
03.11.2016 08:48 1,4 °C 1,4 °C 95 % 1022,4 hPa 0,0 mm 1,4 km/h (1 Bft) SW 219 ° 0 min 0,000 mm 0,5 UV-I 84 W/m² 0,7 °C 3,2 km/h (1 Bft)
03.11.2016 08:49 1,4 °C 1,4 °C 95 % 1022,4 hPa 0,0 mm 2,7 km/h (1 Bft) SW 220 ° 0 min 0,000 mm 0,5 UV-I 83 W/m² 0,7 °C 3,2 km/h (1 Bft)
03.11.2016 08:50 1,5 °C 1,5 °C 95 % 1022,4 hPa 0,0 mm 2,5 km/h (1 Bft) SW 220 ° 0 min 0,000 mm 0,5 UV-I 79 W/m² 0,8 °C 3,2 km/h (1 Bft)
03.11.2016 08:51 1,5 °C 1,5 °C 95 % 1022,4 hPa 0,0 mm 2,2 km/h (1 Bft) SW 220 ° 0 min 0,000 mm 0,5 UV-I 76 W/m² 0,8 °C 3,2 km/h (1 Bft)
03.11.2016 08:52 1,5 °C 1,6 °C 95 % 1022,4 hPa 0,0 mm 1,6 km/h (1 Bft) SW 220 ° 0 min 0,000 mm 0,5 UV-I 70 W/m² 0,8 °C 3,2 km/h (1 Bft)
03.11.2016 08:53 1,5 °C 1,5 °C 95 % 1022,4 hPa 0,0 mm 0,0 km/h (0 Bft) SW 220 ° 0 min 0,000 mm 0,5 UV-I 69 W/m² 0,8 °C 0,0 km/h (0 Bft)
03.11.2016 08:54 1,4 °C 1,5 °C 95 % 1022,4 hPa 0,0 mm 0,0 km/h (0 Bft) SW 220 ° 0 min 0,000 mm 0,5 UV-I 67 W/m² 0,7 °C 0,0 km/h (0 Bft)
03.11.2016 08:55 1,4 °C 1,4 °C 95 % 1022,4 hPa 0,0 mm 0,0 km/h (0 Bft) SW 220 ° 0 min 0,000 mm 0,6 UV-I 67 W/m² 0,7 °C 0,0 km/h (0 Bft)
03.11.2016 08:56 1,4 °C 1,4 °C 95 % 1022,5 hPa 0,0 mm 0,0 km/h (0 Bft) SW 220 ° 0 min 0,000 mm 0,6 UV-I 65 W/m² 0,7 °C 0,0 km/h (0 Bft)
03.11.2016 08:57 1,4 °C 1,4 °C 95 % 1022,5 hPa 0,0 mm 0,0 km/h (0 Bft) SW 220 ° 0 min 0,000 mm 0,6 UV-I 65 W/m² 0,7 °C 0,0 km/h (0 Bft)
03.11.2016 08:58 1,4 °C 1,4 °C 95 % 1022,4 hPa 0,0 mm 0,0 km/h (0 Bft) SW 220 ° 0 min 0,000 mm 0,6 UV-I 65 W/m² 0,7 °C 0,0 km/h (0 Bft)
03.11.2016 08:59 1,5 °C 1,5 °C 95 % 1022,4 hPa 0,0 mm 0,0 km/h (0 Bft) SW 220 ° 0 min 0,000 mm 0,6 UV-I 63 W/m² 0,8 °C 0,0 km/h (0 Bft)
03.11.2016 09:00 1,6 °C 1,6 °C 95 % 1022,4 hPa 0,0 mm 0,0 km/h (0 Bft) SW 220 ° 0 min 0,000 mm 0,6 UV-I 62 W/m² 0,9 °C 0,0 km/h (0 Bft)
03.11.2016 09:01 1,6 °C 1,6 °C 95 % 1022,5 hPa 0,0 mm 0,0 km/h (0 Bft) SW 220 ° 0 min 0,025 mm 0,6 UV-I 63 W/m² 0,9 °C 0,0 km/h (0 Bft)
03.11.2016 09:02 1,6 °C 1,6 °C 95 % 1022,5 hPa 0,0 mm 0,0 km/h (0 Bft) SW 220 ° 0 min 0,000 mm 0,6 UV-I 65 W/m² 0,9 °C 0,0 km/h (0 Bft)
03.11.2016 09:03 1,7 °C 1,7 °C 95 % 1022,5 hPa 0,0 mm 0,0 km/h (0 Bft) SW 220 ° 0 min 0,000 mm 0,6 UV-I 67 W/m² 1,0 °C 0,0 km/h (0 Bft)
03.11.2016 09:04 1,7 °C 1,7 °C 95 % 1022,5 hPa 0,0 mm 0,0 km/h (0 Bft) SW 220 ° 0 min 0,000 mm 0,6 UV-I 62 W/m² 1,0 °C 0,0 km/h (0 Bft)
03.11.2016 09:05 1,7 °C 1,7 °C 95 % 1022,6 hPa 0,0 mm 0,1 km/h (0 Bft) SW 220 ° 0 min 0,000 mm 0,6 UV-I 56 W/m² 1,0 °C 1,6 km/h (1 Bft)
03.11.2016 09:06 1,7 °C 1,7 °C 95 % 1022,5 hPa 0,0 mm 0,1 km/h (0 Bft) SW 220 ° 0 min 0,000 mm 0,0 UV-I 53 W/m² 1,0 °C 1,6 km/h (1 Bft)
03.11.2016 09:07 1,7 °C 1,7 °C 95 % 1022,6 hPa 0,0 mm 0,0 km/h (0 Bft) SW 220 ° 0 min 0,000 mm 0,0 UV-I 47 W/m² 1,0 °C 0,0 km/h (0 Bft)
03.11.2016 09:08 1,6 °C 1,7 °C 95 % 1022,5 hPa 0,0 mm 0,0 km/h (0 Bft) SW 220 ° 0 min 0,000 mm 0,0 UV-I 44 W/m² 0,9 °C 0,0 km/h (0 Bft)
03.11.2016 09:09 1,6 °C 1,7 °C 95 % 1022,5 hPa 0,0 mm 0,0 km/h (0 Bft) SW 220 ° 0 min 0,000 mm 0,0 UV-I 42 W/m² 0,9 °C 0,0 km/h (0 Bft)
03.11.2016 09:10 1,6 °C 1,6 °C 95 % 1022,5 hPa 0,0 mm 0,0 km/h (0 Bft) SW 220 ° 0 min 0,000 mm 0,0 UV-I 42 W/m² 0,9 °C 0,0 km/h (0 Bft)
03.11.2016 09:11 1,6 °C 1,6 °C 95 % 1022,5 hPa 0,0 mm 0,0 km/h (0 Bft) SW 220 ° 0 min 0,000 mm 0,0 UV-I 42 W/m² 0,9 °C 0,0 km/h (0 Bft)
03.11.2016 09:12 1,5 °C 1,6 °C 95 % 1022,5 hPa 0,0 mm 0,0 km/h (0 Bft) SW 220 ° 0 min 0,000 mm 0,0 UV-I 44 W/m² 0,8 °C 0,0 km/h (0 Bft)
03.11.2016 09:13 1,5 °C 1,5 °C 95 % 1022,5 hPa 0,0 mm 0,0 km/h (0 Bft) SW 220 ° 0 min 0,000 mm 0,0 UV-I 42 W/m² 0,8 °C 0,0 km/h (0 Bft)
03.11.2016 09:14 1,6 °C 1,6 °C 95 % 1022,5 hPa 0,0 mm 0,0 km/h (0 Bft) SW 220 ° 0 min 0,000 mm 0,0 UV-I 44 W/m² 0,9 °C 0,0 km/h (0 Bft)
03.11.2016 09:15 1,6 °C 1,6 °C 95 % 1022,5 hPa 0,0 mm 0,0 km/h (0 Bft) SW 220 ° 0 min 0,000 mm 0,0 UV-I 42 W/m² 0,9 °C 0,0 km/h (0 Bft)
03.11.2016 09:16 1,6 °C 1,6 °C 95 % 1022,5 hPa 0,0 mm 0,0 km/h (0 Bft) SW 220 ° 0 min 0,000 mm 0,0 UV-I 42 W/m² 0,9 °C 0,0 km/h (0 Bft)
03.11.2016 09:17 1,6 °C 1,6 °C 95 % 1022,6 hPa 0,0 mm 0,0 km/h (0 Bft) SW 220 ° 0 min 0,000 mm 0,0 UV-I 42 W/m² 0,9 °C 0,0 km/h (0 Bft)
03.11.2016 09:18 1,5 °C 1,6 °C 95 % 1022,6 hPa 0,0 mm 0,0 km/h (0 Bft) SW 220 ° 0 min 0,000 mm 0,0 UV-I 44 W/m² 0,8 °C 0,0 km/h (0 Bft)
03.11.2016 09:19 1,5 °C 1,6 °C 95 % 1022,6 hPa 0,0 mm 0,0 km/h (0 Bft) SW 220 ° 0 min 0,000 mm 0,0 UV-I 44 W/m² 0,8 °C 0,0 km/h (0 Bft)
03.11.2016 09:20 1,4 °C 1,5 °C 95 % 1022,6 hPa 0,0 mm 0,0 km/h (0 Bft) SW 220 ° 0 min 0,000 mm 0,0 UV-I 44 W/m² 0,7 °C 0,0 km/h (0 Bft)
03.11.2016 09:21 1,4 °C 1,5 °C 95 % 1022,6 hPa 0,0 mm 0,0 km/h (0 Bft) SW 220 ° 0 min 0,000 mm 0,0 UV-I 47 W/m² 0,7 °C 0,0 km/h (0 Bft)
03.11.2016 09:22 1,5 °C 1,5 °C 95 % 1022,6 hPa 0,0 mm 0,0 km/h (0 Bft) SW 220 ° 0 min 0,000 mm 0,0 UV-I 53 W/m² 0,8 °C 0,0 km/h (0 Bft)
03.11.2016 09:23 1,5 °C 1,5 °C 95 % 1022,6 hPa 0,0 mm 0,1 km/h (0 Bft) SW 220 ° 0 min 0,000 mm 0,8 UV-I 65 W/m² 0,8 °C 1,6 km/h (1 Bft)
03.11.2016 09:24 1,5 °C 1,5 °C 95 % 1022,6 hPa 0,0 mm 0,7 km/h (0 Bft) SW 220 ° 0 min 0,000 mm 0,8 UV-I 72 W/m² 0,8 °C 1,6 km/h (1 Bft)
03.11.2016 09:25 1,6 °C 1,6 °C 95 % 1022,6 hPa 0,0 mm 0,2 km/h (0 Bft) SW 220 ° 0 min 0,000 mm 0,8 UV-I 79 W/m² 0,9 °C 1,6 km/h (1 Bft)
03.11.2016 09:26 1,6 °C 1,6 °C 95 % 1022,6 hPa 0,0 mm 0,1 km/h (0 Bft) SW 220 ° 0 min 0,000 mm 0,8 UV-I 83 W/m² 0,9 °C 1,6 km/h (1 Bft)
03.11.2016 09:27 1,6 °C 1,6 °C 95 % 1022,6 hPa 0,0 mm 0,0 km/h (0 Bft) SW 220 ° 0 min 0,000 mm 0,8 UV-I 88 W/m² 0,9 °C 0,0 km/h (0 Bft)
03.11.2016 09:28 1,7 °C 1,7 °C 95 % 1022,7 hPa 0,0 mm 0,0 km/h (0 Bft) SW 220 ° 0 min 0,000 mm 0,8 UV-I 83 W/m² 1,0 °C 0,0 km/h (0 Bft)
03.11.2016 09:29 1,7 °C 1,7 °C 95 % 1022,7 hPa 0,0 mm 0,0 km/h (0 Bft) SW 220 ° 0 min 0,000 mm 0,8 UV-I 77 W/m² 1,0 °C 0,0 km/h (0 Bft)
03.11.2016 09:30 1,8 °C 1,8 °C 95 % 1022,7 hPa 0,0 mm 0,0 km/h (0 Bft) SW 220 ° 0 min 0,000 mm 0,8 UV-I 70 W/m² 1,1 °C 0,0 km/h (0 Bft)
03.11.2016 09:31 1,8 °C 1,8 °C 95 % 1022,7 hPa 0,0 mm 0,0 km/h (0 Bft) SW 220 ° 0 min 0,000 mm 0,8 UV-I 63 W/m² 1,1 °C 0,0 km/h (0 Bft)
03.11.2016 09:32 1,8 °C 1,8 °C 96 % 1022,7 hPa 0,0 mm 0,0 km/h (0 Bft) SW 220 ° 0 min 0,000 mm 0,8 UV-I 58 W/m² 1,2 °C 0,0 km/h (0 Bft)
03.11.2016 09:33 1,9 °C 1,9 °C 96 % 1022,7 hPa 0,0 mm 0,0 km/h (0 Bft) SW 220 ° 0 min 0,000 mm 0,0 UV-I 54 W/m² 1,3 °C 0,0 km/h (0 Bft)
03.11.2016 09:34 2,0 °C 2,0 °C 96 % 1022,6 hPa 0,0 mm 0,0 km/h (0 Bft) SW 220 ° 0 min 0,000 mm 0,0 UV-I 54 W/m² 1,4 °C 0,0 km/h (0 Bft)
03.11.2016 09:35 2,0 °C 2,0 °C 96 % 1022,7 hPa 0,0 mm 0,0 km/h (0 Bft) SW 220 ° 0 min 0,000 mm 0,9 UV-I 56 W/m² 1,4 °C 0,0 km/h (0 Bft)
03.11.2016 09:36 2,1 °C 2,1 °C 95 % 1022,7 hPa 0,0 mm 0,0 km/h (0 Bft) SW 220 ° 0 min 0,000 mm 0,9 UV-I 58 W/m² 1,4 °C 0,0 km/h (0 Bft)
03.11.2016 09:37 2,1 °C 2,1 °C 95 % 1022,7 hPa 0,0 mm 0,1 km/h (0 Bft) SW 220 ° 0 min 0,000 mm 0,9 UV-I 62 W/m² 1,4 °C 1,6 km/h (1 Bft)
03.11.2016 09:38 2,1 °C 2,1 °C 95 % 1022,7 hPa 0,0 mm 0,8 km/h (0 Bft) SW 220 ° 0 min 0,000 mm 0,9 UV-I 63 W/m² 1,4 °C 1,6 km/h (1 Bft)
03.11.2016 09:39 2,2 °C 2,2 °C 95 % 1022,7 hPa 0,0 mm 0,9 km/h (0 Bft) SW 220 ° 0 min 0,000 mm 0,9 UV-I 63 W/m² 1,5 °C 1,6 km/h (1 Bft)
03.11.2016 09:40 2,1 °C 2,2 °C 95 % 1022,7 hPa 0,0 mm 0,6 km/h (0 Bft) SW 220 ° 0 min 0,000 mm 0,9 UV-I 62 W/m² 1,4 °C 1,6 km/h (1 Bft)
03.11.2016 09:41 2,2 °C 2,2 °C 95 % 1022,7 hPa 0,0 mm 0,7 km/h (0 Bft) SW 220 ° 0 min 0,000 mm 0,9 UV-I 56 W/m² 1,5 °C 1,6 km/h (1 Bft)
03.11.2016 09:42 2,1 °C 2,2 °C 94 % 1022,7 hPa 0,0 mm 0,3 km/h (0 Bft) SW 220 ° 0 min 0,000 mm 0,9 UV-I 56 W/m² 1,2 °C 1,6 km/h (1 Bft)
03.11.2016 09:43 2,2 °C 2,2 °C 95 % 1022,7 hPa 0,0 mm 0,1 km/h (0 Bft) SW 220 ° 0 min 0,000 mm 0,9 UV-I 56 W/m² 1,5 °C 1,6 km/h (1 Bft)
03.11.2016 09:44 2,2 °C 2,2 °C 94 % 1022,7 hPa 0,0 mm 0,1 km/h (0 Bft) SW 220 ° 0 min 0,000 mm 0,9 UV-I 58 W/m² 1,3 °C 1,6 km/h (1 Bft)
03.11.2016 09:45 2,2 °C 2,2 °C 94 % 1022,7 hPa 0,0 mm 0,0 km/h (0 Bft) SW 220 ° 0 min 0,000 mm 0,9 UV-I 69 W/m² 1,3 °C 0,0 km/h (0 Bft)
03.11.2016 09:46 2,2 °C 2,2 °C 94 % 1022,7 hPa 0,0 mm 0,0 km/h (0 Bft) SW 220 ° 0 min 0,000 mm 0,9 UV-I 81 W/m² 1,3 °C 0,0 km/h (0 Bft)
03.11.2016 09:47 2,2 °C 2,2 °C 94 % 1022,7 hPa 0,0 mm 0,0 km/h (0 Bft) SW 220 ° 0 min 0,000 mm 1,0 UV-I 97 W/m² 1,3 °C 0,0 km/h (0 Bft)
03.11.2016 09:48 2,2 °C 2,2 °C 93 % 1022,8 hPa 0,0 mm 0,0 km/h (0 Bft) SW 220 ° 0 min 0,000 mm 1,0 UV-I 114 W/m² 1,2 °C 0,0 km/h (0 Bft)
03.11.2016 09:49 2,2 °C 2,2 °C 93 % 1022,7 hPa 0,0 mm 0,0 km/h (0 Bft) SW 220 ° 0 min 0,000 mm 1,0 UV-I 120 W/m² 1,2 °C 0,0 km/h (0 Bft)
03.11.2016 09:50 2,3 °C 2,3 °C 92 % 1022,7 hPa 0,0 mm 0,0 km/h (0 Bft) SW 220 ° 0 min 0,000 mm 1,0 UV-I 120 W/m² 1,1 °C 0,0 km/h (0 Bft)
03.11.2016 09:51 2,3 °C 2,3 °C 92 % 1022,8 hPa 0,0 mm 0,0 km/h (0 Bft) SW 220 ° 0 min 0,000 mm 0,9 UV-I 118 W/m² 1,1 °C 0,0 km/h (0 Bft)
03.11.2016 09:52 2,3 °C 2,3 °C 92 % 1022,8 hPa 0,0 mm 0,0 km/h (0 Bft) SW 220 ° 0 min 0,000 mm 0,9 UV-I 113 W/m² 1,1 °C 0,0 km/h (0 Bft)
03.11.2016 09:53 2,4 °C 2,4 °C 92 % 1022,8 hPa 0,0 mm 0,0 km/h (0 Bft) SW 220 ° 0 min 0,000 mm 0,9 UV-I 113 W/m² 1,2 °C 0,0 km/h (0 Bft)
03.11.2016 09:54 2,4 °C 2,4 °C 91 % 1022,8 hPa 0,0 mm 0,0 km/h (0 Bft) SW 220 ° 0 min 0,000 mm 0,9 UV-I 118 W/m² 1,1 °C 0,0 km/h (0 Bft)
03.11.2016 09:55 2,5 °C 2,5 °C 91 % 1022,8 hPa 0,0 mm 0,1 km/h (0 Bft) SW 220 ° 0 min 0,000 mm 0,9 UV-I 125 W/m² 1,2 °C 1,6 km/h (1 Bft)
03.11.2016 09:56 2,6 °C 2,6 °C 91 % 1022,8 hPa 0,0 mm 0,7 km/h (0 Bft) SW 220 ° 0 min 0,000 mm 0,9 UV-I 128 W/m² 1,3 °C 1,6 km/h (1 Bft)
03.11.2016 09:57 2,7 °C 2,7 °C 91 % 1022,8 hPa 0,0 mm 0,9 km/h (0 Bft) SW 220 ° 0 min 0,000 mm 0,9 UV-I 128 W/m² 1,4 °C 1,6 km/h (1 Bft)
03.11.2016 09:58 2,7 °C 2,7 °C 92 % 1022,8 hPa 0,0 mm 0,8 km/h (0 Bft) SW 220 ° 0 min 0,000 mm 0,9 UV-I 130 W/m² 1,5 °C 1,6 km/h (1 Bft)
03.11.2016 09:59 2,7 °C 2,7 °C 91 % 1022,8 hPa 0,0 mm 0,1 km/h (0 Bft) SW 220 ° 0 min 0,000 mm 0,9 UV-I 132 W/m² 1,4 °C 1,6 km/h (1 Bft)
03.11.2016 10:00 2,7 °C 2,7 °C 90 % 1022,8 hPa 0,0 mm 0,0 km/h (0 Bft) SW 220 ° 0 min 0,026 mm 0,9 UV-I 132 W/m² 1,2 °C 0,0 km/h (0 Bft)
03.11.2016 10:01 2,8 °C 2,8 °C 90 % 1022,8 hPa 0,0 mm 0,0 km/h (0 Bft) SW 220 ° 0 min 0,000 mm 0,9 UV-I 132 W/m² 1,3 °C 0,0 km/h (0 Bft)
03.11.2016 10:02 2,8 °C 2,8 °C 89 % 1022,8 hPa 0,0 mm 0,0 km/h (0 Bft) SW 220 ° 0 min 0,000 mm 0,9 UV-I 123 W/m² 1,2 °C 0,0 km/h (0 Bft)
03.11.2016 10:03 2,9 °C 2,9 °C 90 % 1022,9 hPa 0,0 mm 0,0 km/h (0 Bft) SW 220 ° 0 min 0,000 mm 0,9 UV-I 116 W/m² 1,4 °C 0,0 km/h (0 Bft)
03.11.2016 10:04 2,9 °C 2,9 °C 90 % 1022,9 hPa 0,0 mm 0,0 km/h (0 Bft) SW 220 ° 0 min 0,000 mm 0,9 UV-I 111 W/m² 1,4 °C 0,0 km/h (0 Bft)
03.11.2016 10:05 3,0 °C 3,0 °C 89 % 1022,9 hPa 0,0 mm 0,0 km/h (0 Bft) SW 220 ° 0 min 0,000 mm 0,9 UV-I 105 W/m² 1,4 °C 0,0 km/h (0 Bft)
03.11.2016 10:06 3,1 °C 3,1 °C 88 % 1022,9 hPa 0,0 mm 0,2 km/h (0 Bft) SW 220 ° 0 min 0,000 mm 0,9 UV-I 104 W/m² 1,3 °C 1,6 km/h (1 Bft)
03.11.2016 10:07 3,1 °C 3,1 °C 88 % 1022,9 hPa 0,0 mm 0,3 km/h (0 Bft) SW 220 ° 0 min 0,000 mm 0,9 UV-I 104 W/m² 1,3 °C 1,6 km/h (1 Bft)
03.11.2016 10:08 3,1 °C 3,1 °C 87 % 1022,9 hPa 0,0 mm 0,1 km/h (0 Bft) SW 220 ° 0 min 0,000 mm 0,9 UV-I 111 W/m² 1,2 °C 1,6 km/h (1 Bft)
03.11.2016 10:09 3,1 °C 3,1 °C 88 % 1022,9 hPa 0,0 mm 0,3 km/h (0 Bft) SW 220 ° 0 min 0,000 mm 1,0 UV-I 114 W/m² 1,3 °C 1,6 km/h (1 Bft)
03.11.2016 10:10 3,1 °C 3,1 °C 87 % 1022,9 hPa 0,0 mm 0,3 km/h (0 Bft) SW 220 ° 0 min 0,000 mm 1,0 UV-I 121 W/m² 1,2 °C 1,6 km/h (1 Bft)
03.11.2016 10:11 3,1 °C 3,1 °C 89 % 1022,9 hPa 0,0 mm 0,0 km/h (0 Bft) SW 220 ° 0 min 0,000 mm 1,0 UV-I 127 W/m² 1,5 °C 0,0 km/h (0 Bft)
03.11.2016 10:12 3,1 °C 3,1 °C 91 % 1022,9 hPa 0,0 mm 0,0 km/h (0 Bft) SW 220 ° 0 min 0,000 mm 1,0 UV-I 132 W/m² 1,8 °C 0,0 km/h (0 Bft)
03.11.2016 10:13 3,1 °C 3,1 °C 91 % 1022,9 hPa 0,0 mm 0,1 km/h (0 Bft) SW 220 ° 0 min 0,000 mm 1,0 UV-I 128 W/m² 1,8 °C 1,6 km/h (1 Bft)
03.11.2016 10:14 3,1 °C 3,1 °C 91 % 1022,9 hPa 0,0 mm 0,0 km/h (0 Bft) SW 220 ° 0 min 0,000 mm 1,0 UV-I 116 W/m² 1,8 °C 0,0 km/h (0 Bft)
03.11.2016 10:15 3,0 °C 3,1 °C 91 % 1022,9 hPa 0,0 mm 0,5 km/h (0 Bft) SW 220 ° 0 min 0,000 mm 1,0 UV-I 114 W/m² 1,7 °C 1,6 km/h (1 Bft)
03.11.2016 10:16 3,0 °C 3,1 °C 91 % 1022,9 hPa 0,0 mm 0,5 km/h (0 Bft) SW 220 ° 0 min 0,000 mm 1,0 UV-I 116 W/m² 1,7 °C 1,6 km/h (1 Bft)
03.11.2016 10:17 3,1 °C 3,1 °C 91 % 1022,9 hPa 0,0 mm 0,8 km/h (0 Bft) SW 220 ° 0 min 0,000 mm 1,0 UV-I 121 W/m² 1,8 °C 1,6 km/h (1 Bft)
03.11.2016 10:18 3,1 °C 3,1 °C 91 % 1022,9 hPa 0,0 mm 0,0 km/h (0 Bft) SW 220 ° 0 min 0,000 mm 1,1 UV-I 127 W/m² 1,8 °C 0,0 km/h (0 Bft)
03.11.2016 10:19 3,0 °C 3,1 °C 91 % 1023,0 hPa 0,0 mm 0,0 km/h (0 Bft) SW 220 ° 0 min 0,000 mm 1,1 UV-I 127 W/m² 1,7 °C 0,0 km/h (0 Bft)
03.11.2016 10:20 3,0 °C 3,1 °C 91 % 1023,0 hPa 0,0 mm 0,0 km/h (0 Bft) SW 220 ° 0 min 0,000 mm 1,1 UV-I 128 W/m² 1,7 °C 0,0 km/h (0 Bft)
03.11.2016 10:21 3,1 °C 3,1 °C 90 % 1023,0 hPa 0,0 mm 0,0 km/h (0 Bft) SW 220 ° 0 min 0,000 mm 1,1 UV-I 134 W/m² 1,6 °C 0,0 km/h (0 Bft)
03.11.2016 10:22 3,1 °C 3,1 °C 90 % 1023,0 hPa 0,0 mm 0,0 km/h (0 Bft) SW 220 ° 0 min 0,000 mm 1,1 UV-I 137 W/m² 1,6 °C 0,0 km/h (0 Bft)
03.11.2016 10:23 3,2 °C 3,2 °C 90 % 1023,0 hPa 0,0 mm 0,0 km/h (0 Bft) SW 220 ° 0 min 0,000 mm 1,1 UV-I 141 W/m² 1,7 °C 0,0 km/h (0 Bft)
03.11.2016 10:24 3,2 °C 3,2 °C 91 % 1023,0 hPa 0,0 mm 0,1 km/h (0 Bft) SW 220 ° 0 min 0,000 mm 1,1 UV-I 144 W/m² 1,9 °C 1,6 km/h (1 Bft)
03.11.2016 10:25 3,3 °C 3,3 °C 92 % 1023,0 hPa 0,0 mm 0,2 km/h (0 Bft) SW 220 ° 0 min 0,000 mm 1,1 UV-I 146 W/m² 2,1 °C 1,6 km/h (1 Bft)
03.11.2016 10:26 3,3 °C 3,3 °C 92 % 1023,0 hPa 0,0 mm 0,0 km/h (0 Bft) SW 220 ° 0 min 0,000 mm 1,1 UV-I 151 W/m² 2,1 °C 0,0 km/h (0 Bft)
03.11.2016 10:27 3,4 °C 3,4 °C 92 % 1023,1 hPa 0,0 mm 1,9 km/h (1 Bft) SW 221 ° 0 min 0,000 mm 1,1 UV-I 151 W/m² 2,2 °C 3,2 km/h (1 Bft)
03.11.2016 10:28 3,4 °C 3,4 °C 90 % 1023,1 hPa 0,0 mm 1,4 km/h (1 Bft) SW 220 ° 0 min 0,000 mm 1,1 UV-I 149 W/m² 1,9 °C 3,2 km/h (1 Bft)
03.11.2016 10:29 3,4 °C 3,4 °C 87 % 1023,1 hPa 0,0 mm 1,2 km/h (1 Bft) SW 220 ° 0 min 0,000 mm 1,1 UV-I 151 W/m² 1,4 °C 1,6 km/h (1 Bft)
03.11.2016 10:30 3,5 °C 3,5 °C 88 % 1023,0 hPa 0,0 mm 0,6 km/h (0 Bft) SW 220 ° 0 min 0,000 mm 1,1 UV-I 153 W/m² 1,7 °C 1,6 km/h (1 Bft)
03.11.2016 10:31 3,6 °C 3,6 °C 86 % 1023,0 hPa 0,0 mm 1,5 km/h (1 Bft) SW 220 ° 0 min 0,000 mm 1,1 UV-I 156 W/m² 1,5 °C 1,6 km/h (1 Bft)
03.11.2016 10:32 3,6 °C 3,6 °C 86 % 1023,0 hPa 0,0 mm 1,4 km/h (1 Bft) SW 220 ° 0 min 0,000 mm 1,1 UV-I 158 W/m² 1,5 °C 3,2 km/h (1 Bft)
03.11.2016 10:33 3,6 °C 3,6 °C 87 % 1023,1 hPa 0,0 mm 0,0 km/h (0 Bft) SW 220 ° 0 min 0,000 mm 1,1 UV-I 155 W/m² 1,6 °C 0,0 km/h (0 Bft)
03.11.2016 10:34 3,7 °C 3,7 °C 87 % 1023,0 hPa 0,0 mm 0,5 km/h (0 Bft) SW 220 ° 0 min 0,000 mm 1,2 UV-I 155 W/m² 1,7 °C 1,6 km/h (1 Bft)
03.11.2016 10:35 3,7 °C 3,7 °C 85 % 1023,1 hPa 0,0 mm 0,0 km/h (0 Bft) SW 220 ° 0 min 0,000 mm 1,2 UV-I 156 W/m² 1,4 °C 0,0 km/h (0 Bft)
03.11.2016 10:36 3,7 °C 3,7 °C 86 % 1023,0 hPa 0,0 mm 0,0 km/h (0 Bft) SW 220 ° 0 min 0,000 mm 1,2 UV-I 156 W/m² 1,6 °C 0,0 km/h (0 Bft)
03.11.2016 10:37 3,7 °C 3,7 °C 84 % 1023,0 hPa 0,0 mm 0,2 km/h (0 Bft) SW 220 ° 0 min 0,000 mm 1,2 UV-I 155 W/m² 1,3 °C 1,6 km/h (1 Bft)
03.11.2016 10:38 3,6 °C 3,7 °C 84 % 1023,0 hPa 0,0 mm 1,2 km/h (1 Bft) SW 220 ° 0 min 0,000 mm 1,2 UV-I 156 W/m² 1,2 °C 3,2 km/h (1 Bft)
03.11.2016 10:39 3,6 °C 3,7 °C 84 % 1023,0 hPa 0,0 mm 0,1 km/h (0 Bft) SW 220 ° 0 min 0,000 mm 1,3 UV-I 193 W/m² 1,2 °C 1,6 km/h (1 Bft)
03.11.2016 10:40 3,6 °C 3,6 °C 84 % 1023,1 hPa 0,0 mm 0,0 km/h (0 Bft) SW 220 ° 0 min 0,000 mm 1,3 UV-I 183 W/m² 1,2 °C 0,0 km/h (0 Bft)
03.11.2016 10:41 3,6 °C 3,6 °C 85 % 1023,0 hPa 0,0 mm 0,0 km/h (0 Bft) SW 220 ° 0 min 0,000 mm 1,2 UV-I 155 W/m² 1,3 °C 0,0 km/h (0 Bft)
03.11.2016 10:42 3,7 °C 3,7 °C 86 % 1023,0 hPa 0,0 mm 0,0 km/h (0 Bft) SW 220 ° 0 min 0,000 mm 1,2 UV-I 149 W/m² 1,6 °C 0,0 km/h (0 Bft)
03.11.2016 10:43 3,7 °C 3,7 °C 86 % 1023,1 hPa 0,0 mm 0,2 km/h (0 Bft) SW 220 ° 0 min 0,000 mm 1,2 UV-I 144 W/m² 1,6 °C 1,6 km/h (1 Bft)
03.11.2016 10:44 3,7 °C 3,7 °C 85 % 1023,0 hPa 0,0 mm 1,3 km/h (1 Bft) SW 220 ° 0 min 0,000 mm 1,2 UV-I 139 W/m² 1,4 °C 3,2 km/h (1 Bft)
03.11.2016 10:45 3,8 °C 3,8 °C 85 % 1023,0 hPa 0,0 mm 1,3 km/h (1 Bft) SW 220 ° 0 min 0,000 mm 1,2 UV-I 141 W/m² 1,5 °C 3,2 km/h (1 Bft)
03.11.2016 10:46 3,8 °C 3,8 °C 84 % 1023,0 hPa 0,0 mm 1,4 km/h (1 Bft) SW 220 ° 0 min 0,000 mm 1,2 UV-I 137 W/m² 1,4 °C 3,2 km/h (1 Bft)
03.11.2016 10:47 3,7 °C 3,8 °C 84 % 1023,0 hPa 0,0 mm 0,2 km/h (0 Bft) SW 221 ° 0 min 0,000 mm 1,2 UV-I 130 W/m² 1,3 °C 1,6 km/h (1 Bft)
03.11.2016 10:48 3,7 °C 3,7 °C 83 % 1023,0 hPa 0,0 mm 0,0 km/h (0 Bft) SW 220 ° 0 min 0,000 mm 1,2 UV-I 120 W/m² 1,1 °C 0,0 km/h (0 Bft)
03.11.2016 10:49 3,7 °C 3,7 °C 84 % 1023,0 hPa 0,0 mm 0,5 km/h (0 Bft) SW 220 ° 0 min 0,000 mm 1,2 UV-I 98 W/m² 1,3 °C 1,6 km/h (1 Bft)
03.11.2016 10:50 3,7 °C 3,7 °C 84 % 1023,0 hPa 0,0 mm 0,1 km/h (0 Bft) SW 220 ° 0 min 0,000 mm 1,2 UV-I 93 W/m² 1,3 °C 1,6 km/h (1 Bft)
03.11.2016 10:51 3,7 °C 3,7 °C 83 % 1023,0 hPa 0,0 mm 0,8 km/h (0 Bft) SW 220 ° 0 min 0,000 mm 1,2 UV-I 86 W/m² 1,1 °C 3,2 km/h (1 Bft)
03.11.2016 10:52 3,7 °C 3,7 °C 84 % 1022,9 hPa 0,0 mm 2,4 km/h (1 Bft) SW 220 ° 0 min 0,000 mm 1,2 UV-I 79 W/m² 1,3 °C 3,2 km/h (1 Bft)
03.11.2016 10:53 3,7 °C 3,7 °C 82 % 1022,9 hPa 0,0 mm 0,3 km/h (0 Bft) SW 220 ° 0 min 0,000 mm 1,2 UV-I 72 W/m² 0,9 °C 1,6 km/h (1 Bft)
03.11.2016 10:54 3,6 °C 3,7 °C 86 % 1023,0 hPa 0,0 mm 0,3 km/h (0 Bft) SW 220 ° 0 min 0,000 mm 1,2 UV-I 63 W/m² 1,5 °C 1,6 km/h (1 Bft)
03.11.2016 10:55 3,6 °C 3,6 °C 86 % 1022,9 hPa 0,0 mm 1,5 km/h (1 Bft) SW 220 ° 0 min 0,000 mm 1,2 UV-I 53 W/m² 1,5 °C 3,2 km/h (1 Bft)
03.11.2016 10:56 3,5 °C 3,6 °C 86 % 1022,9 hPa 0,0 mm 1,3 km/h (1 Bft) SW 220 ° 0 min 0,000 mm 0,0 UV-I 51 W/m² 1,4 °C 1,6 km/h (1 Bft)
03.11.2016 10:57 3,4 °C 3,5 °C 86 % 1022,9 hPa 0,0 mm 1,4 km/h (1 Bft) SW 220 ° 0 min 0,000 mm 0,0 UV-I 51 W/m² 1,3 °C 1,6 km/h (1 Bft)
03.11.2016 10:58 3,4 °C 3,4 °C 86 % 1022,9 hPa 0,0 mm 0,8 km/h (0 Bft) SW 220 ° 0 min 0,000 mm 0,0 UV-I 47 W/m² 1,3 °C 1,6 km/h (1 Bft)
03.11.2016 10:59 3,4 °C 3,4 °C 86 % 1022,9 hPa 0,0 mm 0,0 km/h (0 Bft) SW 220 ° 0 min 0,000 mm 0,0 UV-I 47 W/m² 1,3 °C 0,0 km/h (0 Bft)
03.11.2016 11:00 3,3 °C 3,4 °C 85 % 1022,9 hPa 0,0 mm 0,0 km/h (0 Bft) SW 220 ° 0 min 0,051 mm 0,0 UV-I 46 W/m² 1,0 °C 0,0 km/h (0 Bft)
03.11.2016 11:01 3,3 °C 3,3 °C 84 % 1022,9 hPa 0,0 mm 0,0 km/h (0 Bft) SW 220 ° 0 min 0,000 mm 0,0 UV-I 46 W/m² 0,9 °C 0,0 km/h (0 Bft)
03.11.2016 11:02 3,3 °C 3,3 °C 84 % 1022,9 hPa 0,0 mm 0,1 km/h (0 Bft) SW 220 ° 0 min 0,000 mm 0,0 UV-I 47 W/m² 0,9 °C 1,6 km/h (1 Bft)
03.11.2016 11:03 3,3 °C 3,3 °C 84 % 1022,9 hPa 0,0 mm 0,1 km/h (0 Bft) SW 220 ° 0 min 0,000 mm 0,0 UV-I 47 W/m² 0,9 °C 1,6 km/h (1 Bft)
03.11.2016 11:04 3,3 °C 3,3 °C 84 % 1022,9 hPa 0,0 mm 0,4 km/h (0 Bft) SW 220 ° 0 min 0,000 mm 0,0 UV-I 47 W/m² 0,9 °C 1,6 km/h (1 Bft)
03.11.2016 11:05 3,3 °C 3,3 °C 84 % 1022,9 hPa 0,0 mm 0,2 km/h (0 Bft) SW 220 ° 0 min 0,000 mm 0,0 UV-I 46 W/m² 0,9 °C 1,6 km/h (1 Bft)
03.11.2016 11:06 3,3 °C 3,3 °C 83 % 1022,8 hPa 0,0 mm 0,0 km/h (0 Bft) SW 220 ° 0 min 0,000 mm 0,0 UV-I 47 W/m² 0,7 °C 0,0 km/h (0 Bft)
03.11.2016 11:07 3,4 °C 3,4 °C 82 % 1022,9 hPa 0,0 mm 0,1 km/h (0 Bft) SW 220 ° 0 min 0,000 mm 0,0 UV-I 51 W/m² 0,6 °C 1,6 km/h (1 Bft)
03.11.2016 11:08 3,4 °C 3,4 °C 81 % 1022,9 hPa 0,0 mm 0,1 km/h (0 Bft) SW 220 ° 0 min 0,000 mm 0,0 UV-I 54 W/m² 0,5 °C 1,6 km/h (1 Bft)
03.11.2016 11:09 3,5 °C 3,5 °C 81 % 1022,8 hPa 0,0 mm 0,1 km/h (0 Bft) SW 220 ° 0 min 0,000 mm 1,2 UV-I 56 W/m² 0,6 °C 1,6 km/h (1 Bft)
03.11.2016 11:10 3,5 °C 3,5 °C 81 % 1022,8 hPa 0,0 mm 1,1 km/h (1 Bft) SW 220 ° 0 min 0,000 mm 1,2 UV-I 58 W/m² 0,6 °C 1,6 km/h (1 Bft)
03.11.2016 11:11 3,5 °C 3,5 °C 81 % 1022,8 hPa 0,0 mm 2,1 km/h (1 Bft) S 182 ° 0 min 0,000 mm 1,2 UV-I 65 W/m² 0,6 °C 3,2 km/h (1 Bft)
03.11.2016 11:12 3,6 °C 3,6 °C 80 % 1022,8 hPa 0,0 mm 0,2 km/h (0 Bft) S 182 ° 0 min 0,000 mm 1,2 UV-I 63 W/m² 0,5 °C 1,6 km/h (1 Bft)
03.11.2016 11:13 3,6 °C 3,6 °C 80 % 1022,8 hPa 0,0 mm 0,4 km/h (0 Bft) S 182 ° 0 min 0,000 mm 1,2 UV-I 72 W/m² 0,5 °C 1,6 km/h (1 Bft)
03.11.2016 11:14 3,6 °C 3,6 °C 81 % 1022,8 hPa 0,0 mm 0,6 km/h (0 Bft) S 182 ° 0 min 0,000 mm 1,2 UV-I 70 W/m² 0,7 °C 1,6 km/h (1 Bft)
03.11.2016 11:15 3,6 °C 3,6 °C 81 % 1022,8 hPa 0,0 mm 1,5 km/h (1 Bft) S 182 ° 0 min 0,000 mm 1,2 UV-I 74 W/m² 0,7 °C 3,2 km/h (1 Bft)
03.11.2016 11:16 3,7 °C 3,7 °C 81 % 1022,8 hPa 0,0 mm 2,2 km/h (1 Bft) S 182 ° 0 min 0,000 mm 1,2 UV-I 72 W/m² 0,7 °C 3,2 km/h (1 Bft)
03.11.2016 11:17 3,7 °C 3,7 °C 79 % 1022,8 hPa 0,0 mm 2,9 km/h (1 Bft) S 182 ° 0 min 0,000 mm 1,2 UV-I 74 W/m² 0,4 °C 4,8 km/h (1 Bft)
03.11.2016 11:18 3,7 °C 3,7 °C 79 % 1022,8 hPa 0,0 mm 2,1 km/h (1 Bft) S 182 ° 0 min 0,000 mm 1,2 UV-I 72 W/m² 0,4 °C 3,2 km/h (1 Bft)
03.11.2016 11:19 3,7 °C 3,7 °C 79 % 1022,8 hPa 0,0 mm 3,8 km/h (1 Bft) S 182 ° 0 min 0,000 mm 1,2 UV-I 69 W/m² 0,4 °C 4,8 km/h (1 Bft)
03.11.2016 11:20 3,7 °C 3,7 °C 78 % 1022,8 hPa 0,0 mm 1,5 km/h (1 Bft) S 182 ° 0 min 0,000 mm 1,2 UV-I 79 W/m² 0,2 °C 3,2 km/h (1 Bft)
03.11.2016 11:21 3,8 °C 3,8 °C 78 % 1022,8 hPa 0,0 mm 0,6 km/h (0 Bft) S 182 ° 0 min 0,000 mm 1,2 UV-I 91 W/m² 0,3 °C 1,6 km/h (1 Bft)
03.11.2016 11:22 3,8 °C 3,8 °C 77 % 1022,8 hPa 0,0 mm 0,9 km/h (0 Bft) S 182 ° 0 min 0,000 mm 1,3 UV-I 105 W/m² 0,1 °C 1,6 km/h (1 Bft)
03.11.2016 11:23 3,8 °C 3,8 °C 79 % 1022,8 hPa 0,0 mm 2,1 km/h (1 Bft) S 182 ° 0 min 0,000 mm 1,3 UV-I 111 W/m² 0,5 °C 3,2 km/h (1 Bft)
03.11.2016 11:24 3,8 °C 3,8 °C 80 % 1022,8 hPa 0,0 mm 1,3 km/h (1 Bft) S 182 ° 0 min 0,000 mm 1,2 UV-I 127 W/m² 0,7 °C 3,2 km/h (1 Bft)
03.11.2016 11:25 3,8 °C 3,8 °C 79 % 1022,8 hPa 0,0 mm 1,1 km/h (1 Bft) S 182 ° 0 min 0,000 mm 1,3 UV-I 135 W/m² 0,5 °C 3,2 km/h (1 Bft)
03.11.2016 11:26 3,8 °C 3,8 °C 81 % 1022,7 hPa 0,0 mm 0,2 km/h (0 Bft) S 182 ° 0 min 0,000 mm 1,3 UV-I 142 W/m² 0,8 °C 1,6 km/h (1 Bft)
03.11.2016 11:27 3,8 °C 3,9 °C 79 % 1022,7 hPa 0,0 mm 1,5 km/h (1 Bft) S 182 ° 0 min 0,000 mm 1,3 UV-I 149 W/m² 0,5 °C 3,2 km/h (1 Bft)
03.11.2016 11:28 3,9 °C 3,9 °C 78 % 1022,7 hPa 0,0 mm 1,2 km/h (1 Bft) S 181 ° 0 min 0,000 mm 1,3 UV-I 156 W/m² 0,4 °C 3,2 km/h (1 Bft)
03.11.2016 11:29 3,9 °C 3,9 °C 78 % 1022,7 hPa 0,0 mm 0,9 km/h (0 Bft) S 181 ° 0 min 0,000 mm 1,3 UV-I 163 W/m² 0,4 °C 3,2 km/h (1 Bft)
03.11.2016 11:30 4,0 °C 4,0 °C 77 % 1022,8 hPa 0,0 mm 0,1 km/h (0 Bft) S 181 ° 0 min 0,000 mm 1,3 UV-I 163 W/m² 0,3 °C 1,6 km/h (1 Bft)
03.11.2016 11:31 4,1 °C 4,1 °C 78 % 1022,7 hPa 0,0 mm 3,9 km/h (1 Bft) O-SO 121 ° 0 min 0,000 mm 1,3 UV-I 156 W/m² 0,6 °C 4,8 km/h (1 Bft)
03.11.2016 11:32 4,1 °C 4,1 °C 81 % 1022,7 hPa 0,0 mm 3,5 km/h (1 Bft) O-SO 123 ° 0 min 0,000 mm 1,3 UV-I 148 W/m² 1,1 °C 4,8 km/h (1 Bft)
03.11.2016 11:33 4,1 °C 4,1 °C 76 % 1022,7 hPa 0,0 mm 3,6 km/h (1 Bft) O-SO 108 ° 0 min 0,000 mm 1,3 UV-I 135 W/m² 0,3 °C 4,8 km/h (1 Bft)
03.11.2016 11:34 4,1 °C 4,2 °C 76 % 1022,7 hPa 0,0 mm 1,5 km/h (1 Bft) O-SO 108 ° 0 min 0,000 mm 1,3 UV-I 135 W/m² 0,3 °C 3,2 km/h (1 Bft)
03.11.2016 11:35 4,2 °C 4,2 °C 75 % 1022,7 hPa 0,0 mm 1,7 km/h (1 Bft) O-SO 108 ° 0 min 0,000 mm 1,3 UV-I 114 W/m² 0,2 °C 3,2 km/h (1 Bft)
03.11.2016 11:36 4,2 °C 4,2 °C 75 % 1022,7 hPa 0,0 mm 1,5 km/h (1 Bft) O-SO 108 ° 0 min 0,000 mm 1,3 UV-I 113 W/m² 0,2 °C 3,2 km/h (1 Bft)
03.11.2016 11:37 4,3 °C 4,3 °C 77 % 1022,7 hPa 0,0 mm 3,2 km/h (1 Bft) O 101 ° 0 min 0,000 mm 1,3 UV-I 114 W/m² 0,6 °C 4,8 km/h (1 Bft)
03.11.2016 11:38 4,3 °C 4,3 °C 77 % 1022,7 hPa 0,0 mm 3,9 km/h (1 Bft) O 101 ° 0 min 0,000 mm 1,3 UV-I 118 W/m² 0,6 °C 4,8 km/h (1 Bft)
03.11.2016 11:39 4,3 °C 4,3 °C 76 % 1022,7 hPa 0,0 mm 3,1 km/h (1 Bft) O 101 ° 0 min 0,000 mm 1,3 UV-I 116 W/m² 0,5 °C 3,2 km/h (1 Bft)
03.11.2016 11:40 4,2 °C 4,3 °C 74 % 1022,7 hPa 0,0 mm 2,8 km/h (1 Bft) O 101 ° 0 min 0,000 mm 1,3 UV-I 116 W/m² -0,0 °C 3,2 km/h (1 Bft)
03.11.2016 11:41 4,2 °C 4,3 °C 77 % 1022,6 hPa 0,0 mm 2,7 km/h (1 Bft) O 101 ° 0 min 0,000 mm 1,3 UV-I 116 W/m² 0,5 °C 3,2 km/h (1 Bft)
03.11.2016 11:42 4,2 °C 4,2 °C 77 % 1022,7 hPa 0,0 mm 2,2 km/h (1 Bft) O 101 ° 0 min 0,000 mm 1,3 UV-I 114 W/m² 0,5 °C 3,2 km/h (1 Bft)
03.11.2016 11:43 4,2 °C 4,2 °C 76 % 1022,6 hPa 0,0 mm 2,4 km/h (1 Bft) O 101 ° 0 min 0,000 mm 1,3 UV-I 114 W/m² 0,4 °C 3,2 km/h (1 Bft)
03.11.2016 11:44 4,2 °C 4,2 °C 73 % 1022,6 hPa 0,0 mm 3,7 km/h (1 Bft) O 101 ° 0 min 0,000 mm 1,3 UV-I 114 W/m² -0,2 °C 4,8 km/h (1 Bft)
03.11.2016 11:45 4,1 °C 4,2 °C 73 % 1022,6 hPa 0,0 mm 3,3 km/h (1 Bft) O 101 ° 0 min 0,000 mm 1,3 UV-I 111 W/m² -0,3 °C 4,8 km/h (1 Bft)
03.11.2016 11:46 4,0 °C 4,1 °C 77 % 1022,6 hPa 0,0 mm 2,5 km/h (1 Bft) O 101 ° 0 min 0,000 mm 1,3 UV-I 111 W/m² 0,3 °C 3,2 km/h (1 Bft)
03.11.2016 11:47 4,0 °C 4,0 °C 78 % 1022,6 hPa 0,0 mm 2,0 km/h (1 Bft) O 101 ° 0 min 0,000 mm 1,3 UV-I 114 W/m² 0,5 °C 3,2 km/h (1 Bft)
03.11.2016 11:48 3,9 °C 4,0 °C 81 % 1022,7 hPa 0,0 mm 2,7 km/h (1 Bft) O 101 ° 0 min 0,000 mm 1,3 UV-I 123 W/m² 0,9 °C 4,8 km/h (1 Bft)
03.11.2016 11:49 3,9 °C 3,9 °C 79 % 1022,7 hPa 0,0 mm 4,3 km/h (1 Bft) O 101 ° 0 min 0,000 mm 1,3 UV-I 123 W/m² 0,6 °C 6,4 km/h (2 Bft)
03.11.2016 11:50 3,9 °C 3,9 °C 79 % 1022,7 hPa 0,0 mm 3,3 km/h (1 Bft) O 101 ° 0 min 0,000 mm 1,3 UV-I 120 W/m² 0,6 °C 4,8 km/h (1 Bft)
03.11.2016 11:51 3,9 °C 3,9 °C 77 % 1022,6 hPa 0,0 mm 2,7 km/h (1 Bft) O 101 ° 0 min 0,000 mm 1,3 UV-I 121 W/m² 0,2 °C 3,2 km/h (1 Bft)
03.11.2016 11:52 4,0 °C 4,0 °C 78 % 1022,6 hPa 0,0 mm 1,9 km/h (1 Bft) O 101 ° 0 min 0,000 mm 1,3 UV-I 125 W/m² 0,5 °C 3,2 km/h (1 Bft)
03.11.2016 11:53 3,9 °C 4,0 °C 80 % 1022,6 hPa 0,0 mm 1,4 km/h (1 Bft) O 101 ° 0 min 0,000 mm 1,3 UV-I 128 W/m² 0,8 °C 3,2 km/h (1 Bft)
03.11.2016 11:54 3,9 °C 3,9 °C 81 % 1022,6 hPa 0,0 mm 1,8 km/h (1 Bft) O 101 ° 0 min 0,000 mm 1,3 UV-I 142 W/m² 0,9 °C 3,2 km/h (1 Bft)
03.11.2016 11:55 3,9 °C 3,9 °C 80 % 1022,7 hPa 0,0 mm 1,1 km/h (1 Bft) O 101 ° 0 min 0,000 mm 1,3 UV-I 146 W/m² 0,8 °C 1,6 km/h (1 Bft)
03.11.2016 11:56 3,9 °C 3,9 °C 83 % 1022,6 hPa 0,0 mm 1,0 km/h (0 Bft) O 101 ° 0 min 0,000 mm 1,3 UV-I 151 W/m² 1,3 °C 1,6 km/h (1 Bft)
03.11.2016 11:57 4,1 °C 4,1 °C 77 % 1022,6 hPa 0,0 mm 1,9 km/h (1 Bft) O 100 ° 0 min 0,000 mm 1,3 UV-I 155 W/m² 0,4 °C 3,2 km/h (1 Bft)
03.11.2016 11:58 4,1 °C 4,1 °C 82 % 1022,7 hPa 0,0 mm 2,5 km/h (1 Bft) O 100 ° 0 min 0,000 mm 1,3 UV-I 155 W/m² 1,3 °C 3,2 km/h (1 Bft)
03.11.2016 11:59 4,1 °C 4,1 °C 80 % 1022,6 hPa 0,0 mm 1,7 km/h (1 Bft) O 100 ° 0 min 0,000 mm 1,3 UV-I 148 W/m² 1,0 °C 3,2 km/h (1 Bft)
03.11.2016 12:00 4,1 °C 4,1 °C 82 % 1022,6 hPa 0,0 mm 0,3 km/h (0 Bft) O 100 ° 0 min 0,000 mm 1,3 UV-I 141 W/m² 1,3 °C 1,6 km/h (1 Bft)
03.11.2016 12:01 4,1 °C 4,1 °C 81 % 1022,6 hPa 0,0 mm 0,1 km/h (0 Bft) O 100 ° 0 min 0,050 mm 1,3 UV-I 132 W/m² 1,1 °C 1,6 km/h (1 Bft)
03.11.2016 12:02 4,2 °C 4,2 °C 78 % 1022,6 hPa 0,0 mm 0,2 km/h (0 Bft) O 100 ° 0 min 0,000 mm 1,3 UV-I 128 W/m² 0,7 °C 1,6 km/h (1 Bft)
03.11.2016 12:03 4,3 °C 4,3 °C 76 % 1022,6 hPa 0,0 mm 2,0 km/h (1 Bft) O 100 ° 0 min 0,000 mm 1,3 UV-I 125 W/m² 0,5 °C 3,2 km/h (1 Bft)
03.11.2016 12:04 4,4 °C 4,4 °C 76 % 1022,6 hPa 0,0 mm 2,8 km/h (1 Bft) O 100 ° 0 min 0,000 mm 1,3 UV-I 120 W/m² 0,5 °C 3,2 km/h (1 Bft)
03.11.2016 12:05 4,4 °C 4,4 °C 76 % 1022,5 hPa 0,0 mm 3,0 km/h (1 Bft) S-SO 156 ° 0 min 0,000 mm 1,3 UV-I 118 W/m² 0,5 °C 4,8 km/h (1 Bft)
03.11.2016 12:06 4,4 °C 4,4 °C 75 % 1022,5 hPa 0,0 mm 3,1 km/h (1 Bft) S 190 ° 0 min 0,000 mm 1,3 UV-I 116 W/m² 0,4 °C 4,8 km/h (1 Bft)
03.11.2016 12:07 4,5 °C 4,5 °C 75 % 1022,5 hPa 0,0 mm 2,1 km/h (1 Bft) S 190 ° 0 min 0,000 mm 1,3 UV-I 116 W/m² 0,5 °C 3,2 km/h (1 Bft)
03.11.2016 12:08 4,5 °C 4,6 °C 76 % 1022,5 hPa 0,0 mm 0,3 km/h (0 Bft) S 190 ° 0 min 0,000 mm 1,3 UV-I 113 W/m² 0,6 °C 1,6 km/h (1 Bft)
03.11.2016 12:09 4,6 °C 4,6 °C 77 % 1022,5 hPa 0,0 mm 0,9 km/h (0 Bft) S 190 ° 0 min 0,000 mm 1,3 UV-I 109 W/m² 0,9 °C 1,6 km/h (1 Bft)
03.11.2016 12:10 4,6 °C 4,6 °C 77 % 1022,5 hPa 0,0 mm 2,6 km/h (1 Bft) S 190 ° 0 min 0,000 mm 1,3 UV-I 107 W/m² 0,9 °C 3,2 km/h (1 Bft)
03.11.2016 12:11 4,6 °C 4,6 °C 80 % 1022,5 hPa 0,0 mm 3,2 km/h (1 Bft) W 270 ° 0 min 0,000 mm 1,3 UV-I 95 W/m² 1,5 °C 4,8 km/h (1 Bft)
03.11.2016 12:12 4,6 °C 4,6 °C 79 % 1022,5 hPa 0,0 mm 1,6 km/h (1 Bft) W 270 ° 0 min 0,000 mm 1,3 UV-I 91 W/m² 1,3 °C 3,2 km/h (1 Bft)
03.11.2016 12:13 4,6 °C 4,6 °C 77 % 1022,5 hPa 0,0 mm 2,2 km/h (1 Bft) W 270 ° 0 min 0,000 mm 1,3 UV-I 90 W/m² 0,9 °C 3,2 km/h (1 Bft)
03.11.2016 12:14 4,6 °C 4,6 °C 76 % 1022,5 hPa 0,0 mm 2,3 km/h (1 Bft) W 270 ° 0 min 0,000 mm 1,3 UV-I 93 W/m² 0,7 °C 3,2 km/h (1 Bft)
03.11.2016 12:15 4,6 °C 4,6 °C 76 % 1022,5 hPa 0,0 mm 2,1 km/h (1 Bft) W 270 ° 0 min 0,000 mm 1,3 UV-I 95 W/m² 0,7 °C 3,2 km/h (1 Bft)
03.11.2016 12:16 4,6 °C 4,6 °C 76 % 1022,5 hPa 0,0 mm 1,6 km/h (1 Bft) W 270 ° 0 min 0,000 mm 1,3 UV-I 91 W/m² 0,7 °C 3,2 km/h (1 Bft)
03.11.2016 12:17 4,6 °C 4,6 °C 75 % 1022,5 hPa 0,0 mm 1,3 km/h (1 Bft) W 270 ° 0 min 0,000 mm 1,3 UV-I 100 W/m² 0,6 °C 1,6 km/h (1 Bft)
03.11.2016 12:18 4,6 °C 4,6 °C 75 % 1022,5 hPa 0,0 mm 1,8 km/h (1 Bft) W 270 ° 0 min 0,000 mm 1,3 UV-I 100 W/m² 0,6 °C 3,2 km/h (1 Bft)
03.11.2016 12:19 4,6 °C 4,6 °C 76 % 1022,5 hPa 0,0 mm 2,4 km/h (1 Bft) W 270 ° 0 min 0,000 mm 1,3 UV-I 95 W/m² 0,7 °C 3,2 km/h (1 Bft)
03.11.2016 12:20 4,6 °C 4,6 °C 78 % 1022,5 hPa 0,0 mm 2,0 km/h (1 Bft) W 270 ° 0 min 0,000 mm 1,3 UV-I 90 W/m² 1,1 °C 3,2 km/h (1 Bft)
03.11.2016 12:21 4,6 °C 4,6 °C 77 % 1022,4 hPa 0,0 mm 1,1 km/h (1 Bft) W 270 ° 0 min 0,000 mm 1,3 UV-I 86 W/m² 0,9 °C 1,6 km/h (1 Bft)
03.11.2016 12:22 4,6 °C 4,6 °C 76 % 1022,4 hPa 0,0 mm 0,3 km/h (0 Bft) W 270 ° 0 min 0,000 mm 1,3 UV-I 81 W/m² 0,7 °C 1,6 km/h (1 Bft)
03.11.2016 12:23 4,6 °C 4,6 °C 77 % 1022,4 hPa 0,0 mm 0,6 km/h (0 Bft) W 270 ° 0 min 0,000 mm 1,3 UV-I 74 W/m² 0,9 °C 1,6 km/h (1 Bft)
03.11.2016 12:24 4,6 °C 4,6 °C 75 % 1022,3 hPa 0,0 mm 1,2 km/h (1 Bft) W 270 ° 0 min 0,000 mm 1,3 UV-I 70 W/m² 0,6 °C 3,2 km/h (1 Bft)
03.11.2016 12:25 4,6 °C 4,6 °C 75 % 1022,4 hPa 0,0 mm 0,3 km/h (0 Bft) W 270 ° 0 min 0,000 mm 1,3 UV-I 74 W/m² 0,6 °C 1,6 km/h (1 Bft)
03.11.2016 12:26 4,6 °C 4,6 °C 75 % 1022,4 hPa 0,0 mm 0,5 km/h (0 Bft) W 270 ° 0 min 0,000 mm 1,3 UV-I 76 W/m² 0,6 °C 1,6 km/h (1 Bft)
03.11.2016 12:27 4,7 °C 4,7 °C 74 % 1022,3 hPa 0,0 mm 0,3 km/h (0 Bft) W 270 ° 0 min 0,000 mm 1,3 UV-I 81 W/m² 0,5 °C 1,6 km/h (1 Bft)
03.11.2016 12:28 4,7 °C 4,7 °C 76 % 1022,3 hPa 0,0 mm 0,7 km/h (0 Bft) W 269 ° 0 min 0,000 mm 1,3 UV-I 81 W/m² 0,8 °C 3,2 km/h (1 Bft)
03.11.2016 12:29 4,6 °C 4,7 °C 76 % 1022,4 hPa 0,0 mm 2,8 km/h (1 Bft) SO 141 ° 0 min 0,000 mm 1,3 UV-I 83 W/m² 0,7 °C 4,8 km/h (1 Bft)
03.11.2016 12:30 4,6 °C 4,7 °C 77 % 1022,4 hPa 0,0 mm 1,9 km/h (1 Bft) SO 141 ° 0 min 0,000 mm 1,3 UV-I 81 W/m² 0,9 °C 3,2 km/h (1 Bft)
03.11.2016 12:31 4,6 °C 4,6 °C 77 % 1022,4 hPa 0,0 mm 1,5 km/h (1 Bft) SO 125 ° 0 min 0,000 mm 1,3 UV-I 84 W/m² 0,9 °C 3,2 km/h (1 Bft)
03.11.2016 12:32 4,6 °C 4,6 °C 76 % 1022,4 hPa 0,0 mm 0,7 km/h (0 Bft) SO 125 ° 0 min 0,000 mm 1,3 UV-I 90 W/m² 0,7 °C 1,6 km/h (1 Bft)
03.11.2016 12:33 4,6 °C 4,6 °C 77 % 1022,4 hPa 0,0 mm 4,4 km/h (1 Bft) O 79 ° 0 min 0,000 mm 1,3 UV-I 93 W/m² 0,9 °C 6,4 km/h (2 Bft)
03.11.2016 12:34 4,6 °C 4,7 °C 80 % 1022,4 hPa 0,0 mm 4,7 km/h (1 Bft) O 82 ° 0 min 0,000 mm 1,3 UV-I 95 W/m² 1,5 °C 6,4 km/h (2 Bft)
03.11.2016 12:35 4,6 °C 4,6 °C 79 % 1022,3 hPa 0,0 mm 3,0 km/h (1 Bft) O 82 ° 0 min 0,000 mm 1,3 UV-I 98 W/m² 1,3 °C 3,2 km/h (1 Bft)
03.11.2016 12:36 4,6 °C 4,6 °C 77 % 1022,3 hPa 0,0 mm 0,9 km/h (0 Bft) O 82 ° 0 min 0,000 mm 1,3 UV-I 97 W/m² 0,9 °C 1,6 km/h (1 Bft)
03.11.2016 12:37 4,6 °C 4,6 °C 79 % 1022,3 hPa 0,0 mm 2,1 km/h (1 Bft) SO 145 ° 0 min 0,000 mm 1,3 UV-I 100 W/m² 1,3 °C 4,8 km/h (1 Bft)
03.11.2016 12:38 4,6 °C 4,6 °C 76 % 1022,3 hPa 0,0 mm 4,6 km/h (1 Bft) SO 143 ° 0 min 0,000 mm 1,3 UV-I 102 W/m² 0,7 °C 6,4 km/h (2 Bft)
03.11.2016 12:39 4,6 °C 4,6 °C 76 % 1022,3 hPa 0,0 mm 2,1 km/h (1 Bft) SO 142 ° 0 min 0,000 mm 1,3 UV-I 100 W/m² 0,7 °C 3,2 km/h (1 Bft)
03.11.2016 12:40 4,7 °C 4,7 °C 77 % 1022,2 hPa 0,0 mm 1,1 km/h (1 Bft) O-SO 113 ° 0 min 0,000 mm 1,3 UV-I 90 W/m² 1,0 °C 3,2 km/h (1 Bft)
03.11.2016 12:41 4,7 °C 4,7 °C 76 % 1022,2 hPa 0,0 mm 3,0 km/h (1 Bft) O-SO 113 ° 0 min 0,000 mm 1,3 UV-I 79 W/m² 0,8 °C 3,2 km/h (1 Bft)
03.11.2016 12:42 4,7 °C 4,7 °C 78 % 1022,2 hPa 0,0 mm 2,0 km/h (1 Bft) SO 126 ° 0 min 0,000 mm 1,3 UV-I 74 W/m² 1,2 °C 3,2 km/h (1 Bft)
03.11.2016 12:43 4,7 °C 4,7 °C 77 % 1022,2 hPa 0,0 mm 1,7 km/h (1 Bft) SO 126 ° 0 min 0,000 mm 1,3 UV-I 70 W/m² 1,0 °C 3,2 km/h (1 Bft)
03.11.2016 12:44 4,7 °C 4,7 °C 79 % 1022,2 hPa 0,0 mm 2,3 km/h (1 Bft) SO 126 ° 0 min 0,000 mm 1,2 UV-I 69 W/m² 1,4 °C 4,8 km/h (1 Bft)
03.11.2016 12:45 4,6 °C 4,7 °C 78 % 1022,2 hPa 0,0 mm 2,3 km/h (1 Bft) SO 126 ° 0 min 0,000 mm 1,2 UV-I 69 W/m² 1,1 °C 4,8 km/h (1 Bft)
03.11.2016 12:46 4,7 °C 4,7 °C 77 % 1022,2 hPa 0,0 mm 0,1 km/h (0 Bft) SO 126 ° 0 min 0,000 mm 1,2 UV-I 65 W/m² 1,0 °C 1,6 km/h (1 Bft)
03.11.2016 12:47 4,7 °C 4,7 °C 77 % 1022,2 hPa 0,0 mm 0,9 km/h (0 Bft) SO 126 ° 0 min 0,000 mm 1,2 UV-I 65 W/m² 1,0 °C 3,2 km/h (1 Bft)
03.11.2016 12:48 4,7 °C 4,7 °C 78 % 1022,1 hPa 0,0 mm 1,3 km/h (1 Bft) SO 126 ° 0 min 0,000 mm 1,2 UV-I 65 W/m² 1,2 °C 3,2 km/h (1 Bft)
03.11.2016 12:49 4,8 °C 4,8 °C 78 % 1022,1 hPa 0,0 mm 2,3 km/h (1 Bft) SO 140 ° 0 min 0,000 mm 1,2 UV-I 65 W/m² 1,3 °C 3,2 km/h (1 Bft)
03.11.2016 12:50 4,8 °C 4,8 °C 76 % 1022,1 hPa 0,0 mm 3,2 km/h (1 Bft) SO 139 ° 0 min 0,000 mm 1,2 UV-I 67 W/m² 0,9 °C 4,8 km/h (1 Bft)
03.11.2016 12:51 4,9 °C 4,9 °C 76 % 1022,1 hPa 0,0 mm 3,7 km/h (1 Bft) SO 144 ° 0 min 0,000 mm 1,2 UV-I 69 W/m² 1,0 °C 4,8 km/h (1 Bft)
03.11.2016 12:52 4,9 °C 4,9 °C 76 % 1022,1 hPa 0,0 mm 4,6 km/h (1 Bft) S-SO 147 ° 0 min 0,000 mm 1,2 UV-I 72 W/m² 1,0 °C 6,4 km/h (2 Bft)
03.11.2016 12:53 4,9 °C 4,9 °C 76 % 1022,1 hPa 0,0 mm 3,0 km/h (1 Bft) O-NO 73 ° 0 min 0,000 mm 1,2 UV-I 72 W/m² 1,0 °C 4,8 km/h (1 Bft)
03.11.2016 12:54 4,9 °C 4,9 °C 77 % 1022,1 hPa 0,0 mm 2,7 km/h (1 Bft) NO 52 ° 0 min 0,000 mm 1,2 UV-I 74 W/m² 1,2 °C 4,8 km/h (1 Bft)
03.11.2016 12:55 5,0 °C 5,0 °C 77 % 1022,1 hPa 0,0 mm 1,9 km/h (1 Bft) NO 53 ° 0 min 0,000 mm 1,2 UV-I 76 W/m² 1,3 °C 3,2 km/h (1 Bft)
03.11.2016 12:56 5,0 °C 5,0 °C 75 % 1022,1 hPa 0,0 mm 3,5 km/h (1 Bft) O-NO 57 ° 0 min 0,000 mm 1,2 UV-I 76 W/m² 0,9 °C 4,8 km/h (1 Bft)
03.11.2016 12:57 5,0 °C 5,1 °C 75 % 1022,1 hPa 0,0 mm 1,5 km/h (1 Bft) O-NO 57 ° 0 min 0,000 mm 1,2 UV-I 72 W/m² 0,9 °C 3,2 km/h (1 Bft)
03.11.2016 12:58 5,1 °C 5,1 °C 75 % 1022,1 hPa 0,0 mm 1,0 km/h (0 Bft) NO 41 ° 0 min 0,000 mm 1,2 UV-I 69 W/m² 1,0 °C 4,8 km/h (1 Bft)
03.11.2016 12:59 5,1 °C 5,1 °C 75 % 1022,0 hPa 0,0 mm 5,8 km/h (2 Bft) NW 317 ° 0 min 0,000 mm 1,2 UV-I 69 W/m² 1,0 °C 6,4 km/h (2 Bft)
03.11.2016 13:00 5,2 °C 5,2 °C 77 % 1022,0 hPa 0,0 mm 2,6 km/h (1 Bft) N-NO 33 ° 0 min 0,051 mm 1,2 UV-I 69 W/m² 1,5 °C 4,8 km/h (1 Bft)
03.11.2016 13:01 5,3 °C 5,3 °C 77 % 1022,0 hPa 0,0 mm 3,7 km/h (1 Bft) O-NO 63 ° 0 min 0,000 mm 1,2 UV-I 69 W/m² 1,6 °C 6,4 km/h (2 Bft)
03.11.2016 13:02 5,3 °C 5,3 °C 76 % 1022,0 hPa 0,0 mm 1,9 km/h (1 Bft) O-NO 63 ° 0 min 0,000 mm 1,2 UV-I 69 W/m² 1,4 °C 3,2 km/h (1 Bft)
03.11.2016 13:03 5,2 °C 5,3 °C 75 % 1022,0 hPa 0,0 mm 4,1 km/h (1 Bft) NO 46 ° 0 min 0,000 mm 1,2 UV-I 72 W/m² 1,1 °C 6,4 km/h (2 Bft)
03.11.2016 13:04 5,2 °C 5,3 °C 78 % 1022,0 hPa 0,0 mm 4,4 km/h (1 Bft) N-NO 29 ° 0 min 0,000 mm 1,2 UV-I 91 W/m² 1,7 °C 8,0 km/h (2 Bft)
03.11.2016 13:05 5,2 °C 5,2 °C 80 % 1022,0 hPa 0,0 mm 1,6 km/h (1 Bft) N-NO 30 ° 0 min 0,000 mm 1,2 UV-I 100 W/m² 2,0 °C 3,2 km/h (1 Bft)
03.11.2016 13:06 5,1 °C 5,2 °C 80 % 1022,0 hPa 0,0 mm 3,4 km/h (1 Bft) N-NO 32 ° 0 min 0,000 mm 1,2 UV-I 109 W/m² 1,9 °C 6,4 km/h (2 Bft)
03.11.2016 13:07 5,1 °C 5,1 °C 79 % 1022,0 hPa 0,0 mm 1,8 km/h (1 Bft) O-NO 64 ° 0 min 0,000 mm 1,2 UV-I 118 W/m² 1,8 °C 3,2 km/h (1 Bft)
03.11.2016 13:08 5,1 °C 5,1 °C 79 % 1021,9 hPa 0,0 mm 4,8 km/h (1 Bft) NO 48 ° 0 min 0,000 mm 1,2 UV-I 125 W/m² 1,8 °C 8,0 km/h (2 Bft)
03.11.2016 13:09 5,2 °C 5,2 °C 78 % 1022,0 hPa 0,0 mm 5,8 km/h (2 Bft) O-NO 62 ° 0 min 0,000 mm 1,2 UV-I 134 W/m² 1,7 °C 8,0 km/h (2 Bft)
03.11.2016 13:10 5,2 °C 5,2 °C 79 % 1021,9 hPa 0,0 mm 6,6 km/h (2 Bft) O-NO 59 ° 0 min 0,000 mm 1,2 UV-I 148 W/m² 1,9 °C 9,7 km/h (2 Bft)
03.11.2016 13:11 5,3 °C 5,3 °C 78 % 1021,9 hPa 0,0 mm 8,2 km/h (2 Bft) O-NO 64 ° 0 min 0,000 mm 1,3 UV-I 160 W/m² 1,8 °C 9,7 km/h (2 Bft)
03.11.2016 13:12 5,4 °C 5,4 °C 77 % 1021,9 hPa 0,0 mm 5,4 km/h (1 Bft) O-NO 62 ° 0 min 0,000 mm 1,3 UV-I 165 W/m² 1,7 °C 8,0 km/h (2 Bft)
03.11.2016 13:13 5,4 °C 5,4 °C 81 % 1021,9 hPa 0,0 mm 8,2 km/h (2 Bft) O 92 ° 0 min 0,000 mm 1,3 UV-I 171 W/m² 2,4 °C 16,1 km/h (3 Bft)
03.11.2016 13:14 5,5 °C 5,5 °C 80 % 1021,9 hPa 0,0 mm 3,6 km/h (1 Bft) O-SO 103 ° 0 min 0,000 mm 1,3 UV-I 174 W/m² 2,3 °C 6,4 km/h (2 Bft)
03.11.2016 13:15 5,5 °C 5,5 °C 78 % 1021,9 hPa 0,0 mm 3,5 km/h (1 Bft) O 92 ° 0 min 0,000 mm 1,3 UV-I 207 W/m² 2,0 °C 6,4 km/h (2 Bft)
03.11.2016 13:16 5,5 °C 5,5 °C 77 % 1021,8 hPa 0,0 mm 9,4 km/h (2 Bft) O-NO 66 ° 0 min 0,000 mm 1,5 UV-I 207 W/m² 1,8 °C 12,9 km/h (3 Bft)
03.11.2016 13:17 5,6 °C 5,6 °C 77 % 1021,8 hPa 0,0 mm 10,3 km/h (2 Bft) O-NO 69 ° 1 min 0,000 mm 1,7 UV-I 503 W/m² 1,9 °C 14,5 km/h (3 Bft)
03.11.2016 13:18 5,6 °C 5,6 °C 76 % 1021,9 hPa 0,0 mm 9,9 km/h (2 Bft) O-NO 65 ° 1 min 0,000 mm 1,6 UV-I 499 W/m² 1,7 °C 14,5 km/h (3 Bft)
03.11.2016 13:19 5,6 °C 5,6 °C 76 % 1021,8 hPa 0,0 mm 7,8 km/h (2 Bft) N-NO 15 ° 1 min 0,000 mm 1,6 UV-I 490 W/m² 1,7 °C 14,5 km/h (3 Bft)
03.11.2016 13:20 5,6 °C 5,6 °C 76 % 1021,8 hPa 0,0 mm 9,3 km/h (2 Bft) O 79 ° 1 min 0,000 mm 1,6 UV-I 459 W/m² 1,7 °C 16,1 km/h (3 Bft)
03.11.2016 13:21 5,6 °C 5,6 °C 76 % 1021,8 hPa 0,0 mm 8,9 km/h (2 Bft) O-NO 71 ° 1 min 0,000 mm 1,5 UV-I 494 W/m² 1,7 °C 12,9 km/h (3 Bft)
03.11.2016 13:22 5,6 °C 5,6 °C 76 % 1021,8 hPa 0,0 mm 8,4 km/h (2 Bft) O 96 ° 1 min 0,000 mm 1,6 UV-I 513 W/m² 1,7 °C 12,9 km/h (3 Bft)
03.11.2016 13:23 5,6 °C 5,6 °C 75 % 1021,8 hPa 0,0 mm 3,0 km/h (1 Bft) O-NO 71 ° 1 min 0,000 mm 1,6 UV-I 499 W/m² 1,5 °C 8,0 km/h (2 Bft)
03.11.2016 13:24 5,6 °C 5,6 °C 77 % 1021,8 hPa 0,0 mm 3,5 km/h (1 Bft) SO 131 ° 1 min 0,000 mm 1,5 UV-I 410 W/m² 1,9 °C 6,4 km/h (2 Bft)
03.11.2016 13:25 5,6 °C 5,6 °C 76 % 1021,8 hPa 0,0 mm 4,7 km/h (1 Bft) O-NO 71 ° 1 min 0,000 mm 1,2 UV-I 410 W/m² 1,7 °C 6,4 km/h (2 Bft)
03.11.2016 13:26 5,6 °C 5,6 °C 76 % 1021,8 hPa 0,0 mm 6,8 km/h (2 Bft) O 80 ° 0 min 0,000 mm 1,2 UV-I 167 W/m² 1,7 °C 9,7 km/h (2 Bft)
03.11.2016 13:27 5,6 °C 5,6 °C 76 % 1021,8 hPa 0,0 mm 8,0 km/h (2 Bft) O-NO 65 ° 0 min 0,000 mm 1,1 UV-I 149 W/m² 1,7 °C 9,7 km/h (2 Bft)
03.11.2016 13:28 5,6 °C 5,6 °C 75 % 1021,8 hPa 0,0 mm 8,7 km/h (2 Bft) O-NO 69 ° 0 min 0,000 mm 1,1 UV-I 156 W/m² 1,5 °C 9,7 km/h (2 Bft)
03.11.2016 13:29 5,5 °C 5,6 °C 75 % 1021,7 hPa 0,0 mm 6,1 km/h (2 Bft) O-NO 69 ° 0 min 0,000 mm 1,3 UV-I 197 W/m² 1,4 °C 8,0 km/h (2 Bft)
03.11.2016 13:30 5,5 °C 5,5 °C 76 % 1021,7 hPa 0,0 mm 5,2 km/h (1 Bft) O-NO 78 ° 0 min 0,000 mm 1,4 UV-I 197 W/m² 1,6 °C 6,4 km/h (2 Bft)
03.11.2016 13:31 5,5 °C 5,5 °C 76 % 1021,7 hPa 0,0 mm 5,4 km/h (1 Bft) NO 40 ° 1 min 0,000 mm 1,5 UV-I 415 W/m² 1,6 °C 6,4 km/h (2 Bft)
03.11.2016 13:32 5,6 °C 5,6 °C 76 % 1021,7 hPa 0,0 mm 4,8 km/h (1 Bft) O-SO 103 ° 1 min 0,000 mm 1,5 UV-I 489 W/m² 1,7 °C 9,7 km/h (2 Bft)
03.11.2016 13:33 5,6 °C 5,6 °C 75 % 1021,7 hPa 0,0 mm 5,1 km/h (1 Bft) S-SO 147 ° 1 min 0,000 mm 1,6 UV-I 459 W/m² 1,5 °C 8,0 km/h (2 Bft)
03.11.2016 13:34 5,6 °C 5,6 °C 75 % 1021,7 hPa 0,0 mm 3,3 km/h (1 Bft) O 80 ° 1 min 0,000 mm 1,6 UV-I 504 W/m² 1,5 °C 4,8 km/h (1 Bft)
03.11.2016 13:35 5,7 °C 5,7 °C 77 % 1021,7 hPa 0,0 mm 4,6 km/h (1 Bft) O-NO 67 ° 1 min 0,000 mm 1,7 UV-I 492 W/m² 2,0 °C 6,4 km/h (2 Bft)
03.11.2016 13:36 5,7 °C 5,7 °C 78 % 1021,7 hPa 0,0 mm 5,4 km/h (1 Bft) O-NO 71 ° 1 min 0,000 mm 1,7 UV-I 483 W/m² 2,2 °C 8,0 km/h (2 Bft)
03.11.2016 13:37 5,7 °C 5,7 °C 76 % 1021,7 hPa 0,0 mm 6,2 km/h (2 Bft) NO 55 ° 1 min 0,000 mm 1,6 UV-I 476 W/m² 1,8 °C 9,7 km/h (2 Bft)
03.11.2016 13:38 5,7 °C 5,7 °C 75 % 1021,6 hPa 0,0 mm 4,0 km/h (1 Bft) O 83 ° 1 min 0,000 mm 1,6 UV-I 468 W/m² 1,6 °C 4,8 km/h (1 Bft)
03.11.2016 13:39 5,8 °C 5,8 °C 76 % 1021,6 hPa 0,0 mm 4,3 km/h (1 Bft) O 79 ° 1 min 0,000 mm 1,6 UV-I 427 W/m² 1,9 °C 6,4 km/h (2 Bft)
03.11.2016 13:40 5,8 °C 5,8 °C 76 % 1021,6 hPa 0,0 mm 3,8 km/h (1 Bft) O 90 ° 1 min 0,000 mm 1,6 UV-I 462 W/m² 1,9 °C 4,8 km/h (1 Bft)
03.11.2016 13:41 5,8 °C 5,8 °C 75 % 1021,6 hPa 0,0 mm 2,5 km/h (1 Bft) O 82 ° 1 min 0,000 mm 1,6 UV-I 469 W/m² 1,7 °C 8,0 km/h (2 Bft)
03.11.2016 13:42 5,8 °C 5,8 °C 76 % 1021,6 hPa 0,0 mm 4,4 km/h (1 Bft) N 9 ° 1 min 0,000 mm 1,6 UV-I 480 W/m² 1,9 °C 6,4 km/h (2 Bft)
03.11.2016 13:43 6,0 °C 6,0 °C 76 % 1021,6 hPa 0,0 mm 6,0 km/h (2 Bft) O-NO 62 ° 1 min 0,000 mm 1,6 UV-I 483 W/m² 2,1 °C 8,0 km/h (2 Bft)
03.11.2016 13:44 6,1 °C 6,1 °C 74 % 1021,6 hPa 0,0 mm 6,5 km/h (2 Bft) NO 48 ° 1 min 0,000 mm 1,5 UV-I 482 W/m² 1,8 °C 9,7 km/h (2 Bft)
03.11.2016 13:45 6,0 °C 6,1 °C 74 % 1021,6 hPa 0,0 mm 5,3 km/h (1 Bft) N 360 ° 1 min 0,000 mm 1,5 UV-I 475 W/m² 1,7 °C 8,0 km/h (2 Bft)
03.11.2016 13:46 5,9 °C 6,0 °C 75 % 1021,6 hPa 0,0 mm 2,0 km/h (1 Bft) NO 39 ° 1 min 0,000 mm 1,4 UV-I 478 W/m² 1,8 °C 3,2 km/h (1 Bft)
03.11.2016 13:47 6,0 °C 6,0 °C 75 % 1021,6 hPa 0,0 mm 3,0 km/h (1 Bft) NW 323 ° 1 min 0,000 mm 1,4 UV-I 464 W/m² 1,9 °C 6,4 km/h (2 Bft)
03.11.2016 13:48 6,1 °C 6,1 °C 77 % 1021,6 hPa 0,0 mm 5,4 km/h (1 Bft) NW 323 ° 1 min 0,000 mm 1,4 UV-I 452 W/m² 2,4 °C 12,9 km/h (3 Bft)
03.11.2016 13:49 6,2 °C 6,2 °C 76 % 1021,6 hPa 0,0 mm 4,3 km/h (1 Bft) O-NO 69 ° 1 min 0,000 mm 1,3 UV-I 438 W/m² 2,3 °C 9,7 km/h (2 Bft)
03.11.2016 13:50 6,3 °C 6,3 °C 75 % 1021,7 hPa 0,0 mm 4,1 km/h (1 Bft) O-NO 61 ° 1 min 0,000 mm 1,2 UV-I 339 W/m² 2,2 °C 6,4 km/h (2 Bft)
03.11.2016 13:51 6,2 °C 6,3 °C 75 % 1021,6 hPa 0,0 mm 5,4 km/h (1 Bft) N 5 ° 1 min 0,000 mm 1,3 UV-I 425 W/m² 2,1 °C 9,7 km/h (2 Bft)
03.11.2016 13:52 6,3 °C 6,3 °C 75 % 1021,6 hPa 0,0 mm 7,4 km/h (2 Bft) N 5 ° 1 min 0,000 mm 1,3 UV-I 431 W/m² 2,2 °C 12,9 km/h (3 Bft)
03.11.2016 13:53 6,3 °C 6,3 °C 75 % 1021,6 hPa 0,0 mm 6,8 km/h (2 Bft) NO 51 ° 1 min 0,000 mm 1,3 UV-I 436 W/m² 2,2 °C 9,7 km/h (2 Bft)
03.11.2016 13:54 6,3 °C 6,3 °C 76 % 1021,6 hPa 0,0 mm 7,6 km/h (2 Bft) N 5 ° 1 min 0,000 mm 1,3 UV-I 436 W/m² 2,4 °C 11,3 km/h (2 Bft)
03.11.2016 13:55 6,3 °C 6,3 °C 76 % 1021,6 hPa 0,0 mm 5,7 km/h (1 Bft) NO 42 ° 1 min 0,000 mm 1,3 UV-I 425 W/m² 2,4 °C 9,7 km/h (2 Bft)
03.11.2016 13:56 6,3 °C 6,3 °C 74 % 1021,6 hPa 0,0 mm 2,3 km/h (1 Bft) N-NO 19 ° 1 min 0,000 mm 1,2 UV-I 308 W/m² 2,0 °C 3,2 km/h (1 Bft)
03.11.2016 13:57 6,3 °C 6,3 °C 75 % 1021,6 hPa 0,0 mm 4,4 km/h (1 Bft) NO 44 ° 1 min 0,000 mm 1,3 UV-I 308 W/m² 2,2 °C 6,4 km/h (2 Bft)
03.11.2016 13:58 6,2 °C 6,3 °C 74 % 1021,6 hPa 0,0 mm 4,9 km/h (1 Bft) O-NO 69 ° 1 min 0,000 mm 1,3 UV-I 374 W/m² 1,9 °C 8,0 km/h (2 Bft)
03.11.2016 13:59 6,2 °C 6,2 °C 75 % 1021,6 hPa 0,0 mm 6,6 km/h (2 Bft) N-NO 26 ° 1 min 0,000 mm 1,3 UV-I 346 W/m² 2,1 °C 8,0 km/h (2 Bft)
03.11.2016 14:00 6,3 °C 6,3 °C 75 % 1021,6 hPa 0,0 mm 8,0 km/h (2 Bft) NO 51 ° 1 min 0,000 mm 1,3 UV-I 390 W/m² 2,2 °C 11,3 km/h (2 Bft)
03.11.2016 14:01 6,3 °C 6,3 °C 75 % 1021,5 hPa 0,0 mm 6,3 km/h (2 Bft) O-NO 58 ° 1 min 0,153 mm 1,3 UV-I 383 W/m² 2,2 °C 8,0 km/h (2 Bft)
03.11.2016 14:02 6,2 °C 6,3 °C 74 % 1021,5 hPa 0,0 mm 4,8 km/h (1 Bft) N 360 ° 1 min 0,000 mm 1,3 UV-I 378 W/m² 1,9 °C 6,4 km/h (2 Bft)
03.11.2016 14:03 6,2 °C 6,2 °C 75 % 1021,5 hPa 0,0 mm 3,6 km/h (1 Bft) NO 46 ° 1 min 0,000 mm 1,3 UV-I 376 W/m² 2,1 °C 6,4 km/h (2 Bft)
03.11.2016 14:04 6,2 °C 6,2 °C 76 % 1021,5 hPa 0,0 mm 5,6 km/h (1 Bft) N-NO 15 ° 1 min 0,000 mm 1,1 UV-I 204 W/m² 2,3 °C 8,0 km/h (2 Bft)
03.11.2016 14:05 6,3 °C 6,3 °C 75 % 1021,5 hPa 0,0 mm 6,4 km/h (2 Bft) NO 48 ° 1 min 0,000 mm 1,3 UV-I 204 W/m² 2,2 °C 9,7 km/h (2 Bft)
03.11.2016 14:06 6,3 °C 6,3 °C 74 % 1021,5 hPa 0,0 mm 6,5 km/h (2 Bft) N 350 ° 1 min 0,000 mm 1,2 UV-I 320 W/m² 2,0 °C 9,7 km/h (2 Bft)
03.11.2016 14:07 6,3 °C 6,3 °C 75 % 1021,5 hPa 0,0 mm 5,1 km/h (1 Bft) N-NO 14 ° 1 min 0,000 mm 1,0 UV-I 320 W/m² 2,2 °C 9,7 km/h (2 Bft)
03.11.2016 14:08 6,2 °C 6,3 °C 75 % 1021,5 hPa 0,0 mm 6,4 km/h (2 Bft) O-NO 71 ° 0 min 0,000 mm 1,0 UV-I 130 W/m² 2,1 °C 12,9 km/h (3 Bft)
03.11.2016 14:09 6,1 °C 6,2 °C 74 % 1021,4 hPa 0,0 mm 7,0 km/h (2 Bft) N-NO 15 ° 0 min 0,000 mm 1,0 UV-I 120 W/m² 1,8 °C 11,3 km/h (2 Bft)
03.11.2016 14:10 5,9 °C 6,1 °C 73 % 1021,5 hPa 0,0 mm 7,4 km/h (2 Bft) NO 46 ° 0 min 0,000 mm 1,0 UV-I 114 W/m² 1,4 °C 11,3 km/h (2 Bft)
03.11.2016 14:11 5,8 °C 5,9 °C 73 % 1021,5 hPa 0,0 mm 7,2 km/h (2 Bft) O-NO 67 ° 0 min 0,000 mm 1,0 UV-I 128 W/m² 1,3 °C 9,7 km/h (2 Bft)
03.11.2016 14:12 5,8 °C 5,8 °C 74 % 1021,4 hPa 0,0 mm 5,0 km/h (1 Bft) NO 52 ° 0 min 0,000 mm 1,0 UV-I 148 W/m² 1,5 °C 9,7 km/h (2 Bft)
03.11.2016 14:13 5,7 °C 5,8 °C 74 % 1021,5 hPa 0,0 mm 8,6 km/h (2 Bft) O-NO 59 ° 0 min 0,000 mm 0,9 UV-I 139 W/m² 1,4 °C 11,3 km/h (2 Bft)
03.11.2016 14:14 5,6 °C 5,7 °C 74 % 1021,5 hPa 0,0 mm 8,4 km/h (2 Bft) O-NO 61 ° 1 min 0,000 mm 1,0 UV-I 213 W/m² 1,3 °C 11,3 km/h (2 Bft)
03.11.2016 14:15 5,6 °C 5,6 °C 73 % 1021,5 hPa 0,0 mm 4,5 km/h (1 Bft) O-NO 62 ° 1 min 0,000 mm 1,0 UV-I 200 W/m² 1,2 °C 8,0 km/h (2 Bft)
03.11.2016 14:16 5,6 °C 5,6 °C 74 % 1021,5 hPa 0,0 mm 5,2 km/h (1 Bft) O-NO 66 ° 0 min 0,000 mm 0,9 UV-I 188 W/m² 1,3 °C 6,4 km/h (2 Bft)
03.11.2016 14:17 5,6 °C 5,6 °C 74 % 1021,5 hPa 0,0 mm 5,4 km/h (1 Bft) NO 41 ° 0 min 0,000 mm 0,9 UV-I 123 W/m² 1,3 °C 9,7 km/h (2 Bft)
03.11.2016 14:18 5,5 °C 5,6 °C 74 % 1021,5 hPa 0,0 mm 5,0 km/h (1 Bft) N-NO 31 ° 0 min 0,000 mm 0,9 UV-I 158 W/m² 1,2 °C 8,0 km/h (2 Bft)
03.11.2016 14:19 5,5 °C 5,6 °C 73 % 1021,5 hPa 0,0 mm 6,1 km/h (2 Bft) NO 52 ° 0 min 0,000 mm 1,0 UV-I 165 W/m² 1,1 °C 8,0 km/h (2 Bft)
03.11.2016 14:20 5,6 °C 5,6 °C 73 % 1021,5 hPa 0,0 mm 6,2 km/h (2 Bft) NO 54 ° 0 min 0,000 mm 0,9 UV-I 135 W/m² 1,2 °C 8,0 km/h (2 Bft)
03.11.2016 14:21 5,6 °C 5,6 °C 73 % 1021,5 hPa 0,0 mm 5,1 km/h (1 Bft) NO 43 ° 0 min 0,000 mm 0,9 UV-I 105 W/m² 1,2 °C 6,4 km/h (2 Bft)
03.11.2016 14:22 5,6 °C 5,6 °C 74 % 1021,5 hPa 0,0 mm 3,7 km/h (1 Bft) NO 46 ° 0 min 0,000 mm 0,9 UV-I 100 W/m² 1,3 °C 4,8 km/h (1 Bft)
03.11.2016 14:23 5,5 °C 5,6 °C 77 % 1021,4 hPa 0,0 mm 3,4 km/h (1 Bft) NO 46 ° 0 min 0,000 mm 0,9 UV-I 97 W/m² 1,8 °C 6,4 km/h (2 Bft)
03.11.2016 14:24 5,4 °C 5,5 °C 76 % 1021,5 hPa 0,0 mm 5,3 km/h (1 Bft) O-NO 69 ° 0 min 0,000 mm 0,9 UV-I 97 W/m² 1,5 °C 8,0 km/h (2 Bft)
03.11.2016 14:25 5,3 °C 5,4 °C 77 % 1021,5 hPa 0,0 mm 4,9 km/h (1 Bft) NO 56 ° 0 min 0,000 mm 0,9 UV-I 91 W/m² 1,6 °C 6,4 km/h (2 Bft)
03.11.2016 14:26 5,2 °C 5,3 °C 76 % 1021,5 hPa 0,0 mm 3,3 km/h (1 Bft) NO 51 ° 0 min 0,000 mm 0,9 UV-I 98 W/m² 1,3 °C 6,4 km/h (2 Bft)
03.11.2016 14:27 5,2 °C 5,2 °C 76 % 1021,5 hPa 0,0 mm 3,0 km/h (1 Bft) NO 44 ° 0 min 0,000 mm 0,9 UV-I 107 W/m² 1,3 °C 4,8 km/h (1 Bft)
03.11.2016 14:28 5,2 °C 5,2 °C 76 % 1021,5 hPa 0,0 mm 3,7 km/h (1 Bft) NO 53 ° 0 min 0,000 mm 0,9 UV-I 151 W/m² 1,3 °C 6,4 km/h (2 Bft)
03.11.2016 14:29 5,2 °C 5,2 °C 77 % 1021,5 hPa 0,0 mm 3,2 km/h (1 Bft) O-NO 62 ° 0 min 0,000 mm 0,9 UV-I 137 W/m² 1,5 °C 4,8 km/h (1 Bft)
03.11.2016 14:30 5,3 °C 5,3 °C 77 % 1021,4 hPa 0,0 mm 6,3 km/h (2 Bft) O-NO 57 ° 0 min 0,000 mm 0,9 UV-I 134 W/m² 1,6 °C 9,7 km/h (2 Bft)
03.11.2016 14:31 5,3 °C 5,3 °C 75 % 1021,4 hPa 0,0 mm 6,0 km/h (2 Bft) O-NO 76 ° 0 min 0,000 mm 0,9 UV-I 162 W/m² 1,2 °C 9,7 km/h (2 Bft)
03.11.2016 14:32 5,4 °C 5,4 °C 74 % 1021,4 hPa 0,0 mm 5,8 km/h (2 Bft) O-NO 66 ° 0 min 0,000 mm 0,9 UV-I 167 W/m² 1,1 °C 8,0 km/h (2 Bft)
03.11.2016 14:33 5,4 °C 5,4 °C 74 % 1021,4 hPa 0,0 mm 3,0 km/h (1 Bft) O-NO 66 ° 0 min 0,000 mm 0,9 UV-I 155 W/m² 1,1 °C 4,8 km/h (1 Bft)
03.11.2016 14:34 5,4 °C 5,4 °C 75 % 1021,4 hPa 0,0 mm 3,6 km/h (1 Bft) O-NO 74 ° 0 min 0,000 mm 0,8 UV-I 97 W/m² 1,3 °C 4,8 km/h (1 Bft)
03.11.2016 14:35 5,3 °C 5,4 °C 75 % 1021,5 hPa 0,0 mm 4,4 km/h (1 Bft) NO 51 ° 0 min 0,000 mm 0,8 UV-I 128 W/m² 1,2 °C 6,4 km/h (2 Bft)
03.11.2016 14:36 5,3 °C 5,3 °C 74 % 1021,5 hPa 0,0 mm 3,4 km/h (1 Bft) O 85 ° 0 min 0,000 mm 0,9 UV-I 163 W/m² 1,0 °C 4,8 km/h (1 Bft)
03.11.2016 14:37 5,3 °C 5,3 °C 76 % 1021,5 hPa 0,0 mm 6,8 km/h (2 Bft) O-SO 107 ° 0 min 0,000 mm 0,8 UV-I 153 W/m² 1,4 °C 9,7 km/h (2 Bft)
03.11.2016 14:38 5,3 °C 5,3 °C 76 % 1021,5 hPa 0,0 mm 3,0 km/h (1 Bft) O-SO 108 ° 0 min 0,000 mm 0,8 UV-I 153 W/m² 1,4 °C 6,4 km/h (2 Bft)
03.11.2016 14:39 5,3 °C 5,3 °C 75 % 1021,5 hPa 0,0 mm 3,6 km/h (1 Bft) O 85 ° 0 min 0,000 mm 0,8 UV-I 91 W/m² 1,2 °C 6,4 km/h (2 Bft)
03.11.2016 14:40 5,2 °C 5,3 °C 75 % 1021,5 hPa 0,0 mm 4,0 km/h (1 Bft) O 87 ° 0 min 0,000 mm 0,8 UV-I 90 W/m² 1,1 °C 6,4 km/h (2 Bft)
03.11.2016 14:41 5,2 °C 5,2 °C 75 % 1021,5 hPa 0,0 mm 1,0 km/h (0 Bft) O 87 ° 0 min 0,000 mm 0,8 UV-I 90 W/m² 1,1 °C 3,2 km/h (1 Bft)
03.11.2016 14:42 5,2 °C 5,2 °C 75 % 1021,5 hPa 0,0 mm 1,0 km/h (0 Bft) O 87 ° 0 min 0,000 mm 0,8 UV-I 91 W/m² 1,1 °C 3,2 km/h (1 Bft)
03.11.2016 14:43 5,2 °C 5,2 °C 75 % 1021,5 hPa 0,0 mm 2,1 km/h (1 Bft) O 87 ° 0 min 0,000 mm 0,8 UV-I 120 W/m² 1,1 °C 3,2 km/h (1 Bft)
03.11.2016 14:44 5,2 °C 5,2 °C 77 % 1021,5 hPa 0,0 mm 3,1 km/h (1 Bft) O-NO 68 ° 0 min 0,000 mm 0,8 UV-I 139 W/m² 1,5 °C 4,8 km/h (1 Bft)
03.11.2016 14:45 5,1 °C 5,2 °C 77 % 1021,5 hPa 0,0 mm 4,0 km/h (1 Bft) NO 49 ° 0 min 0,000 mm 0,7 UV-I 100 W/m² 1,4 °C 6,4 km/h (2 Bft)
03.11.2016 14:46 5,1 °C 5,1 °C 77 % 1021,5 hPa 0,0 mm 3,9 km/h (1 Bft) NO 49 ° 0 min 0,000 mm 0,7 UV-I 95 W/m² 1,4 °C 4,8 km/h (1 Bft)
03.11.2016 14:47 5,2 °C 5,2 °C 77 % 1021,5 hPa 0,0 mm 2,4 km/h (1 Bft) NO 49 ° 0 min 0,000 mm 0,7 UV-I 93 W/m² 1,5 °C 3,2 km/h (1 Bft)
03.11.2016 14:48 5,2 °C 5,2 °C 76 % 1021,5 hPa 0,0 mm 2,6 km/h (1 Bft) NO 49 ° 0 min 0,000 mm 0,7 UV-I 93 W/m² 1,3 °C 3,2 km/h (1 Bft)
03.11.2016 14:49 5,1 °C 5,2 °C 76 % 1021,6 hPa 0,0 mm 2,5 km/h (1 Bft) NO 49 ° 0 min 0,000 mm 0,7 UV-I 88 W/m² 1,2 °C 4,8 km/h (1 Bft)
03.11.2016 14:50 5,1 °C 5,1 °C 79 % 1021,6 hPa 0,0 mm 1,8 km/h (1 Bft) NO 49 ° 0 min 0,000 mm 0,7 UV-I 88 W/m² 1,8 °C 3,2 km/h (1 Bft)
03.11.2016 14:51 5,1 °C 5,1 °C 77 % 1021,6 hPa 0,0 mm 2,1 km/h (1 Bft) NO 49 ° 0 min 0,000 mm 0,7 UV-I 93 W/m² 1,4 °C 3,2 km/h (1 Bft)
03.11.2016 14:52 5,0 °C 5,1 °C 77 % 1021,6 hPa 0,0 mm 1,0 km/h (0 Bft) NO 49 ° 0 min 0,000 mm 0,7 UV-I 93 W/m² 1,3 °C 1,6 km/h (1 Bft)
03.11.2016 14:53 4,9 °C 5,0 °C 77 % 1021,6 hPa 0,0 mm 1,9 km/h (1 Bft) NO 49 ° 0 min 0,000 mm 0,7 UV-I 91 W/m² 1,2 °C 3,2 km/h (1 Bft)
03.11.2016 14:54 4,9 °C 5,0 °C 77 % 1021,6 hPa 0,0 mm 0,9 km/h (0 Bft) NO 49 ° 0 min 0,000 mm 0,7 UV-I 93 W/m² 1,2 °C 1,6 km/h (1 Bft)
03.11.2016 14:55 5,0 °C 5,0 °C 76 % 1021,6 hPa 0,0 mm 0,0 km/h (0 Bft) NO 49 ° 0 min 0,000 mm 0,7 UV-I 88 W/m² 1,1 °C 0,0 km/h (0 Bft)
03.11.2016 14:56 5,0 °C 5,0 °C 78 % 1021,7 hPa 0,0 mm 0,0 km/h (0 Bft) NO 49 ° 0 min 0,000 mm 0,6 UV-I 84 W/m² 1,5 °C 0,0 km/h (0 Bft)
03.11.2016 14:57 4,9 °C 5,0 °C 77 % 1021,6 hPa 0,0 mm 0,0 km/h (0 Bft) NO 49 ° 0 min 0,000 mm 0,6 UV-I 86 W/m² 1,2 °C 0,0 km/h (0 Bft)
03.11.2016 14:58 4,9 °C 5,0 °C 78 % 1021,6 hPa 0,0 mm 0,0 km/h (0 Bft) NO 49 ° 0 min 0,000 mm 0,6 UV-I 84 W/m² 1,4 °C 0,0 km/h (0 Bft)
03.11.2016 14:59 4,9 °C 4,9 °C 78 % 1021,6 hPa 0,0 mm 0,0 km/h (0 Bft) NO 49 ° 0 min 0,000 mm 0,6 UV-I 81 W/m² 1,4 °C 0,0 km/h (0 Bft)
03.11.2016 15:00 4,9 °C 4,9 °C 77 % 1021,6 hPa 0,0 mm 0,0 km/h (0 Bft) NO 49 ° 0 min 0,076 mm 0,6 UV-I 77 W/m² 1,2 °C 0,0 km/h (0 Bft)
03.11.2016 15:01 4,9 °C 4,9 °C 76 % 1021,6 hPa 0,0 mm 0,0 km/h (0 Bft) NO 49 ° 0 min 0,000 mm 0,6 UV-I 77 W/m² 1,0 °C 0,0 km/h (0 Bft)
03.11.2016 15:02 4,9 °C 4,9 °C 76 % 1021,7 hPa 0,0 mm 0,6 km/h (0 Bft) O-NO 76 ° 0 min 0,000 mm 0,6 UV-I 77 W/m² 1,0 °C 4,8 km/h (1 Bft)
03.11.2016 15:03 4,9 °C 4,9 °C 77 % 1021,7 hPa 0,0 mm 3,5 km/h (1 Bft) O-SO 114 ° 0 min 0,000 mm 0,6 UV-I 79 W/m² 1,2 °C 4,8 km/h (1 Bft)
03.11.2016 15:04 4,9 °C 4,9 °C 77 % 1021,7 hPa 0,0 mm 2,8 km/h (1 Bft) O-SO 107 ° 0 min 0,000 mm 0,6 UV-I 79 W/m² 1,2 °C 4,8 km/h (1 Bft)
03.11.2016 15:05 4,9 °C 4,9 °C 79 % 1021,6 hPa 0,0 mm 2,1 km/h (1 Bft) O-SO 107 ° 0 min 0,000 mm 0,6 UV-I 77 W/m² 1,6 °C 3,2 km/h (1 Bft)
03.11.2016 15:06 4,9 °C 4,9 °C 78 % 1021,6 hPa 0,0 mm 0,0 km/h (0 Bft) O-SO 107 ° 0 min 0,000 mm 0,6 UV-I 76 W/m² 1,4 °C 0,0 km/h (0 Bft)
03.11.2016 15:07 4,8 °C 4,9 °C 80 % 1021,6 hPa 0,0 mm 0,0 km/h (0 Bft) O-SO 107 ° 0 min 0,000 mm 0,6 UV-I 72 W/m² 1,6 °C 0,0 km/h (0 Bft)
03.11.2016 15:08 4,8 °C 4,8 °C 81 % 1021,6 hPa 0,0 mm 1,9 km/h (1 Bft) O-SO 107 ° 0 min 0,000 mm 0,6 UV-I 70 W/m² 1,8 °C 3,2 km/h (1 Bft)
03.11.2016 15:09 4,7 °C 4,8 °C 82 % 1021,6 hPa 0,0 mm 2,7 km/h (1 Bft) O-SO 107 ° 0 min 0,000 mm 0,6 UV-I 69 W/m² 1,9 °C 4,8 km/h (1 Bft)
03.11.2016 15:10 4,7 °C 4,7 °C 81 % 1021,6 hPa 0,0 mm 1,7 km/h (1 Bft) O-SO 107 ° 0 min 0,000 mm 0,6 UV-I 69 W/m² 1,7 °C 3,2 km/h (1 Bft)
03.11.2016 15:11 4,7 °C 4,7 °C 79 % 1021,6 hPa 0,0 mm 0,9 km/h (0 Bft) O-SO 107 ° 0 min 0,000 mm 0,5 UV-I 67 W/m² 1,4 °C 1,6 km/h (1 Bft)
03.11.2016 15:12 4,7 °C 4,7 °C 79 % 1021,6 hPa 0,0 mm 3,3 km/h (1 Bft) O-SO 103 ° 0 min 0,000 mm 0,5 UV-I 67 W/m² 1,4 °C 4,8 km/h (1 Bft)
03.11.2016 15:13 4,7 °C 4,7 °C 81 % 1021,6 hPa 0,0 mm 2,9 km/h (1 Bft) O-SO 103 ° 0 min 0,000 mm 0,5 UV-I 65 W/m² 1,7 °C 4,8 km/h (1 Bft)
03.11.2016 15:14 4,6 °C 4,7 °C 80 % 1021,6 hPa 0,0 mm 2,3 km/h (1 Bft) O-SO 103 ° 0 min 0,000 mm 0,5 UV-I 65 W/m² 1,5 °C 3,2 km/h (1 Bft)
03.11.2016 15:15 4,6 °C 4,6 °C 81 % 1021,6 hPa 0,0 mm 1,3 km/h (1 Bft) O-SO 103 ° 0 min 0,000 mm 0,5 UV-I 65 W/m² 1,6 °C 1,6 km/h (1 Bft)
03.11.2016 15:16 4,6 °C 4,6 °C 79 % 1021,6 hPa 0,0 mm 2,7 km/h (1 Bft) O 101 ° 0 min 0,000 mm 0,5 UV-I 65 W/m² 1,3 °C 4,8 km/h (1 Bft)
03.11.2016 15:17 4,6 °C 4,6 °C 79 % 1021,6 hPa 0,0 mm 0,7 km/h (0 Bft) O 101 ° 0 min 0,000 mm 0,5 UV-I 65 W/m² 1,3 °C 1,6 km/h (1 Bft)
03.11.2016 15:18 4,6 °C 4,6 °C 80 % 1021,6 hPa 0,0 mm 1,9 km/h (1 Bft) O 101 ° 0 min 0,000 mm 0,5 UV-I 65 W/m² 1,5 °C 3,2 km/h (1 Bft)
03.11.2016 15:19 4,6 °C 4,6 °C 81 % 1021,7 hPa 0,0 mm 3,3 km/h (1 Bft) O 101 ° 0 min 0,000 mm 0,5 UV-I 65 W/m² 1,6 °C 4,8 km/h (1 Bft)
03.11.2016 15:20 4,5 °C 4,6 °C 82 % 1021,6 hPa 0,0 mm 1,6 km/h (1 Bft) O 101 ° 0 min 0,000 mm 0,5 UV-I 65 W/m² 1,7 °C 3,2 km/h (1 Bft)
03.11.2016 15:21 4,4 °C 4,5 °C 81 % 1021,7 hPa 0,0 mm 1,5 km/h (1 Bft) O 101 ° 0 min 0,000 mm 0,5 UV-I 65 W/m² 1,4 °C 3,2 km/h (1 Bft)
03.11.2016 15:22 4,4 °C 4,5 °C 82 % 1021,7 hPa 0,0 mm 4,0 km/h (1 Bft) O-SO 111 ° 0 min 0,000 mm 0,5 UV-I 65 W/m² 1,6 °C 6,4 km/h (2 Bft)
03.11.2016 15:23 4,4 °C 4,4 °C 81 % 1021,7 hPa 0,0 mm 2,1 km/h (1 Bft) O-SO 111 ° 0 min 0,000 mm 0,5 UV-I 65 W/m² 1,4 °C 3,2 km/h (1 Bft)
03.11.2016 15:24 4,4 °C 4,4 °C 80 % 1021,6 hPa 0,0 mm 0,1 km/h (0 Bft) O-SO 111 ° 0 min 0,000 mm 0,5 UV-I 65 W/m² 1,3 °C 1,6 km/h (1 Bft)
03.11.2016 15:25 4,4 °C 4,4 °C 82 % 1021,7 hPa 0,0 mm 0,0 km/h (0 Bft) O-SO 111 ° 0 min 0,000 mm 0,5 UV-I 65 W/m² 1,6 °C 0,0 km/h (0 Bft)
03.11.2016 15:26 4,3 °C 4,4 °C 82 % 1021,6 hPa 0,0 mm 0,0 km/h (0 Bft) O-SO 111 ° 0 min 0,000 mm 0,5 UV-I 63 W/m² 1,5 °C 0,0 km/h (0 Bft)
03.11.2016 15:27 4,3 °C 4,4 °C 82 % 1021,7 hPa 0,0 mm 0,0 km/h (0 Bft) O-SO 111 ° 0 min 0,000 mm 0,5 UV-I 63 W/m² 1,5 °C 0,0 km/h (0 Bft)
03.11.2016 15:28 4,3 °C 4,3 °C 81 % 1021,7 hPa 0,0 mm 0,0 km/h (0 Bft) O-SO 111 ° 0 min 0,000 mm 0,5 UV-I 62 W/m² 1,3 °C 0,0 km/h (0 Bft)
03.11.2016 15:29 4,3 °C 4,3 °C 82 % 1021,6 hPa 0,0 mm 0,9 km/h (0 Bft) O-SO 111 ° 0 min 0,000 mm 0,5 UV-I 60 W/m² 1,5 °C 1,6 km/h (1 Bft)
03.11.2016 15:30 4,3 °C 4,3 °C 82 % 1021,6 hPa 0,0 mm 1,9 km/h (1 Bft) O-SO 111 ° 0 min 0,000 mm 0,5 UV-I 58 W/m² 1,5 °C 3,2 km/h (1 Bft)
03.11.2016 15:31 4,3 °C 4,3 °C 83 % 1021,7 hPa 0,0 mm 1,1 km/h (1 Bft) O-SO 111 ° 0 min 0,000 mm 0,5 UV-I 58 W/m² 1,7 °C 1,6 km/h (1 Bft)
03.11.2016 15:32 4,3 °C 4,3 °C 83 % 1021,7 hPa 0,0 mm 0,5 km/h (0 Bft) O-SO 111 ° 0 min 0,000 mm 0,0 UV-I 58 W/m² 1,7 °C 1,6 km/h (1 Bft)
03.11.2016 15:33 4,3 °C 4,3 °C 82 % 1021,6 hPa 0,0 mm 0,5 km/h (0 Bft) O-SO 111 ° 0 min 0,000 mm 0,0 UV-I 58 W/m² 1,5 °C 1,6 km/h (1 Bft)
03.11.2016 15:34 4,3 °C 4,3 °C 82 % 1021,6 hPa 0,0 mm 0,9 km/h (0 Bft) O-SO 111 ° 0 min 0,000 mm 0,0 UV-I 56 W/m² 1,5 °C 1,6 km/h (1 Bft)
03.11.2016 15:35 4,3 °C 4,3 °C 81 % 1021,6 hPa 0,0 mm 0,1 km/h (0 Bft) O-SO 111 ° 0 min 0,000 mm 0,0 UV-I 56 W/m² 1,3 °C 1,6 km/h (1 Bft)
03.11.2016 15:36 4,3 °C 4,3 °C 81 % 1021,6 hPa 0,0 mm 0,7 km/h (0 Bft) O-SO 111 ° 0 min 0,000 mm 0,0 UV-I 56 W/m² 1,3 °C 1,6 km/h (1 Bft)
03.11.2016 15:37 4,2 °C 4,3 °C 82 % 1021,6 hPa 0,0 mm 1,7 km/h (1 Bft) O-SO 111 ° 0 min 0,000 mm 0,0 UV-I 58 W/m² 1,4 °C 3,2 km/h (1 Bft)
03.11.2016 15:38 4,2 °C 4,2 °C 81 % 1021,6 hPa 0,0 mm 2,0 km/h (1 Bft) O-SO 111 ° 0 min 0,000 mm 0,0 UV-I 58 W/m² 1,2 °C 3,2 km/h (1 Bft)
03.11.2016 15:39 4,2 °C 4,3 °C 82 % 1021,6 hPa 0,0 mm 1,4 km/h (1 Bft) O-SO 111 ° 0 min 0,000 mm 0,0 UV-I 58 W/m² 1,4 °C 3,2 km/h (1 Bft)
03.11.2016 15:40 4,2 °C 4,3 °C 83 % 1021,6 hPa 0,0 mm 1,4 km/h (1 Bft) O-SO 111 ° 0 min 0,000 mm 0,0 UV-I 60 W/m² 1,6 °C 3,2 km/h (1 Bft)
03.11.2016 15:41 4,2 °C 4,3 °C 82 % 1021,6 hPa 0,0 mm 0,5 km/h (0 Bft) O-SO 111 ° 0 min 0,000 mm 0,0 UV-I 60 W/m² 1,4 °C 1,6 km/h (1 Bft)
03.11.2016 15:42 4,2 °C 4,2 °C 82 % 1021,6 hPa 0,0 mm 0,7 km/h (0 Bft) O-SO 111 ° 0 min 0,000 mm 0,0 UV-I 60 W/m² 1,4 °C 1,6 km/h (1 Bft)
03.11.2016 15:43 4,2 °C 4,2 °C 82 % 1021,6 hPa 0,0 mm 0,3 km/h (0 Bft) O-SO 111 ° 0 min 0,000 mm 0,0 UV-I 58 W/m² 1,4 °C 1,6 km/h (1 Bft)
03.11.2016 15:44 4,2 °C 4,2 °C 82 % 1021,6 hPa 0,0 mm 0,2 km/h (0 Bft) O-SO 111 ° 0 min 0,000 mm 0,0 UV-I 58 W/m² 1,4 °C 1,6 km/h (1 Bft)
03.11.2016 15:45 4,2 °C 4,2 °C 83 % 1021,6 hPa 0,0 mm 0,1 km/h (0 Bft) O-SO 111 ° 0 min 0,000 mm 0,0 UV-I 56 W/m² 1,6 °C 1,6 km/h (1 Bft)
03.11.2016 15:46 4,2 °C 4,2 °C 83 % 1021,6 hPa 0,0 mm 0,4 km/h (0 Bft) O-SO 111 ° 0 min 0,000 mm 0,0 UV-I 54 W/m² 1,6 °C 1,6 km/h (1 Bft)
03.11.2016 15:47 4,2 °C 4,2 °C 84 % 1021,6 hPa 0,0 mm 0,0 km/h (0 Bft) O-SO 111 ° 0 min 0,000 mm 0,0 UV-I 53 W/m² 1,7 °C 0,0 km/h (0 Bft)
03.11.2016 15:48 4,2 °C 4,2 °C 83 % 1021,6 hPa 0,0 mm 0,8 km/h (0 Bft) O-SO 111 ° 0 min 0,000 mm 0,0 UV-I 49 W/m² 1,6 °C 1,6 km/h (1 Bft)
03.11.2016 15:49 4,2 °C 4,2 °C 82 % 1021,7 hPa 0,0 mm 0,4 km/h (0 Bft) O-SO 111 ° 0 min 0,000 mm 0,0 UV-I 47 W/m² 1,4 °C 1,6 km/h (1 Bft)
03.11.2016 15:50 4,1 °C 4,2 °C 82 % 1021,6 hPa 0,0 mm 0,0 km/h (0 Bft) O-SO 111 ° 0 min 0,000 mm 0,0 UV-I 46 W/m² 1,3 °C 0,0 km/h (0 Bft)
03.11.2016 15:51 4,1 °C 4,2 °C 82 % 1021,6 hPa 0,0 mm 0,2 km/h (0 Bft) O-SO 111 ° 0 min 0,000 mm 0,0 UV-I 44 W/m² 1,3 °C 1,6 km/h (1 Bft)
03.11.2016 15:52 4,1 °C 4,2 °C 82 % 1021,6 hPa 0,0 mm 0,3 km/h (0 Bft) O-SO 111 ° 0 min 0,000 mm 0,0 UV-I 42 W/m² 1,3 °C 1,6 km/h (1 Bft)
03.11.2016 15:53 4,1 °C 4,2 °C 83 % 1021,6 hPa 0,0 mm 0,8 km/h (0 Bft) O-SO 111 ° 0 min 0,000 mm 0,0 UV-I 42 W/m² 1,5 °C 1,6 km/h (1 Bft)
03.11.2016 15:54 4,1 °C 4,1 °C 82 % 1021,7 hPa 0,0 mm 0,3 km/h (0 Bft) O-SO 111 ° 0 min 0,000 mm 0,0 UV-I 40 W/m² 1,3 °C 1,6 km/h (1 Bft)
03.11.2016 15:55 4,1 °C 4,1 °C 83 % 1021,7 hPa 0,0 mm 0,3 km/h (0 Bft) O-SO 111 ° 0 min 0,000 mm 0,0 UV-I 39 W/m² 1,5 °C 1,6 km/h (1 Bft)
03.11.2016 15:56 4,1 °C 4,1 °C 82 % 1021,6 hPa 0,0 mm 0,6 km/h (0 Bft) O-SO 111 ° 0 min 0,000 mm 0,0 UV-I 39 W/m² 1,3 °C 1,6 km/h (1 Bft)
03.11.2016 15:57 4,1 °C 4,1 °C 83 % 1021,7 hPa 0,0 mm 1,9 km/h (1 Bft) O-SO 111 ° 0 min 0,000 mm 0,0 UV-I 39 W/m² 1,5 °C 3,2 km/h (1 Bft)
03.11.2016 15:58 4,1 °C 4,1 °C 83 % 1021,6 hPa 0,0 mm 1,4 km/h (1 Bft) O-SO 111 ° 0 min 0,000 mm 0,0 UV-I 39 W/m² 1,5 °C 3,2 km/h (1 Bft)
03.11.2016 15:59 4,1 °C 4,1 °C 83 % 1021,6 hPa 0,0 mm 1,3 km/h (1 Bft) O-SO 111 ° 0 min 0,000 mm 0,0 UV-I 39 W/m² 1,5 °C 1,6 km/h (1 Bft)
03.11.2016 16:00 4,0 °C 4,1 °C 82 % 1021,7 hPa 0,0 mm 1,4 km/h (1 Bft) O-SO 111 ° 0 min 0,000 mm 0,0 UV-I 39 W/m² 1,2 °C 3,2 km/h (1 Bft)
03.11.2016 16:01 4,0 °C 4,0 °C 83 % 1021,7 hPa 0,0 mm 1,4 km/h (1 Bft) O-SO 111 ° 0 min 0,025 mm 0,0 UV-I 39 W/m² 1,4 °C 3,2 km/h (1 Bft)
03.11.2016 16:02 3,9 °C 4,0 °C 83 % 1021,7 hPa 0,0 mm 0,7 km/h (0 Bft) O-SO 111 ° 0 min 0,000 mm 0,0 UV-I 39 W/m² 1,3 °C 1,6 km/h (1 Bft)
03.11.2016 16:03 3,9 °C 3,9 °C 83 % 1021,7 hPa 0,0 mm 0,8 km/h (0 Bft) O-SO 111 ° 0 min 0,000 mm 0,0 UV-I 39 W/m² 1,3 °C 1,6 km/h (1 Bft)
03.11.2016 16:04 3,9 °C 3,9 °C 83 % 1021,7 hPa 0,0 mm 0,7 km/h (0 Bft) O-SO 111 ° 0 min 0,000 mm 0,0 UV-I 39 W/m² 1,3 °C 1,6 km/h (1 Bft)
03.11.2016 16:05 3,9 °C 3,9 °C 83 % 1021,7 hPa 0,0 mm 0,0 km/h (0 Bft) O-SO 111 ° 0 min 0,000 mm 0,0 UV-I 39 W/m² 1,3 °C 0,0 km/h (0 Bft)
03.11.2016 16:06 3,9 °C 3,9 °C 83 % 1021,7 hPa 0,0 mm 0,3 km/h (0 Bft) O-SO 111 ° 0 min 0,000 mm 0,0 UV-I 37 W/m² 1,3 °C 1,6 km/h (1 Bft)
03.11.2016 16:07 3,9 °C 3,9 °C 83 % 1021,7 hPa 0,0 mm 0,1 km/h (0 Bft) O-SO 111 ° 0 min 0,000 mm 0,0 UV-I 37 W/m² 1,3 °C 1,6 km/h (1 Bft)
03.11.2016 16:08 3,8 °C 3,9 °C 83 % 1021,8 hPa 0,0 mm 0,7 km/h (0 Bft) O-SO 111 ° 0 min 0,000 mm 0,0 UV-I 37 W/m² 1,2 °C 1,6 km/h (1 Bft)
03.11.2016 16:09 3,8 °C 3,9 °C 84 % 1021,7 hPa 0,0 mm 1,5 km/h (1 Bft) O-SO 111 ° 0 min 0,000 mm 0,0 UV-I 37 W/m² 1,4 °C 3,2 km/h (1 Bft)
03.11.2016 16:10 3,8 °C 3,8 °C 84 % 1021,8 hPa 0,0 mm 1,7 km/h (1 Bft) O-SO 111 ° 0 min 0,000 mm 0,0 UV-I 37 W/m² 1,4 °C 3,2 km/h (1 Bft)
03.11.2016 16:11 3,8 °C 3,8 °C 84 % 1021,7 hPa 0,0 mm 1,9 km/h (1 Bft) O-SO 111 ° 0 min 0,000 mm 0,0 UV-I 35 W/m² 1,4 °C 3,2 km/h (1 Bft)
03.11.2016 16:12 3,8 °C 3,8 °C 84 % 1021,7 hPa 0,0 mm 1,6 km/h (1 Bft) O-SO 111 ° 0 min 0,000 mm 0,0 UV-I 35 W/m² 1,4 °C 1,6 km/h (1 Bft)
03.11.2016 16:13 3,8 °C 3,8 °C 84 % 1021,7 hPa 0,0 mm 0,9 km/h (0 Bft) O-SO 111 ° 0 min 0,000 mm 0,0 UV-I 35 W/m² 1,4 °C 3,2 km/h (1 Bft)
03.11.2016 16:14 3,8 °C 3,8 °C 84 % 1021,7 hPa 0,0 mm 2,1 km/h (1 Bft) O-SO 111 ° 0 min 0,000 mm 0,0 UV-I 33 W/m² 1,4 °C 3,2 km/h (1 Bft)
03.11.2016 16:15 3,8 °C 3,8 °C 84 % 1021,7 hPa 0,0 mm 0,9 km/h (0 Bft) O-SO 111 ° 0 min 0,000 mm 0,0 UV-I 33 W/m² 1,4 °C 1,6 km/h (1 Bft)
03.11.2016 16:16 3,8 °C 3,8 °C 85 % 1021,7 hPa 0,0 mm 2,0 km/h (1 Bft) O-SO 111 ° 0 min 0,000 mm 0,0 UV-I 32 W/m² 1,5 °C 3,2 km/h (1 Bft)
03.11.2016 16:17 3,7 °C 3,8 °C 85 % 1021,7 hPa 0,0 mm 2,1 km/h (1 Bft) O-SO 111 ° 0 min 0,000 mm 0,0 UV-I 32 W/m² 1,4 °C 3,2 km/h (1 Bft)
03.11.2016 16:18 3,7 °C 3,7 °C 85 % 1021,7 hPa 0,0 mm 1,0 km/h (0 Bft) O-SO 111 ° 0 min 0,000 mm 0,0 UV-I 30 W/m² 1,4 °C 1,6 km/h (1 Bft)
03.11.2016 16:19 3,7 °C 3,7 °C 84 % 1021,8 hPa 0,0 mm 1,2 km/h (1 Bft) O-SO 111 ° 0 min 0,000 mm 0,0 UV-I 30 W/m² 1,3 °C 1,6 km/h (1 Bft)
03.11.2016 16:20 3,6 °C 3,7 °C 84 % 1021,8 hPa 0,0 mm 1,5 km/h (1 Bft) O-SO 111 ° 0 min 0,000 mm 0,0 UV-I 30 W/m² 1,2 °C 3,2 km/h (1 Bft)
03.11.2016 16:21 3,6 °C 3,6 °C 85 % 1021,8 hPa 0,0 mm 2,1 km/h (1 Bft) O-SO 111 ° 0 min 0,000 mm 0,0 UV-I 28 W/m² 1,3 °C 3,2 km/h (1 Bft)
03.11.2016 16:22 3,6 °C 3,6 °C 85 % 1021,8 hPa 0,0 mm 1,9 km/h (1 Bft) O-SO 111 ° 0 min 0,000 mm 0,0 UV-I 28 W/m² 1,3 °C 3,2 km/h (1 Bft)
03.11.2016 16:23 3,6 °C 3,6 °C 85 % 1021,7 hPa 0,0 mm 2,2 km/h (1 Bft) O-SO 111 ° 0 min 0,000 mm 0,0 UV-I 26 W/m² 1,3 °C 3,2 km/h (1 Bft)
03.11.2016 16:24 3,6 °C 3,6 °C 85 % 1021,8 hPa 0,0 mm 2,0 km/h (1 Bft) O-SO 111 ° 0 min 0,000 mm 0,0 UV-I 26 W/m² 1,3 °C 3,2 km/h (1 Bft)
03.11.2016 16:25 3,6 °C 3,6 °C 84 % 1021,7 hPa 0,0 mm 2,3 km/h (1 Bft) O-SO 111 ° 0 min 0,000 mm 0,0 UV-I 25 W/m² 1,2 °C 3,2 km/h (1 Bft)
03.11.2016 16:26 3,5 °C 3,6 °C 84 % 1021,7 hPa 0,0 mm 1,7 km/h (1 Bft) O-SO 111 ° 0 min 0,000 mm 0,0 UV-I 23 W/m² 1,1 °C 3,2 km/h (1 Bft)
03.11.2016 16:27 3,4 °C 3,5 °C 85 % 1021,7 hPa 0,0 mm 1,9 km/h (1 Bft) O-SO 111 ° 0 min 0,000 mm 0,0 UV-I 23 W/m² 1,1 °C 3,2 km/h (1 Bft)
03.11.2016 16:28 3,4 °C 3,5 °C 85 % 1021,6 hPa 0,0 mm 2,1 km/h (1 Bft) O-SO 111 ° 0 min 0,000 mm 0,0 UV-I 21 W/m² 1,1 °C 3,2 km/h (1 Bft)
03.11.2016 16:29 3,4 °C 3,4 °C 84 % 1021,6 hPa 0,0 mm 1,5 km/h (1 Bft) O-SO 111 ° 0 min 0,000 mm 0,0 UV-I 19 W/m² 1,0 °C 3,2 km/h (1 Bft)
03.11.2016 16:30 3,4 °C 3,4 °C 85 % 1021,6 hPa 0,0 mm 1,7 km/h (1 Bft) O-SO 111 ° 0 min 0,000 mm 0,0 UV-I 18 W/m² 1,1 °C 3,2 km/h (1 Bft)
03.11.2016 16:31 3,4 °C 3,4 °C 85 % 1021,6 hPa 0,0 mm 1,5 km/h (1 Bft) O-SO 111 ° 0 min 0,000 mm 0,0 UV-I 18 W/m² 1,1 °C 3,2 km/h (1 Bft)
03.11.2016 16:32 3,4 °C 3,4 °C 85 % 1021,6 hPa 0,0 mm 2,0 km/h (1 Bft) O-SO 111 ° 0 min 0,000 mm 0,0 UV-I 16 W/m² 1,1 °C 3,2 km/h (1 Bft)
03.11.2016 16:33 3,4 °C 3,4 °C 84 % 1021,6 hPa 0,0 mm 2,5 km/h (1 Bft) O-SO 111 ° 0 min 0,000 mm 0,0 UV-I 16 W/m² 1,0 °C 3,2 km/h (1 Bft)
03.11.2016 16:34 3,3 °C 3,4 °C 84 % 1021,6 hPa 0,0 mm 1,8 km/h (1 Bft) O-SO 111 ° 0 min 0,000 mm 0,0 UV-I 14 W/m² 0,9 °C 3,2 km/h (1 Bft)
03.11.2016 16:35 3,3 °C 3,3 °C 84 % 1021,6 hPa 0,0 mm 2,5 km/h (1 Bft) O-SO 111 ° 0 min 0,000 mm 0,0 UV-I 12 W/m² 0,9 °C 3,2 km/h (1 Bft)
03.11.2016 16:36 3,3 °C 3,3 °C 85 % 1021,6 hPa 0,0 mm 1,8 km/h (1 Bft) O-SO 111 ° 0 min 0,000 mm 0,0 UV-I 12 W/m² 1,0 °C 3,2 km/h (1 Bft)
03.11.2016 16:37 3,3 °C 3,3 °C 85 % 1021,6 hPa 0,0 mm 1,9 km/h (1 Bft) O-SO 111 ° 0 min 0,000 mm 0,0 UV-I 12 W/m² 1,0 °C 3,2 km/h (1 Bft)
03.11.2016 16:38 3,2 °C 3,3 °C 85 % 1021,6 hPa 0,0 mm 1,8 km/h (1 Bft) O-SO 111 ° 0 min 0,000 mm 0,0 UV-I 11 W/m² 0,9 °C 3,2 km/h (1 Bft)
03.11.2016 16:39 3,2 °C 3,2 °C 85 % 1021,6 hPa 0,0 mm 2,4 km/h (1 Bft) O-SO 111 ° 0 min 0,000 mm 0,0 UV-I 11 W/m² 0,9 °C 3,2 km/h (1 Bft)
03.11.2016 16:40 3,2 °C 3,2 °C 85 % 1021,6 hPa 0,0 mm 2,5 km/h (1 Bft) O-SO 111 ° 0 min 0,000 mm 0,0 UV-I 9 W/m² 0,9 °C 3,2 km/h (1 Bft)
03.11.2016 16:41 3,1 °C 3,2 °C 85 % 1021,6 hPa 0,0 mm 2,0 km/h (1 Bft) O-SO 111 ° 0 min 0,000 mm 0,0 UV-I 9 W/m² 0,8 °C 3,2 km/h (1 Bft)
03.11.2016 16:42 3,1 °C 3,1 °C 85 % 1021,5 hPa 0,0 mm 2,8 km/h (1 Bft) O-SO 111 ° 0 min 0,000 mm 0,0 UV-I 7 W/m² 0,8 °C 3,2 km/h (1 Bft)
03.11.2016 16:43 3,1 °C 3,1 °C 85 % 1021,5 hPa 0,0 mm 1,4 km/h (1 Bft) O-SO 111 ° 0 min 0,000 mm 0,0 UV-I 7 W/m² 0,8 °C 3,2 km/h (1 Bft)
03.11.2016 16:44 3,0 °C 3,1 °C 86 % 1021,5 hPa 0,0 mm 2,3 km/h (1 Bft) O-SO 111 ° 0 min 0,000 mm 0,0 UV-I 7 W/m² 0,9 °C 3,2 km/h (1 Bft)
03.11.2016 16:45 3,0 °C 3,0 °C 86 % 1021,5 hPa 0,0 mm 2,8 km/h (1 Bft) O-SO 119 ° 0 min 0,000 mm 0,0 UV-I 5 W/m² 0,9 °C 4,8 km/h (1 Bft)
03.11.2016 16:46 2,9 °C 3,0 °C 85 % 1021,5 hPa 0,0 mm 3,0 km/h (1 Bft) O-SO 119 ° 0 min 0,000 mm 0,0 UV-I 5 W/m² 0,6 °C 4,8 km/h (1 Bft)
03.11.2016 16:47 2,9 °C 2,9 °C 86 % 1021,5 hPa 0,0 mm 2,0 km/h (1 Bft) O-SO 119 ° 0 min 0,000 mm 0,0 UV-I 5 W/m² 0,8 °C 3,2 km/h (1 Bft)
03.11.2016 16:48 2,9 °C 2,9 °C 86 % 1021,5 hPa 0,0 mm 2,5 km/h (1 Bft) O-SO 119 ° 0 min 0,000 mm 0,0 UV-I 5 W/m² 0,8 °C 3,2 km/h (1 Bft)
03.11.2016 16:49 2,9 °C 2,9 °C 86 % 1021,5 hPa 0,0 mm 2,7 km/h (1 Bft) O-SO 119 ° 0 min 0,000 mm 0,0 UV-I 0 W/m² 0,8 °C 4,8 km/h (1 Bft)
03.11.2016 16:50 2,9 °C 2,9 °C 86 % 1021,5 hPa 0,0 mm 2,5 km/h (1 Bft) O-SO 119 ° 0 min 0,000 mm 0,0 UV-I 0 W/m² 0,8 °C 3,2 km/h (1 Bft)
03.11.2016 16:51 2,9 °C 2,9 °C 85 % 1021,4 hPa 0,0 mm 3,2 km/h (1 Bft) O-SO 119 ° 0 min 0,000 mm 0,0 UV-I 0 W/m² 0,6 °C 4,8 km/h (1 Bft)
03.11.2016 16:52 2,9 °C 2,9 °C 85 % 1021,4 hPa 0,0 mm 3,0 km/h (1 Bft) O-SO 119 ° 0 min 0,000 mm 0,0 UV-I 0 W/m² 0,6 °C 4,8 km/h (1 Bft)
03.11.2016 16:53 2,9 °C 2,9 °C 85 % 1021,5 hPa 0,0 mm 3,1 km/h (1 Bft) O-SO 119 ° 0 min 0,000 mm 0,0 UV-I 0 W/m² 0,6 °C 4,8 km/h (1 Bft)
03.11.2016 16:54 2,9 °C 2,9 °C 85 % 1021,5 hPa 0,0 mm 2,5 km/h (1 Bft) O-SO 119 ° 0 min 0,000 mm 0,0 UV-I 0 W/m² 0,6 °C 3,2 km/h (1 Bft)
03.11.2016 16:55 2,8 °C 2,9 °C 85 % 1021,4 hPa 0,0 mm 3,2 km/h (1 Bft) O-SO 119 ° 0 min 0,000 mm 0,0 UV-I 0 W/m² 0,5 °C 4,8 km/h (1 Bft)
03.11.2016 16:56 2,8 °C 2,8 °C 85 % 1021,5 hPa 0,0 mm 2,0 km/h (1 Bft) O-SO 119 ° 0 min 0,000 mm 0,0 UV-I 0 W/m² 0,5 °C 3,2 km/h (1 Bft)
03.11.2016 16:57 2,8 °C 2,9 °C 86 % 1021,5 hPa 0,0 mm 2,8 km/h (1 Bft) O-SO 119 ° 0 min 0,000 mm 0,0 UV-I 0 W/m² 0,7 °C 4,8 km/h (1 Bft)
03.11.2016 16:58 2,8 °C 2,8 °C 86 % 1021,5 hPa 0,0 mm 2,5 km/h (1 Bft) O-SO 119 ° 0 min 0,000 mm 0,0 UV-I 0 W/m² 0,7 °C 4,8 km/h (1 Bft)
03.11.2016 16:59 2,8 °C 2,8 °C 85 % 1021,4 hPa 0,0 mm 2,3 km/h (1 Bft) O-SO 119 ° 0 min 0,000 mm 0,0 UV-I 0 W/m² 0,5 °C 4,8 km/h (1 Bft)
03.11.2016 17:00 2,8 °C 2,8 °C 85 % 1021,4 hPa 0,0 mm 2,9 km/h (1 Bft) O-SO 119 ° 0 min 0,000 mm 0,0 UV-I 0 W/m² 0,5 °C 4,8 km/h (1 Bft)
03.11.2016 17:01 2,7 °C 2,8 °C 85 % 1021,4 hPa 0,0 mm 2,1 km/h (1 Bft) O-SO 119 ° 0 min 0,000 mm 0,0 UV-I 0 W/m² 0,4 °C 3,2 km/h (1 Bft)
03.11.2016 17:02 2,7 °C 2,7 °C 86 % 1021,4 hPa 0,0 mm 1,9 km/h (1 Bft) O-SO 119 ° 0 min 0,000 mm 0,0 UV-I 0 W/m² 0,6 °C 3,2 km/h (1 Bft)
03.11.2016 17:03 2,7 °C 2,7 °C 86 % 1021,4 hPa 0,0 mm 2,8 km/h (1 Bft) O-SO 119 ° 0 min 0,000 mm 0,0 UV-I 0 W/m² 0,6 °C 3,2 km/h (1 Bft)
03.11.2016 17:04 2,7 °C 2,7 °C 86 % 1021,3 hPa 0,0 mm 2,7 km/h (1 Bft) O-SO 119 ° 0 min 0,000 mm 0,0 UV-I 0 W/m² 0,6 °C 3,2 km/h (1 Bft)
03.11.2016 17:05 2,7 °C 2,7 °C 86 % 1021,3 hPa 0,0 mm 2,8 km/h (1 Bft) O-SO 119 ° 0 min 0,000 mm 0,0 UV-I 0 W/m² 0,6 °C 3,2 km/h (1 Bft)
03.11.2016 17:06 2,7 °C 2,7 °C 86 % 1021,3 hPa 0,0 mm 2,7 km/h (1 Bft) O-SO 119 ° 0 min 0,000 mm 0,0 UV-I 0 W/m² 0,6 °C 3,2 km/h (1 Bft)
03.11.2016 17:07 2,6 °C 2,7 °C 86 % 1021,3 hPa 0,0 mm 2,2 km/h (1 Bft) O-SO 119 ° 0 min 0,000 mm 0,0 UV-I 0 W/m² 0,5 °C 3,2 km/h (1 Bft)
03.11.2016 17:08 2,6 °C 2,6 °C 85 % 1021,3 hPa 0,0 mm 2,1 km/h (1 Bft) O-SO 119 ° 0 min 0,000 mm 0,0 UV-I 0 W/m² 0,3 °C 4,8 km/h (1 Bft)
03.11.2016 17:09 2,6 °C 2,6 °C 86 % 1021,3 hPa 0,0 mm 0,0 km/h (0 Bft) O-SO 119 ° 0 min 0,000 mm 0,0 UV-I 0 W/m² 0,5 °C 0,0 km/h (0 Bft)
03.11.2016 17:10 2,6 °C 2,6 °C 86 % 1021,3 hPa 0,0 mm 1,5 km/h (1 Bft) O-SO 119 ° 0 min 0,000 mm 0,0 UV-I 0 W/m² 0,5 °C 4,8 km/h (1 Bft)
03.11.2016 17:11 2,6 °C 2,6 °C 86 % 1021,3 hPa 0,0 mm 1,5 km/h (1 Bft) O-SO 119 ° 0 min 0,000 mm 0,0 UV-I 0 W/m² 0,5 °C 3,2 km/h (1 Bft)
03.11.2016 17:12 2,5 °C 2,6 °C 86 % 1021,3 hPa 0,0 mm 2,7 km/h (1 Bft) O-SO 119 ° 0 min 0,000 mm 0,0 UV-I 0 W/m² 0,4 °C 4,8 km/h (1 Bft)
03.11.2016 17:13 2,5 °C 2,5 °C 86 % 1021,3 hPa 0,0 mm 1,6 km/h (1 Bft) O-SO 119 ° 0 min 0,000 mm 0,0 UV-I 0 W/m² 0,4 °C 3,2 km/h (1 Bft)
03.11.2016 17:14 2,5 °C 2,5 °C 86 % 1021,3 hPa 0,0 mm 1,3 km/h (1 Bft) O-SO 119 ° 0 min 0,000 mm 0,0 UV-I 0 W/m² 0,4 °C 3,2 km/h (1 Bft)
03.11.2016 17:15 2,5 °C 2,5 °C 86 % 1021,3 hPa 0,0 mm 2,5 km/h (1 Bft) O-SO 119 ° 0 min 0,000 mm 0,0 UV-I 0 W/m² 0,4 °C 3,2 km/h (1 Bft)
03.11.2016 17:16 2,5 °C 2,5 °C 86 % 1021,3 hPa 0,0 mm 2,1 km/h (1 Bft) O-SO 118 ° 0 min 0,000 mm 0,0 UV-I 0 W/m² 0,4 °C 3,2 km/h (1 Bft)
03.11.2016 17:17 2,5 °C 2,5 °C 86 % 1021,4 hPa 0,0 mm 1,3 km/h (1 Bft) SO 132 ° 0 min 0,000 mm 0,0 UV-I 0 W/m² 0,4 °C 3,2 km/h (1 Bft)
03.11.2016 17:18 2,4 °C 2,5 °C 86 % 1021,4 hPa 0,0 mm 1,3 km/h (1 Bft) SO 132 ° 0 min 0,000 mm 0,0 UV-I 0 W/m² 0,3 °C 1,6 km/h (1 Bft)
03.11.2016 17:19 2,4 °C 2,5 °C 86 % 1021,4 hPa 0,0 mm 1,4 km/h (1 Bft) SO 132 ° 0 min 0,000 mm 0,0 UV-I 0 W/m² 0,3 °C 3,2 km/h (1 Bft)
03.11.2016 17:20 2,4 °C 2,4 °C 86 % 1021,4 hPa 0,0 mm 0,9 km/h (0 Bft) SO 132 ° 0 min 0,000 mm 0,0 UV-I 0 W/m² 0,3 °C 1,6 km/h (1 Bft)
03.11.2016 17:21 2,4 °C 2,4 °C 86 % 1021,3 hPa 0,0 mm 1,1 km/h (1 Bft) SO 132 ° 0 min 0,000 mm 0,0 UV-I 0 W/m² 0,3 °C 3,2 km/h (1 Bft)
03.11.2016 17:22 2,4 °C 2,4 °C 86 % 1021,4 hPa 0,0 mm 0,3 km/h (0 Bft) SO 132 ° 0 min 0,000 mm 0,0 UV-I 0 W/m² 0,3 °C 1,6 km/h (1 Bft)
03.11.2016 17:23 2,4 °C 2,4 °C 86 % 1021,4 hPa 0,0 mm 1,2 km/h (1 Bft) SO 132 ° 0 min 0,000 mm 0,0 UV-I 0 W/m² 0,3 °C 1,6 km/h (1 Bft)
03.11.2016 17:24 2,4 °C 2,4 °C 87 % 1021,4 hPa 0,0 mm 0,1 km/h (0 Bft) SO 132 ° 0 min 0,000 mm 0,0 UV-I 0 W/m² 0,5 °C 1,6 km/h (1 Bft)
03.11.2016 17:25 2,4 °C 2,4 °C 86 % 1021,4 hPa 0,0 mm 0,0 km/h (0 Bft) SO 132 ° 0 min 0,000 mm 0,0 UV-I 0 W/m² 0,3 °C 0,0 km/h (0 Bft)
03.11.2016 17:26 2,3 °C 2,4 °C 86 % 1021,4 hPa 0,0 mm 0,0 km/h (0 Bft) SO 132 ° 0 min 0,000 mm 0,0 UV-I 0 W/m² 0,2 °C 0,0 km/h (0 Bft)
03.11.2016 17:27 2,2 °C 2,3 °C 86 % 1021,5 hPa 0,0 mm 0,0 km/h (0 Bft) SO 132 ° 0 min 0,000 mm 0,0 UV-I 0 W/m² 0,1 °C 0,0 km/h (0 Bft)
03.11.2016 17:28 2,1 °C 2,2 °C 86 % 1021,4 hPa 0,0 mm 0,0 km/h (0 Bft) SO 132 ° 0 min 0,000 mm 0,0 UV-I 0 W/m² 0,0 °C 0,0 km/h (0 Bft)
03.11.2016 17:29 2,0 °C 2,1 °C 87 % 1021,5 hPa 0,0 mm 0,0 km/h (0 Bft) SO 132 ° 0 min 0,000 mm 0,0 UV-I 0 W/m² 0,1 °C 0,0 km/h (0 Bft)
03.11.2016 17:30 1,9 °C 2,0 °C 87 % 1021,4 hPa 0,0 mm 0,0 km/h (0 Bft) SO 132 ° 0 min 0,000 mm 0,0 UV-I 0 W/m² -0,0 °C 0,0 km/h (0 Bft)
03.11.2016 17:31 1,8 °C 1,9 °C 87 % 1021,4 hPa 0,0 mm 0,0 km/h (0 Bft) SO 132 ° 0 min 0,000 mm 0,0 UV-I 0 W/m² -0,1 °C 0,0 km/h (0 Bft)
03.11.2016 17:32 1,8 °C 1,9 °C 88 % 1021,4 hPa 0,0 mm 0,0 km/h (0 Bft) SO 132 ° 0 min 0,000 mm 0,0 UV-I 0 W/m² 0,0 °C 0,0 km/h (0 Bft)
03.11.2016 17:33 1,7 °C 1,8 °C 88 % 1021,4 hPa 0,0 mm 0,0 km/h (0 Bft) SO 132 ° 0 min 0,000 mm 0,0 UV-I 0 W/m² -0,1 °C 0,0 km/h (0 Bft)
03.11.2016 17:34 1,7 °C 1,7 °C 88 % 1021,5 hPa 0,0 mm 0,0 km/h (0 Bft) SO 132 ° 0 min 0,000 mm 0,0 UV-I 0 W/m² -0,1 °C 0,0 km/h (0 Bft)
03.11.2016 17:35 1,7 °C 1,7 °C 88 % 1021,4 hPa 0,0 mm 0,0 km/h (0 Bft) SO 132 ° 0 min 0,000 mm 0,0 UV-I 0 W/m² -0,1 °C 0,0 km/h (0 Bft)
03.11.2016 17:36 1,6 °C 1,7 °C 88 % 1021,5 hPa 0,0 mm 0,2 km/h (0 Bft) SO 132 ° 0 min 0,000 mm 0,0 UV-I 0 W/m² -0,2 °C 1,6 km/h (1 Bft)
03.11.2016 17:37 1,6 °C 1,6 °C 89 % 1021,4 hPa 0,0 mm 0,6 km/h (0 Bft) SO 132 ° 0 min 0,000 mm 0,0 UV-I 0 W/m² -0,0 °C 1,6 km/h (1 Bft)
03.11.2016 17:38 1,6 °C 1,6 °C 89 % 1021,4 hPa 0,0 mm 0,1 km/h (0 Bft) SO 132 ° 0 min 0,000 mm 0,0 UV-I 0 W/m² -0,0 °C 1,6 km/h (1 Bft)
03.11.2016 17:39 1,6 °C 1,6 °C 89 % 1021,5 hPa 0,0 mm 0,0 km/h (0 Bft) SO 132 ° 0 min 0,000 mm 0,0 UV-I 0 W/m² -0,0 °C 0,0 km/h (0 Bft)
03.11.2016 17:40 1,6 °C 1,6 °C 89 % 1021,4 hPa 0,0 mm 0,0 km/h (0 Bft) SO 132 ° 0 min 0,000 mm 0,0 UV-I 0 W/m² -0,0 °C 0,0 km/h (0 Bft)
03.11.2016 17:41 1,6 °C 1,6 °C 89 % 1021,5 hPa 0,0 mm 0,0 km/h (0 Bft) SO 132 ° 0 min 0,000 mm 0,0 UV-I 0 W/m² -0,0 °C 0,0 km/h (0 Bft)
03.11.2016 17:42 1,6 °C 1,6 °C 89 % 1021,5 hPa 0,0 mm 0,0 km/h (0 Bft) SO 132 ° 0 min 0,000 mm 0,0 UV-I 0 W/m² -0,0 °C 0,0 km/h (0 Bft)
03.11.2016 17:43 1,6 °C 1,6 °C 89 % 1021,5 hPa 0,0 mm 0,0 km/h (0 Bft) SO 132 ° 0 min 0,000 mm 0,0 UV-I 0 W/m² -0,0 °C 0,0 km/h (0 Bft)
03.11.2016 17:44 1,6 °C 1,7 °C 89 % 1021,5 hPa 0,0 mm 0,0 km/h (0 Bft) SO 132 ° 0 min 0,000 mm 0,0 UV-I 0 W/m² -0,0 °C 0,0 km/h (0 Bft)
03.11.2016 17:45 1,7 °C 1,7 °C 89 % 1021,4 hPa 0,0 mm 0,0 km/h (0 Bft) SO 132 ° 0 min 0,000 mm 0,0 UV-I 0 W/m² 0,1 °C 0,0 km/h (0 Bft)
03.11.2016 17:46 1,6 °C 1,7 °C 89 % 1021,5 hPa 0,0 mm 0,0 km/h (0 Bft) SO 132 ° 0 min 0,000 mm 0,0 UV-I 0 W/m² -0,0 °C 0,0 km/h (0 Bft)
03.11.2016 17:47 1,6 °C 1,6 °C 89 % 1021,6 hPa 0,0 mm 0,0 km/h (0 Bft) SO 132 ° 0 min 0,000 mm 0,0 UV-I 0 W/m² -0,0 °C 0,0 km/h (0 Bft)
03.11.2016 17:48 1,4 °C 1,6 °C 89 % 1021,6 hPa 0,0 mm 0,0 km/h (0 Bft) SO 132 ° 0 min 0,000 mm 0,0 UV-I 0 W/m² -0,2 °C 0,0 km/h (0 Bft)
03.11.2016 17:49 1,4 °C 1,4 °C 90 % 1021,6 hPa 0,0 mm 0,0 km/h (0 Bft) SO 132 ° 0 min 0,000 mm 0,0 UV-I 0 W/m² -0,1 °C 0,0 km/h (0 Bft)
03.11.2016 17:50 1,4 °C 1,4 °C 89 % 1021,6 hPa 0,0 mm 0,0 km/h (0 Bft) SO 132 ° 0 min 0,000 mm 0,0 UV-I 0 W/m² -0,2 °C 0,0 km/h (0 Bft)
03.11.2016 17:51 1,3 °C 1,4 °C 90 % 1021,6 hPa 0,0 mm 0,0 km/h (0 Bft) SO 132 ° 0 min 0,000 mm 0,0 UV-I 0 W/m² -0,2 °C 0,0 km/h (0 Bft)
03.11.2016 17:52 1,3 °C 1,3 °C 90 % 1021,6 hPa 0,0 mm 0,0 km/h (0 Bft) SO 132 ° 0 min 0,000 mm 0,0 UV-I 0 W/m² -0,2 °C 0,0 km/h (0 Bft)
03.11.2016 17:53 1,3 °C 1,3 °C 90 % 1021,6 hPa 0,0 mm 0,0 km/h (0 Bft) SO 132 ° 0 min 0,000 mm 0,0 UV-I 0 W/m² -0,2 °C 0,0 km/h (0 Bft)
03.11.2016 17:54 1,3 °C 1,3 °C 90 % 1021,6 hPa 0,0 mm 0,1 km/h (0 Bft) SO 132 ° 0 min 0,000 mm 0,0 UV-I 0 W/m² -0,2 °C 1,6 km/h (1 Bft)
03.11.2016 17:55 1,3 °C 1,3 °C 90 % 1021,6 hPa 0,0 mm 0,1 km/h (0 Bft) SO 132 ° 0 min 0,000 mm 0,0 UV-I 0 W/m² -0,2 °C 1,6 km/h (1 Bft)
03.11.2016 17:56 1,3 °C 1,3 °C 90 % 1021,5 hPa 0,0 mm 0,0 km/h (0 Bft) SO 132 ° 0 min 0,000 mm 0,0 UV-I 0 W/m² -0,2 °C 0,0 km/h (0 Bft)
03.11.2016 17:57 1,3 °C 1,3 °C 90 % 1021,5 hPa 0,0 mm 0,0 km/h (0 Bft) SO 132 ° 0 min 0,000 mm 0,0 UV-I 0 W/m² -0,2 °C 0,0 km/h (0 Bft)
03.11.2016 17:58 1,2 °C 1,3 °C 90 % 1021,5 hPa 0,0 mm 0,0 km/h (0 Bft) SO 132 ° 0 min 0,000 mm 0,0 UV-I 0 W/m² -0,3 °C 0,0 km/h (0 Bft)
03.11.2016 17:59 1,2 °C 1,3 °C 90 % 1021,5 hPa 0,0 mm 0,0 km/h (0 Bft) SO 132 ° 0 min 0,000 mm 0,0 UV-I 0 W/m² -0,3 °C 0,0 km/h (0 Bft)
03.11.2016 18:00 1,1 °C 1,2 °C 89 % 1021,6 hPa 0,0 mm 0,0 km/h (0 Bft) SO 132 ° 0 min 0,000 mm 0,0 UV-I 0 W/m² -0,5 °C 0,0 km/h (0 Bft)
03.11.2016 18:01 1,1 °C 1,1 °C 90 % 1021,6 hPa 0,0 mm 0,0 km/h (0 Bft) SO 132 ° 0 min 0,000 mm 0,0 UV-I 0 W/m² -0,4 °C 0,0 km/h (0 Bft)
03.11.2016 18:02 0,9 °C 1,1 °C 90 % 1021,6 hPa 0,0 mm 0,0 km/h (0 Bft) SO 132 ° 0 min 0,000 mm 0,0 UV-I 0 W/m² -0,6 °C 0,0 km/h (0 Bft)
03.11.2016 18:03 0,9 °C 0,9 °C 90 % 1021,6 hPa 0,0 mm 0,0 km/h (0 Bft) SO 132 ° 0 min 0,000 mm 0,0 UV-I 0 W/m² -0,6 °C 0,0 km/h (0 Bft)
03.11.2016 18:04 0,8 °C 0,9 °C 90 % 1021,6 hPa 0,0 mm 0,0 km/h (0 Bft) SO 132 ° 0 min 0,000 mm 0,0 UV-I 0 W/m² -0,6 °C 0,0 km/h (0 Bft)
03.11.2016 18:05 0,8 °C 0,8 °C 90 % 1021,6 hPa 0,0 mm 0,0 km/h (0 Bft) SO 132 ° 0 min 0,000 mm 0,0 UV-I 0 W/m² -0,6 °C 0,0 km/h (0 Bft)
03.11.2016 18:06 0,8 °C 0,8 °C 90 % 1021,6 hPa 0,0 mm 0,0 km/h (0 Bft) SO 132 ° 0 min 0,000 mm 0,0 UV-I 0 W/m² -0,6 °C 0,0 km/h (0 Bft)
03.11.2016 18:07 0,8 °C 0,8 °C 91 % 1021,7 hPa 0,0 mm 0,0 km/h (0 Bft) SO 132 ° 0 min 0,000 mm 0,0 UV-I 0 W/m² -0,5 °C 0,0 km/h (0 Bft)
03.11.2016 18:08 0,8 °C 0,8 °C 91 % 1021,6 hPa 0,0 mm 0,0 km/h (0 Bft) SO 132 ° 0 min 0,000 mm 0,0 UV-I 0 W/m² -0,5 °C 0,0 km/h (0 Bft)
03.11.2016 18:09 0,8 °C 0,8 °C 91 % 1021,6 hPa 0,0 mm 0,0 km/h (0 Bft) SO 132 ° 0 min 0,000 mm 0,0 UV-I 0 W/m² -0,5 °C 0,0 km/h (0 Bft)
03.11.2016 18:10 0,9 °C 0,9 °C 91 % 1021,5 hPa 0,0 mm 0,1 km/h (0 Bft) SO 132 ° 0 min 0,000 mm 0,0 UV-I 0 W/m² -0,4 °C 1,6 km/h (1 Bft)
03.11.2016 18:11 0,9 °C 0,9 °C 92 % 1021,5 hPa 0,0 mm 0,2 km/h (0 Bft) SO 132 ° 0 min 0,000 mm 0,0 UV-I 0 W/m² -0,2 °C 1,6 km/h (1 Bft)
03.11.2016 18:12 1,0 °C 1,0 °C 91 % 1021,5 hPa 0,0 mm 0,7 km/h (0 Bft) SO 132 ° 0 min 0,000 mm 0,0 UV-I 0 W/m² -0,3 °C 1,6 km/h (1 Bft)
03.11.2016 18:13 1,0 °C 1,1 °C 91 % 1021,5 hPa 0,0 mm 0,7 km/h (0 Bft) SO 132 ° 0 min 0,000 mm 0,0 UV-I 0 W/m² -0,3 °C 1,6 km/h (1 Bft)
03.11.2016 18:14 1,0 °C 1,1 °C 91 % 1021,5 hPa 0,0 mm 0,0 km/h (0 Bft) SO 132 ° 0 min 0,000 mm 0,0 UV-I 0 W/m² -0,3 °C 0,0 km/h (0 Bft)
03.11.2016 18:15 1,0 °C 1,1 °C 90 % 1021,6 hPa 0,0 mm 0,0 km/h (0 Bft) SO 132 ° 0 min 0,000 mm 0,0 UV-I 0 W/m² -0,5 °C 0,0 km/h (0 Bft)
03.11.2016 18:16 0,9 °C 1,0 °C 90 % 1021,6 hPa 0,0 mm 0,0 km/h (0 Bft) SO 132 ° 0 min 0,000 mm 0,0 UV-I 0 W/m² -0,6 °C 0,0 km/h (0 Bft)
03.11.2016 18:17 0,8 °C 0,9 °C 90 % 1021,6 hPa 0,0 mm 0,0 km/h (0 Bft) SO 132 ° 0 min 0,000 mm 0,0 UV-I 0 W/m² -0,6 °C 0,0 km/h (0 Bft)
03.11.2016 18:18 0,8 °C 0,8 °C 90 % 1021,6 hPa 0,0 mm 0,0 km/h (0 Bft) SO 132 ° 0 min 0,000 mm 0,0 UV-I 0 W/m² -0,6 °C 0,0 km/h (0 Bft)
03.11.2016 18:19 0,8 °C 0,8 °C 90 % 1021,6 hPa 0,0 mm 0,0 km/h (0 Bft) SO 132 ° 0 min 0,000 mm 0,0 UV-I 0 W/m² -0,6 °C 0,0 km/h (0 Bft)
03.11.2016 18:20 0,7 °C 0,8 °C 91 % 1021,6 hPa 0,0 mm 0,0 km/h (0 Bft) SO 132 ° 0 min 0,000 mm 0,0 UV-I 0 W/m² -0,6 °C 0,0 km/h (0 Bft)
03.11.2016 18:21 0,6 °C 0,7 °C 90 % 1021,7 hPa 0,0 mm 0,0 km/h (0 Bft) SO 132 ° 0 min 0,000 mm 0,0 UV-I 0 W/m² -0,8 °C 0,0 km/h (0 Bft)
03.11.2016 18:22 0,5 °C 0,6 °C 90 % 1021,7 hPa 0,0 mm 0,0 km/h (0 Bft) SO 132 ° 0 min 0,000 mm 0,0 UV-I 0 W/m² -0,9 °C 0,0 km/h (0 Bft)
03.11.2016 18:23 0,4 °C 0,5 °C 90 % 1021,6 hPa 0,0 mm 0,0 km/h (0 Bft) SO 132 ° 0 min 0,000 mm 0,0 UV-I 0 W/m² -1,0 °C 0,0 km/h (0 Bft)
03.11.2016 18:24 0,4 °C 0,5 °C 91 % 1021,6 hPa 0,0 mm 0,0 km/h (0 Bft) SO 132 ° 0 min 0,000 mm 0,0 UV-I 0 W/m² -0,9 °C 0,0 km/h (0 Bft)
03.11.2016 18:25 0,4 °C 0,4 °C 91 % 1021,6 hPa 0,0 mm 0,0 km/h (0 Bft) SO 132 ° 0 min 0,000 mm 0,0 UV-I 0 W/m² -0,9 °C 0,0 km/h (0 Bft)
03.11.2016 18:26 0,4 °C 0,4 °C 91 % 1021,6 hPa 0,0 mm 0,0 km/h (0 Bft) SO 132 ° 0 min 0,000 mm 0,0 UV-I 0 W/m² -0,9 °C 0,0 km/h (0 Bft)
03.11.2016 18:27 0,3 °C 0,4 °C 91 % 1021,6 hPa 0,0 mm 0,0 km/h (0 Bft) SO 132 ° 0 min 0,000 mm 0,0 UV-I 0 W/m² -1,0 °C 0,0 km/h (0 Bft)
03.11.2016 18:28 0,3 °C 0,3 °C 91 % 1021,6 hPa 0,0 mm 0,0 km/h (0 Bft) SO 132 ° 0 min 0,000 mm 0,0 UV-I 0 W/m² -1,0 °C 0,0 km/h (0 Bft)
03.11.2016 18:29 0,3 °C 0,3 °C 91 % 1021,6 hPa 0,0 mm 0,0 km/h (0 Bft) SO 132 ° 0 min 0,000 mm 0,0 UV-I 0 W/m² -1,0 °C 0,0 km/h (0 Bft)
03.11.2016 18:30 0,2 °C 0,3 °C 91 % 1021,6 hPa 0,0 mm 0,0 km/h (0 Bft) SO 132 ° 0 min 0,000 mm 0,0 UV-I 0 W/m² -1,1 °C 0,0 km/h (0 Bft)
03.11.2016 18:31 0,2 °C 0,2 °C 91 % 1021,6 hPa 0,0 mm 0,0 km/h (0 Bft) SO 132 ° 0 min 0,000 mm 0,0 UV-I 0 W/m² -1,1 °C 0,0 km/h (0 Bft)
03.11.2016 18:32 0,1 °C 0,2 °C 91 % 1021,6 hPa 0,0 mm 0,0 km/h (0 Bft) SO 132 ° 0 min 0,000 mm 0,0 UV-I 0 W/m² -1,2 °C 0,0 km/h (0 Bft)
03.11.2016 18:33 0,1 °C 0,2 °C 91 % 1021,6 hPa 0,0 mm 0,0 km/h (0 Bft) SO 132 ° 0 min 0,000 mm 0,0 UV-I 0 W/m² -1,2 °C 0,0 km/h (0 Bft)
03.11.2016 18:34 0,1 °C 0,1 °C 91 % 1021,6 hPa 0,0 mm 0,0 km/h (0 Bft) SO 132 ° 0 min 0,000 mm 0,0 UV-I 0 W/m² -1,2 °C 0,0 km/h (0 Bft)
03.11.2016 18:35 0,1 °C 0,1 °C 91 % 1021,6 hPa 0,0 mm 0,0 km/h (0 Bft) SO 132 ° 0 min 0,000 mm 0,0 UV-I 0 W/m² -1,2 °C 0,0 km/h (0 Bft)
03.11.2016 18:36 0,1 °C 0,1 °C 92 % 1021,6 hPa 0,0 mm 0,0 km/h (0 Bft) SO 132 ° 0 min 0,000 mm 0,0 UV-I 0 W/m² -1,0 °C 0,0 km/h (0 Bft)
03.11.2016 18:37 0,1 °C 0,1 °C 92 % 1021,7 hPa 0,0 mm 0,0 km/h (0 Bft) SO 132 ° 0 min 0,000 mm 0,0 UV-I 0 W/m² -1,0 °C 0,0 km/h (0 Bft)
03.11.2016 18:38 0,0 °C 0,1 °C 91 % 1021,6 hPa 0,0 mm 0,0 km/h (0 Bft) SO 132 ° 0 min 0,000 mm 0,0 UV-I 0 W/m² -1,3 °C 0,0 km/h (0 Bft)
03.11.2016 18:39 0,0 °C 0,1 °C 92 % 1021,6 hPa 0,0 mm 0,0 km/h (0 Bft) SO 132 ° 0 min 0,000 mm 0,0 UV-I 0 W/m² -1,1 °C 0,0 km/h (0 Bft)
03.11.2016 18:40 -0,1 °C 0,0 °C 92 % 1021,6 hPa 0,0 mm 0,0 km/h (0 Bft) SO 132 ° 0 min 0,000 mm 0,0 UV-I 0 W/m² -1,2 °C 0,0 km/h (0 Bft)
03.11.2016 18:41 -0,1 °C -0,1 °C 92 % 1021,6 hPa 0,0 mm 0,0 km/h (0 Bft) SO 132 ° 0 min 0,000 mm 0,0 UV-I 0 W/m² -1,2 °C 0,0 km/h (0 Bft)
03.11.2016 18:42 -0,1 °C -0,1 °C 92 % 1021,6 hPa 0,0 mm 0,0 km/h (0 Bft) SO 132 ° 0 min 0,000 mm 0,0 UV-I 0 W/m² -1,2 °C 0,0 km/h (0 Bft)
03.11.2016 18:43 -0,1 °C -0,1 °C 92 % 1021,6 hPa 0,0 mm 0,0 km/h (0 Bft) SO 132 ° 0 min 0,000 mm 0,0 UV-I 0 W/m² -1,2 °C 0,0 km/h (0 Bft)
03.11.2016 18:44 -0,1 °C -0,1 °C 92 % 1021,6 hPa 0,0 mm 0,0 km/h (0 Bft) SO 132 ° 0 min 0,000 mm 0,0 UV-I 0 W/m² -1,2 °C 0,0 km/h (0 Bft)
03.11.2016 18:45 -0,1 °C -0,1 °C 92 % 1021,6 hPa 0,0 mm 0,0 km/h (0 Bft) SO 132 ° 0 min 0,000 mm 0,0 UV-I 0 W/m² -1,2 °C 0,0 km/h (0 Bft)
03.11.2016 18:46 -0,1 °C -0,1 °C 92 % 1021,6 hPa 0,0 mm 0,0 km/h (0 Bft) SO 132 ° 0 min 0,000 mm 0,0 UV-I 0 W/m² -1,2 °C 0,0 km/h (0 Bft)
03.11.2016 18:47 -0,2 °C -0,1 °C 92 % 1021,7 hPa 0,0 mm 0,0 km/h (0 Bft) SO 132 ° 0 min 0,000 mm 0,0 UV-I 0 W/m² -1,3 °C 0,0 km/h (0 Bft)
03.11.2016 18:48 -0,2 °C -0,1 °C 92 % 1021,7 hPa 0,0 mm 0,0 km/h (0 Bft) SO 132 ° 0 min 0,000 mm 0,0 UV-I 0 W/m² -1,3 °C 0,0 km/h (0 Bft)
03.11.2016 18:49 -0,2 °C -0,1 °C 92 % 1021,7 hPa 0,0 mm 0,0 km/h (0 Bft) SO 132 ° 0 min 0,000 mm 0,0 UV-I 0 W/m² -1,3 °C 0,0 km/h (0 Bft)
03.11.2016 18:50 -0,2 °C -0,1 °C 92 % 1021,6 hPa 0,0 mm 0,0 km/h (0 Bft) SO 132 ° 0 min 0,000 mm 0,0 UV-I 0 W/m² -1,3 °C 0,0 km/h (0 Bft)
03.11.2016 18:51 -0,2 °C -0,1 °C 92 % 1021,6 hPa 0,0 mm 0,0 km/h (0 Bft) SO 132 ° 0 min 0,000 mm 0,0 UV-I 0 W/m² -1,3 °C 0,0 km/h (0 Bft)
03.11.2016 18:52 -0,1 °C -0,1 °C 92 % 1021,7 hPa 0,0 mm 0,0 km/h (0 Bft) SO 132 ° 0 min 0,000 mm 0,0 UV-I 0 W/m² -1,2 °C 0,0 km/h (0 Bft)
03.11.2016 18:53 -0,1 °C -0,1 °C 93 % 1021,6 hPa 0,0 mm 0,0 km/h (0 Bft) SO 132 ° 0 min 0,000 mm 0,0 UV-I 0 W/m² -1,1 °C 0,0 km/h (0 Bft)
03.11.2016 18:54 -0,1 °C -0,1 °C 92 % 1021,6 hPa 0,0 mm 0,0 km/h (0 Bft) SO 132 ° 0 min 0,000 mm 0,0 UV-I 0 W/m² -1,2 °C 0,0 km/h (0 Bft)
03.11.2016 18:55 -0,2 °C -0,1 °C 92 % 1021,7 hPa 0,0 mm 0,0 km/h (0 Bft) SO 132 ° 0 min 0,000 mm 0,0 UV-I 0 W/m² -1,3 °C 0,0 km/h (0 Bft)
03.11.2016 18:56 -0,2 °C -0,2 °C 92 % 1021,7 hPa 0,0 mm 0,0 km/h (0 Bft) SO 132 ° 0 min 0,000 mm 0,0 UV-I 0 W/m² -1,3 °C 0,0 km/h (0 Bft)
03.11.2016 18:57 -0,2 °C -0,2 °C 92 % 1021,7 hPa 0,0 mm 0,0 km/h (0 Bft) SO 132 ° 0 min 0,000 mm 0,0 UV-I 0 W/m² -1,3 °C 0,0 km/h (0 Bft)
03.11.2016 18:58 -0,2 °C -0,2 °C 92 % 1021,7 hPa 0,0 mm 0,0 km/h (0 Bft) SO 132 ° 0 min 0,000 mm 0,0 UV-I 0 W/m² -1,3 °C 0,0 km/h (0 Bft)
03.11.2016 18:59 -0,2 °C -0,2 °C 92 % 1021,6 hPa 0,0 mm 0,0 km/h (0 Bft) SO 132 ° 0 min 0,000 mm 0,0 UV-I 0 W/m² -1,3 °C 0,0 km/h (0 Bft)
03.11.2016 19:00 -0,2 °C -0,2 °C 93 % 1021,6 hPa 0,0 mm 0,0 km/h (0 Bft) SO 132 ° 0 min 0,000 mm 0,0 UV-I 0 W/m² -1,2 °C 0,0 km/h (0 Bft)
03.11.2016 19:01 -0,3 °C -0,2 °C 93 % 1021,6 hPa 0,0 mm 0,0 km/h (0 Bft) SO 132 ° 0 min 0,000 mm 0,0 UV-I 0 W/m² -1,3 °C 0,0 km/h (0 Bft)
03.11.2016 19:02 -0,3 °C -0,2 °C 92 % 1021,6 hPa 0,0 mm 0,0 km/h (0 Bft) SO 132 ° 0 min 0,000 mm 0,0 UV-I 0 W/m² -1,4 °C 0,0 km/h (0 Bft)
03.11.2016 19:03 -0,3 °C -0,3 °C 92 % 1021,6 hPa 0,0 mm 0,0 km/h (0 Bft) SO 132 ° 0 min 0,000 mm 0,0 UV-I 0 W/m² -1,4 °C 0,0 km/h (0 Bft)
03.11.2016 19:04 -0,3 °C -0,3 °C 92 % 1021,7 hPa 0,0 mm 0,0 km/h (0 Bft) SO 132 ° 0 min 0,000 mm 0,0 UV-I 0 W/m² -1,4 °C 0,0 km/h (0 Bft)
03.11.2016 19:05 -0,3 °C -0,3 °C 92 % 1021,6 hPa 0,0 mm 0,0 km/h (0 Bft) SO 132 ° 0 min 0,000 mm 0,0 UV-I 0 W/m² -1,4 °C 0,0 km/h (0 Bft)
03.11.2016 19:06 -0,4 °C -0,3 °C 93 % 1021,6 hPa 0,0 mm 0,0 km/h (0 Bft) SO 132 ° 0 min 0,000 mm 0,0 UV-I 0 W/m² -1,4 °C 0,0 km/h (0 Bft)
03.11.2016 19:07 -0,3 °C -0,3 °C 93 % 1021,6 hPa 0,0 mm 0,0 km/h (0 Bft) SO 132 ° 0 min 0,000 mm 0,0 UV-I 0 W/m² -1,3 °C 0,0 km/h (0 Bft)
03.11.2016 19:08 -0,3 °C -0,3 °C 93 % 1021,6 hPa 0,0 mm 0,0 km/h (0 Bft) SO 132 ° 0 min 0,000 mm 0,0 UV-I 0 W/m² -1,3 °C 0,0 km/h (0 Bft)
03.11.2016 19:09 -0,3 °C -0,3 °C 93 % 1021,6 hPa 0,0 mm 0,0 km/h (0 Bft) SO 132 ° 0 min 0,000 mm 0,0 UV-I 0 W/m² -1,3 °C 0,0 km/h (0 Bft)
03.11.2016 19:10 -0,3 °C -0,3 °C 93 % 1021,6 hPa 0,0 mm 0,0 km/h (0 Bft) SO 132 ° 0 min 0,000 mm 0,0 UV-I 0 W/m² -1,3 °C 0,0 km/h (0 Bft)
03.11.2016 19:11 -0,3 °C -0,3 °C 93 % 1021,6 hPa 0,0 mm 0,0 km/h (0 Bft) SO 132 ° 0 min 0,000 mm 0,0 UV-I 0 W/m² -1,3 °C 0,0 km/h (0 Bft)
03.11.2016 19:12 -0,3 °C -0,3 °C 93 % 1021,6 hPa 0,0 mm 0,0 km/h (0 Bft) SO 132 ° 0 min 0,000 mm 0,0 UV-I 0 W/m² -1,3 °C 0,0 km/h (0 Bft)
03.11.2016 19:13 -0,4 °C -0,3 °C 93 % 1021,6 hPa 0,0 mm 0,0 km/h (0 Bft) SO 132 ° 0 min 0,000 mm 0,0 UV-I 0 W/m² -1,4 °C 0,0 km/h (0 Bft)
03.11.2016 19:14 -0,4 °C -0,4 °C 93 % 1021,6 hPa 0,0 mm 0,0 km/h (0 Bft) SO 132 ° 0 min 0,000 mm 0,0 UV-I 0 W/m² -1,4 °C 0,0 km/h (0 Bft)
03.11.2016 19:15 -0,5 °C -0,4 °C 92 % 1021,6 hPa 0,0 mm 0,0 km/h (0 Bft) SO 132 ° 0 min 0,000 mm 0,0 UV-I 0 W/m² -1,6 °C 0,0 km/h (0 Bft)
03.11.2016 19:16 -0,5 °C -0,5 °C 93 % 1021,7 hPa 0,0 mm 0,0 km/h (0 Bft) SO 132 ° 0 min 0,000 mm 0,0 UV-I 0 W/m² -1,5 °C 0,0 km/h (0 Bft)
03.11.2016 19:17 -0,5 °C -0,5 °C 93 % 1021,6 hPa 0,0 mm 0,0 km/h (0 Bft) SO 132 ° 0 min 0,000 mm 0,0 UV-I 0 W/m² -1,5 °C 0,0 km/h (0 Bft)
03.11.2016 19:18 -0,6 °C -0,5 °C 93 % 1021,6 hPa 0,0 mm 0,0 km/h (0 Bft) SO 132 ° 0 min 0,000 mm 0,0 UV-I 0 W/m² -1,6 °C 0,0 km/h (0 Bft)
03.11.2016 19:19 -0,6 °C -0,6 °C 93 % 1021,6 hPa 0,0 mm 0,0 km/h (0 Bft) SO 132 ° 0 min 0,000 mm 0,0 UV-I 0 W/m² -1,6 °C 0,0 km/h (0 Bft)
03.11.2016 19:20 -0,6 °C -0,6 °C 93 % 1021,5 hPa 0,0 mm 0,0 km/h (0 Bft) SO 132 ° 0 min 0,000 mm 0,0 UV-I 0 W/m² -1,6 °C 0,0 km/h (0 Bft)
03.11.2016 19:21 -0,6 °C -0,5 °C 93 % 1021,5 hPa 0,0 mm 0,0 km/h (0 Bft) SO 132 ° 0 min 0,000 mm 0,0 UV-I 0 W/m² -1,6 °C 0,0 km/h (0 Bft)
03.11.2016 19:22 -0,6 °C -0,5 °C 93 % 1021,5 hPa 0,0 mm 0,0 km/h (0 Bft) SO 132 ° 0 min 0,000 mm 0,0 UV-I 0 W/m² -1,6 °C 0,0 km/h (0 Bft)
03.11.2016 19:23 -0,6 °C -0,5 °C 93 % 1021,5 hPa 0,0 mm 0,0 km/h (0 Bft) SO 132 ° 0 min 0,000 mm 0,0 UV-I 0 W/m² -1,6 °C 0,0 km/h (0 Bft)
03.11.2016 19:24 -0,6 °C -0,6 °C 93 % 1021,6 hPa 0,0 mm 0,0 km/h (0 Bft) SO 132 ° 0 min 0,000 mm 0,0 UV-I 0 W/m² -1,6 °C 0,0 km/h (0 Bft)
03.11.2016 19:25 -0,6 °C -0,6 °C 93 % 1021,6 hPa 0,0 mm 0,0 km/h (0 Bft) SO 132 ° 0 min 0,000 mm 0,0 UV-I 0 W/m² -1,6 °C 0,0 km/h (0 Bft)
03.11.2016 19:26 -0,6 °C -0,6 °C 93 % 1021,5 hPa 0,0 mm 0,0 km/h (0 Bft) SO 132 ° 0 min 0,000 mm 0,0 UV-I 0 W/m² -1,6 °C 0,0 km/h (0 Bft)
03.11.2016 19:27 -0,7 °C -0,6 °C 93 % 1021,5 hPa 0,0 mm 0,0 km/h (0 Bft) SO 132 ° 0 min 0,000 mm 0,0 UV-I 0 W/m² -1,7 °C 0,0 km/h (0 Bft)
03.11.2016 19:28 -0,7 °C -0,7 °C 93 % 1021,5 hPa 0,0 mm 0,0 km/h (0 Bft) SO 132 ° 0 min 0,000 mm 0,0 UV-I 0 W/m² -1,7 °C 0,0 km/h (0 Bft)
03.11.2016 19:29 -0,7 °C -0,7 °C 93 % 1021,5 hPa 0,0 mm 0,0 km/h (0 Bft) SO 132 ° 0 min 0,000 mm 0,0 UV-I 0 W/m² -1,7 °C 0,0 km/h (0 Bft)
03.11.2016 19:30 -0,7 °C -0,7 °C 93 % 1021,6 hPa 0,0 mm 0,0 km/h (0 Bft) SO 132 ° 0 min 0,000 mm 0,0 UV-I 0 W/m² -1,7 °C 0,0 km/h (0 Bft)
03.11.2016 19:31 -0,7 °C -0,7 °C 93 % 1021,5 hPa 0,0 mm 1,1 km/h (1 Bft) SO 132 ° 0 min 0,000 mm 0,0 UV-I 0 W/m² -1,7 °C 1,6 km/h (1 Bft)
03.11.2016 19:32 -0,6 °C -0,6 °C 93 % 1021,5 hPa 0,0 mm 0,8 km/h (0 Bft) SO 132 ° 0 min 0,000 mm 0,0 UV-I 0 W/m² -1,6 °C 1,6 km/h (1 Bft)
03.11.2016 19:33 -0,5 °C -0,5 °C 94 % 1021,5 hPa 0,0 mm 0,3 km/h (0 Bft) SO 132 ° 0 min 0,000 mm 0,0 UV-I 0 W/m² -1,3 °C 1,6 km/h (1 Bft)
03.11.2016 19:34 -0,4 °C -0,4 °C 94 % 1021,5 hPa 0,0 mm 0,0 km/h (0 Bft) SO 132 ° 0 min 0,000 mm 0,0 UV-I 0 W/m² -1,2 °C 0,0 km/h (0 Bft)
03.11.2016 19:35 -0,4 °C -0,3 °C 94 % 1021,5 hPa 0,0 mm 0,0 km/h (0 Bft) SO 132 ° 0 min 0,000 mm 0,0 UV-I 0 W/m² -1,2 °C 0,0 km/h (0 Bft)
03.11.2016 19:36 -0,4 °C -0,4 °C 93 % 1021,5 hPa 0,0 mm 0,0 km/h (0 Bft) SO 132 ° 0 min 0,000 mm 0,0 UV-I 0 W/m² -1,4 °C 0,0 km/h (0 Bft)
03.11.2016 19:37 -0,4 °C -0,4 °C 93 % 1021,5 hPa 0,0 mm 0,0 km/h (0 Bft) SO 132 ° 0 min 0,000 mm 0,0 UV-I 0 W/m² -1,4 °C 0,0 km/h (0 Bft)
03.11.2016 19:38 -0,4 °C -0,4 °C 93 % 1021,5 hPa 0,0 mm 0,0 km/h (0 Bft) SO 132 ° 0 min 0,000 mm 0,0 UV-I 0 W/m² -1,4 °C 0,0 km/h (0 Bft)
03.11.2016 19:39 -0,4 °C -0,4 °C 93 % 1021,5 hPa 0,0 mm 0,0 km/h (0 Bft) SO 132 ° 0 min 0,000 mm 0,0 UV-I 0 W/m² -1,4 °C 0,0 km/h (0 Bft)
03.11.2016 19:40 -0,4 °C -0,4 °C 93 % 1021,5 hPa 0,0 mm 0,0 km/h (0 Bft) SO 132 ° 0 min 0,000 mm 0,0 UV-I 0 W/m² -1,4 °C 0,0 km/h (0 Bft)
03.11.2016 19:41 -0,4 °C -0,4 °C 93 % 1021,5 hPa 0,0 mm 0,0 km/h (0 Bft) SO 132 ° 0 min 0,000 mm 0,0 UV-I 0 W/m² -1,4 °C 0,0 km/h (0 Bft)
03.11.2016 19:42 -0,4 °C -0,4 °C 93 % 1021,5 hPa 0,0 mm 0,0 km/h (0 Bft) SO 132 ° 0 min 0,000 mm 0,0 UV-I 0 W/m² -1,4 °C 0,0 km/h (0 Bft)
03.11.2016 19:43 -0,4 °C -0,4 °C 93 % 1021,5 hPa 0,0 mm 0,0 km/h (0 Bft) SO 132 ° 0 min 0,000 mm 0,0 UV-I 0 W/m² -1,4 °C 0,0 km/h (0 Bft)
03.11.2016 19:44 -0,4 °C -0,4 °C 93 % 1021,5 hPa 0,0 mm 0,0 km/h (0 Bft) SO 132 ° 0 min 0,000 mm 0,0 UV-I 0 W/m² -1,4 °C 0,0 km/h (0 Bft)
03.11.2016 19:45 -0,4 °C -0,4 °C 93 % 1021,5 hPa 0,0 mm 0,0 km/h (0 Bft) SO 132 ° 0 min 0,000 mm 0,0 UV-I 0 W/m² -1,4 °C 0,0 km/h (0 Bft)
03.11.2016 19:46 -0,5 °C -0,4 °C 92 % 1021,5 hPa 0,0 mm 0,0 km/h (0 Bft) SO 132 ° 0 min 0,000 mm 0,0 UV-I 0 W/m² -1,6 °C 0,0 km/h (0 Bft)
03.11.2016 19:47 -0,6 °C -0,5 °C 92 % 1021,5 hPa 0,0 mm 0,0 km/h (0 Bft) SO 132 ° 0 min 0,000 mm 0,0 UV-I 0 W/m² -1,7 °C 0,0 km/h (0 Bft)
03.11.2016 19:48 -0,6 °C -0,6 °C 92 % 1021,5 hPa 0,0 mm 0,0 km/h (0 Bft) SO 132 ° 0 min 0,000 mm 0,0 UV-I 0 W/m² -1,7 °C 0,0 km/h (0 Bft)
03.11.2016 19:49 -0,7 °C -0,6 °C 92 % 1021,5 hPa 0,0 mm 0,0 km/h (0 Bft) SO 132 ° 0 min 0,000 mm 0,0 UV-I 0 W/m² -1,8 °C 0,0 km/h (0 Bft)
03.11.2016 19:50 -0,7 °C -0,7 °C 92 % 1021,6 hPa 0,0 mm 0,0 km/h (0 Bft) SO 132 ° 0 min 0,000 mm 0,0 UV-I 0 W/m² -1,8 °C 0,0 km/h (0 Bft)
03.11.2016 19:51 -0,7 °C -0,7 °C 92 % 1021,6 hPa 0,0 mm 0,2 km/h (0 Bft) SO 132 ° 0 min 0,000 mm 0,0 UV-I 0 W/m² -1,8 °C 1,6 km/h (1 Bft)
03.11.2016 19:52 -0,7 °C -0,7 °C 93 % 1021,5 hPa 0,0 mm 0,2 km/h (0 Bft) SO 132 ° 0 min 0,000 mm 0,0 UV-I 0 W/m² -1,7 °C 1,6 km/h (1 Bft)
03.11.2016 19:53 -0,6 °C -0,6 °C 93 % 1021,5 hPa 0,0 mm 0,0 km/h (0 Bft) SO 132 ° 0 min 0,000 mm 0,0 UV-I 0 W/m² -1,6 °C 0,0 km/h (0 Bft)
03.11.2016 19:54 -0,6 °C -0,6 °C 93 % 1021,5 hPa 0,0 mm 0,5 km/h (0 Bft) SO 132 ° 0 min 0,000 mm 0,0 UV-I 0 W/m² -1,6 °C 1,6 km/h (1 Bft)
03.11.2016 19:55 -0,7 °C -0,6 °C 93 % 1021,6 hPa 0,0 mm 0,0 km/h (0 Bft) SO 132 ° 0 min 0,000 mm 0,0 UV-I 0 W/m² -1,7 °C 0,0 km/h (0 Bft)
03.11.2016 19:56 -0,7 °C -0,7 °C 92 % 1021,5 hPa 0,0 mm 0,0 km/h (0 Bft) SO 132 ° 0 min 0,000 mm 0,0 UV-I 0 W/m² -1,8 °C 0,0 km/h (0 Bft)
03.11.2016 19:57 -0,7 °C -0,7 °C 92 % 1021,5 hPa 0,0 mm 0,3 km/h (0 Bft) SO 132 ° 0 min 0,000 mm 0,0 UV-I 0 W/m² -1,8 °C 1,6 km/h (1 Bft)
03.11.2016 19:58 -0,8 °C -0,7 °C 92 % 1021,5 hPa 0,0 mm 0,7 km/h (0 Bft) SO 132 ° 0 min 0,000 mm 0,0 UV-I 0 W/m² -1,9 °C 1,6 km/h (1 Bft)
03.11.2016 19:59 -0,7 °C -0,7 °C 93 % 1021,5 hPa 0,0 mm 0,2 km/h (0 Bft) SO 132 ° 0 min 0,000 mm 0,0 UV-I 0 W/m² -1,7 °C 1,6 km/h (1 Bft)
03.11.2016 20:00 -0,7 °C -0,7 °C 93 % 1021,6 hPa 0,0 mm 0,0 km/h (0 Bft) SO 132 ° 0 min 0,000 mm 0,0 UV-I 0 W/m² -1,7 °C 0,0 km/h (0 Bft)
03.11.2016 20:01 -0,7 °C -0,6 °C 93 % 1021,6 hPa 0,0 mm 0,0 km/h (0 Bft) SO 132 ° 0 min 0,000 mm 0,0 UV-I 0 W/m² -1,7 °C 0,0 km/h (0 Bft)
03.11.2016 20:02 -0,7 °C -0,7 °C 93 % 1021,6 hPa 0,0 mm 0,1 km/h (0 Bft) SO 132 ° 0 min 0,000 mm 0,0 UV-I 0 W/m² -1,7 °C 1,6 km/h (1 Bft)
03.11.2016 20:03 -0,8 °C -0,7 °C 93 % 1021,6 hPa 0,0 mm 0,0 km/h (0 Bft) SO 132 ° 0 min 0,000 mm 0,0 UV-I 0 W/m² -1,8 °C 0,0 km/h (0 Bft)
03.11.2016 20:04 -0,8 °C -0,8 °C 93 % 1021,6 hPa 0,0 mm 0,0 km/h (0 Bft) SO 132 ° 0 min 0,000 mm 0,0 UV-I 0 W/m² -1,8 °C 0,0 km/h (0 Bft)
03.11.2016 20:05 -0,8 °C -0,8 °C 93 % 1021,5 hPa 0,0 mm 0,0 km/h (0 Bft) SO 132 ° 0 min 0,000 mm 0,0 UV-I 0 W/m² -1,8 °C 0,0 km/h (0 Bft)
03.11.2016 20:06 -0,8 °C -0,8 °C 93 % 1021,6 hPa 0,0 mm 0,0 km/h (0 Bft) SO 132 ° 0 min 0,000 mm 0,0 UV-I 0 W/m² -1,8 °C 0,0 km/h (0 Bft)
03.11.2016 20:07 -0,7 °C -0,7 °C 93 % 1021,6 hPa 0,0 mm 0,0 km/h (0 Bft) SO 132 ° 0 min 0,000 mm 0,0 UV-I 0 W/m² -1,7 °C 0,0 km/h (0 Bft)
03.11.2016 20:08 -0,7 °C -0,7 °C 93 % 1021,6 hPa 0,0 mm 0,0 km/h (0 Bft) SO 132 ° 0 min 0,000 mm 0,0 UV-I 0 W/m² -1,7 °C 0,0 km/h (0 Bft)
03.11.2016 20:09 -0,7 °C -0,7 °C 93 % 1021,6 hPa 0,0 mm 0,0 km/h (0 Bft) SO 132 ° 0 min 0,000 mm 0,0 UV-I 0 W/m² -1,7 °C 0,0 km/h (0 Bft)
03.11.2016 20:10 -0,7 °C -0,7 °C 93 % 1021,6 hPa 0,0 mm 0,0 km/h (0 Bft) SO 132 ° 0 min 0,000 mm 0,0 UV-I 0 W/m² -1,7 °C 0,0 km/h (0 Bft)
03.11.2016 20:11 -0,7 °C -0,7 °C 93 % 1021,6 hPa 0,0 mm 0,0 km/h (0 Bft) SO 132 ° 0 min 0,000 mm 0,0 UV-I 0 W/m² -1,7 °C 0,0 km/h (0 Bft)
03.11.2016 20:12 -0,7 °C -0,7 °C 93 % 1021,6 hPa 0,0 mm 0,0 km/h (0 Bft) SO 132 ° 0 min 0,000 mm 0,0 UV-I 0 W/m² -1,7 °C 0,0 km/h (0 Bft)
03.11.2016 20:13 -0,7 °C -0,7 °C 93 % 1021,7 hPa 0,0 mm 0,0 km/h (0 Bft) SO 132 ° 0 min 0,000 mm 0,0 UV-I 0 W/m² -1,7 °C 0,0 km/h (0 Bft)
03.11.2016 20:14 -0,7 °C -0,7 °C 93 % 1021,6 hPa 0,0 mm 0,7 km/h (0 Bft) SO 132 ° 0 min 0,000 mm 0,0 UV-I 0 W/m² -1,7 °C 3,2 km/h (1 Bft)
03.11.2016 20:15 -0,8 °C -0,7 °C 93 % 1021,6 hPa 0,0 mm 1,4 km/h (1 Bft) SO 132 ° 0 min 0,000 mm 0,0 UV-I 0 W/m² -1,8 °C 3,2 km/h (1 Bft)
03.11.2016 20:16 -0,8 °C -0,7 °C 93 % 1021,6 hPa 0,0 mm 1,0 km/h (0 Bft) SO 132 ° 0 min 0,000 mm 0,0 UV-I 0 W/m² -1,8 °C 3,2 km/h (1 Bft)
03.11.2016 20:17 -0,8 °C -0,8 °C 93 % 1021,6 hPa 0,0 mm 0,4 km/h (0 Bft) SO 132 ° 0 min 0,000 mm 0,0 UV-I 0 W/m² -1,8 °C 1,6 km/h (1 Bft)
03.11.2016 20:18 -0,8 °C -0,8 °C 93 % 1021,6 hPa 0,0 mm 1,4 km/h (1 Bft) SO 132 ° 0 min 0,000 mm 0,0 UV-I 0 W/m² -1,8 °C 3,2 km/h (1 Bft)
03.11.2016 20:19 -0,7 °C -0,7 °C 93 % 1021,6 hPa 0,0 mm 2,2 km/h (1 Bft) SO 132 ° 0 min 0,000 mm 0,0 UV-I 0 W/m² -1,7 °C 3,2 km/h (1 Bft)
03.11.2016 20:20 -0,7 °C -0,7 °C 93 % 1021,7 hPa 0,0 mm 2,1 km/h (1 Bft) SO 132 ° 0 min 0,000 mm 0,0 UV-I 0 W/m² -1,7 °C 3,2 km/h (1 Bft)
03.11.2016 20:21 -0,7 °C -0,7 °C 93 % 1021,6 hPa 0,0 mm 0,6 km/h (0 Bft) SO 132 ° 0 min 0,000 mm 0,0 UV-I 0 W/m² -1,7 °C 1,6 km/h (1 Bft)
03.11.2016 20:22 -0,6 °C -0,6 °C 93 % 1021,6 hPa 0,0 mm 0,3 km/h (0 Bft) SO 132 ° 0 min 0,000 mm 0,0 UV-I 0 W/m² -1,6 °C 1,6 km/h (1 Bft)
03.11.2016 20:23 -0,5 °C -0,5 °C 94 % 1021,6 hPa 0,0 mm 0,0 km/h (0 Bft) SO 132 ° 0 min 0,000 mm 0,0 UV-I 0 W/m² -1,3 °C 0,0 km/h (0 Bft)
03.11.2016 20:24 -0,5 °C -0,5 °C 94 % 1021,6 hPa 0,0 mm 0,0 km/h (0 Bft) SO 132 ° 0 min 0,000 mm 0,0 UV-I 0 W/m² -1,3 °C 0,0 km/h (0 Bft)
03.11.2016 20:25 -0,6 °C -0,5 °C 93 % 1021,6 hPa 0,0 mm 0,0 km/h (0 Bft) SO 132 ° 0 min 0,000 mm 0,0 UV-I 0 W/m² -1,6 °C 0,0 km/h (0 Bft)
03.11.2016 20:26 -0,6 °C -0,6 °C 93 % 1021,6 hPa 0,0 mm 0,0 km/h (0 Bft) SO 132 ° 0 min 0,000 mm 0,0 UV-I 0 W/m² -1,6 °C 0,0 km/h (0 Bft)
03.11.2016 20:27 -0,7 °C -0,6 °C 93 % 1021,5 hPa 0,0 mm 0,0 km/h (0 Bft) SO 132 ° 0 min 0,000 mm 0,0 UV-I 0 W/m² -1,7 °C 0,0 km/h (0 Bft)
03.11.2016 20:28 -0,7 °C -0,7 °C 93 % 1021,6 hPa 0,0 mm 0,0 km/h (0 Bft) SO 132 ° 0 min 0,000 mm 0,0 UV-I 0 W/m² -1,7 °C 0,0 km/h (0 Bft)
03.11.2016 20:29 -0,7 °C -0,7 °C 93 % 1021,6 hPa 0,0 mm 0,0 km/h (0 Bft) SO 132 ° 0 min 0,000 mm 0,0 UV-I 0 W/m² -1,7 °C 0,0 km/h (0 Bft)
03.11.2016 20:30 -0,7 °C -0,7 °C 93 % 1021,6 hPa 0,0 mm 0,0 km/h (0 Bft) SO 132 ° 0 min 0,000 mm 0,0 UV-I 0 W/m² -1,7 °C 0,0 km/h (0 Bft)
03.11.2016 20:31 -0,7 °C -0,7 °C 93 % 1021,6 hPa 0,0 mm 0,0 km/h (0 Bft) SO 132 ° 0 min 0,000 mm 0,0 UV-I 0 W/m² -1,7 °C 0,0 km/h (0 Bft)
03.11.2016 20:32 -0,7 °C -0,7 °C 93 % 1021,6 hPa 0,0 mm 0,0 km/h (0 Bft) SO 132 ° 0 min 0,000 mm 0,0 UV-I 0 W/m² -1,7 °C 0,0 km/h (0 Bft)
03.11.2016 20:33 -0,7 °C -0,7 °C 93 % 1021,6 hPa 0,0 mm 0,0 km/h (0 Bft) SO 132 ° 0 min 0,000 mm 0,0 UV-I 0 W/m² -1,7 °C 0,0 km/h (0 Bft)
03.11.2016 20:34 -0,7 °C -0,7 °C 93 % 1021,6 hPa 0,0 mm 0,0 km/h (0 Bft) SO 132 ° 0 min 0,000 mm 0,0 UV-I 0 W/m² -1,7 °C 0,0 km/h (0 Bft)
03.11.2016 20:35 -0,7 °C -0,7 °C 93 % 1021,6 hPa 0,0 mm 0,0 km/h (0 Bft) SO 132 ° 0 min 0,000 mm 0,0 UV-I 0 W/m² -1,7 °C 0,0 km/h (0 Bft)
03.11.2016 20:36 -0,8 °C -0,7 °C 93 % 1021,5 hPa 0,0 mm 0,0 km/h (0 Bft) SO 132 ° 0 min 0,000 mm 0,0 UV-I 0 W/m² -1,8 °C 0,0 km/h (0 Bft)
03.11.2016 20:37 -0,8 °C -0,8 °C 93 % 1021,5 hPa 0,0 mm 0,0 km/h (0 Bft) SO 132 ° 0 min 0,000 mm 0,0 UV-I 0 W/m² -1,8 °C 0,0 km/h (0 Bft)
03.11.2016 20:38 -0,9 °C -0,8 °C 93 % 1021,6 hPa 0,0 mm 0,0 km/h (0 Bft) SO 132 ° 0 min 0,000 mm 0,0 UV-I 0 W/m² -1,9 °C 0,0 km/h (0 Bft)
03.11.2016 20:39 -0,9 °C -0,9 °C 93 % 1021,5 hPa 0,0 mm 0,0 km/h (0 Bft) SO 132 ° 0 min 0,000 mm 0,0 UV-I 0 W/m² -1,9 °C 0,0 km/h (0 Bft)
03.11.2016 20:40 -1,0 °C -0,9 °C 93 % 1021,5 hPa 0,0 mm 0,0 km/h (0 Bft) SO 132 ° 0 min 0,000 mm 0,0 UV-I 0 W/m² -2,0 °C 0,0 km/h (0 Bft)
03.11.2016 20:41 -1,0 °C -1,0 °C 93 % 1021,5 hPa 0,0 mm 0,0 km/h (0 Bft) SO 132 ° 0 min 0,000 mm 0,0 UV-I 0 W/m² -2,0 °C 0,0 km/h (0 Bft)
03.11.2016 20:42 -0,9 °C -0,9 °C 93 % 1021,5 hPa 0,0 mm 0,0 km/h (0 Bft) SO 132 ° 0 min 0,000 mm 0,0 UV-I 0 W/m² -1,9 °C 0,0 km/h (0 Bft)
03.11.2016 20:43 -0,9 °C -0,9 °C 93 % 1021,5 hPa 0,0 mm 0,0 km/h (0 Bft) SO 132 ° 0 min 0,000 mm 0,0 UV-I 0 W/m² -1,9 °C 0,0 km/h (0 Bft)
03.11.2016 20:44 -0,9 °C -0,9 °C 94 % 1021,5 hPa 0,0 mm 0,0 km/h (0 Bft) SO 132 ° 0 min 0,000 mm 0,0 UV-I 0 W/m² -1,7 °C 0,0 km/h (0 Bft)
03.11.2016 20:45 -0,9 °C -0,9 °C 93 % 1021,5 hPa 0,0 mm 0,0 km/h (0 Bft) SO 132 ° 0 min 0,000 mm 0,0 UV-I 0 W/m² -1,9 °C 0,0 km/h (0 Bft)
03.11.2016 20:46 -0,9 °C -0,9 °C 93 % 1021,5 hPa 0,0 mm 0,0 km/h (0 Bft) SO 132 ° 0 min 0,000 mm 0,0 UV-I 0 W/m² -1,9 °C 0,0 km/h (0 Bft)
03.11.2016 20:47 -0,9 °C -0,9 °C 93 % 1021,5 hPa 0,0 mm 0,0 km/h (0 Bft) SO 132 ° 0 min 0,000 mm 0,0 UV-I 0 W/m² -1,9 °C 0,0 km/h (0 Bft)
03.11.2016 20:48 -0,9 °C -0,9 °C 93 % 1021,5 hPa 0,0 mm 0,0 km/h (0 Bft) SO 132 ° 0 min 0,000 mm 0,0 UV-I 0 W/m² -1,9 °C 0,0 km/h (0 Bft)
03.11.2016 20:49 -0,9 °C -0,9 °C 93 % 1021,5 hPa 0,0 mm 0,0 km/h (0 Bft) SO 132 ° 0 min 0,000 mm 0,0 UV-I 0 W/m² -1,9 °C 0,0 km/h (0 Bft)
03.11.2016 20:50 -0,9 °C -0,9 °C 94 % 1021,5 hPa 0,0 mm 0,0 km/h (0 Bft) SO 132 ° 0 min 0,000 mm 0,0 UV-I 0 W/m² -1,7 °C 0,0 km/h (0 Bft)
03.11.2016 20:51 -0,8 °C -0,8 °C 94 % 1021,5 hPa 0,0 mm 0,0 km/h (0 Bft) SO 132 ° 0 min 0,000 mm 0,0 UV-I 0 W/m² -1,6 °C 0,0 km/h (0 Bft)
03.11.2016 20:52 -0,8 °C -0,8 °C 94 % 1021,5 hPa 0,0 mm 0,5 km/h (0 Bft) SO 132 ° 0 min 0,000 mm 0,0 UV-I 0 W/m² -1,6 °C 3,2 km/h (1 Bft)
03.11.2016 20:53 -0,8 °C -0,8 °C 94 % 1021,5 hPa 0,0 mm 2,0 km/h (1 Bft) SO 132 ° 0 min 0,000 mm 0,0 UV-I 0 W/m² -1,6 °C 3,2 km/h (1 Bft)
03.11.2016 20:54 -0,8 °C -0,8 °C 94 % 1021,6 hPa 0,0 mm 0,8 km/h (0 Bft) SO 132 ° 0 min 0,000 mm 0,0 UV-I 0 W/m² -1,6 °C 3,2 km/h (1 Bft)
03.11.2016 20:55 -0,8 °C -0,8 °C 94 % 1021,5 hPa 0,0 mm 2,0 km/h (1 Bft) SO 132 ° 0 min 0,000 mm 0,0 UV-I 0 W/m² -1,6 °C 3,2 km/h (1 Bft)
03.11.2016 20:56 -0,8 °C -0,8 °C 94 % 1021,6 hPa 0,0 mm 2,7 km/h (1 Bft) SO 132 ° 0 min 0,000 mm 0,0 UV-I 0 W/m² -1,6 °C 3,2 km/h (1 Bft)
03.11.2016 20:57 -0,8 °C -0,8 °C 94 % 1021,5 hPa 0,0 mm 2,1 km/h (1 Bft) SO 132 ° 0 min 0,000 mm 0,0 UV-I 0 W/m² -1,6 °C 4,8 km/h (1 Bft)
03.11.2016 20:58 -0,8 °C -0,8 °C 94 % 1021,5 hPa 0,0 mm 2,0 km/h (1 Bft) SO 132 ° 0 min 0,000 mm 0,0 UV-I 0 W/m² -1,6 °C 3,2 km/h (1 Bft)
03.11.2016 20:59 -0,8 °C -0,8 °C 94 % 1021,6 hPa 0,0 mm 2,1 km/h (1 Bft) SO 132 ° 0 min 0,000 mm 0,0 UV-I 0 W/m² -1,6 °C 3,2 km/h (1 Bft)
03.11.2016 21:00 -0,8 °C -0,8 °C 93 % 1021,6 hPa 0,0 mm 0,9 km/h (0 Bft) SO 132 ° 0 min 0,000 mm 0,0 UV-I 0 W/m² -1,8 °C 3,2 km/h (1 Bft)
03.11.2016 21:01 -0,8 °C -0,8 °C 94 % 1021,6 hPa 0,0 mm 2,8 km/h (1 Bft) SO 132 ° 0 min 0,000 mm 0,0 UV-I 0 W/m² -1,6 °C 4,8 km/h (1 Bft)
03.11.2016 21:02 -0,8 °C -0,8 °C 93 % 1021,6 hPa 0,0 mm 0,7 km/h (0 Bft) SO 132 ° 0 min 0,000 mm 0,0 UV-I 0 W/m² -1,8 °C 3,2 km/h (1 Bft)
03.11.2016 21:03 -0,8 °C -0,8 °C 94 % 1021,6 hPa 0,0 mm 0,6 km/h (0 Bft) SO 132 ° 0 min 0,000 mm 0,0 UV-I 0 W/m² -1,6 °C 1,6 km/h (1 Bft)
03.11.2016 21:04 -0,8 °C -0,8 °C 94 % 1021,6 hPa 0,0 mm 0,2 km/h (0 Bft) SO 132 ° 0 min 0,000 mm 0,0 UV-I 0 W/m² -1,6 °C 1,6 km/h (1 Bft)
03.11.2016 21:05 -0,8 °C -0,8 °C 94 % 1021,6 hPa 0,0 mm 0,0 km/h (0 Bft) SO 132 ° 0 min 0,000 mm 0,0 UV-I 0 W/m² -1,6 °C 0,0 km/h (0 Bft)
03.11.2016 21:06 -0,8 °C -0,8 °C 94 % 1021,6 hPa 0,0 mm 0,0 km/h (0 Bft) SO 132 ° 0 min 0,000 mm 0,0 UV-I 0 W/m² -1,6 °C 0,0 km/h (0 Bft)
03.11.2016 21:07 -0,8 °C -0,8 °C 94 % 1021,6 hPa 0,0 mm 0,0 km/h (0 Bft) SO 132 ° 0 min 0,000 mm 0,0 UV-I 0 W/m² -1,6 °C 0,0 km/h (0 Bft)
03.11.2016 21:08 -0,8 °C -0,8 °C 93 % 1021,6 hPa 0,0 mm 0,0 km/h (0 Bft) SO 132 ° 0 min 0,000 mm 0,0 UV-I 0 W/m² -1,8 °C 0,0 km/h (0 Bft)
03.11.2016 21:09 -0,8 °C -0,8 °C 93 % 1021,6 hPa 0,0 mm 0,0 km/h (0 Bft) SO 132 ° 0 min 0,000 mm 0,0 UV-I 0 W/m² -1,8 °C 0,0 km/h (0 Bft)
03.11.2016 21:10 -0,8 °C -0,8 °C 93 % 1021,6 hPa 0,0 mm 0,0 km/h (0 Bft) SO 132 ° 0 min 0,000 mm 0,0 UV-I 0 W/m² -1,8 °C 0,0 km/h (0 Bft)
03.11.2016 21:11 -0,8 °C -0,8 °C 93 % 1021,7 hPa 0,0 mm 0,0 km/h (0 Bft) SO 132 ° 0 min 0,000 mm 0,0 UV-I 0 W/m² -1,8 °C 0,0 km/h (0 Bft)
03.11.2016 21:12 -0,8 °C -0,8 °C 93 % 1021,7 hPa 0,0 mm 0,0 km/h (0 Bft) SO 132 ° 0 min 0,000 mm 0,0 UV-I 0 W/m² -1,8 °C 0,0 km/h (0 Bft)
03.11.2016 21:13 -0,8 °C -0,8 °C 93 % 1021,7 hPa 0,0 mm 0,0 km/h (0 Bft) SO 132 ° 0 min 0,000 mm 0,0 UV-I 0 W/m² -1,8 °C 0,0 km/h (0 Bft)
03.11.2016 21:14 -0,8 °C -0,8 °C 93 % 1021,7 hPa 0,0 mm 0,0 km/h (0 Bft) SO 132 ° 0 min 0,000 mm 0,0 UV-I 0 W/m² -1,8 °C 0,0 km/h (0 Bft)
03.11.2016 21:15 -0,8 °C -0,8 °C 93 % 1021,7 hPa 0,0 mm 0,0 km/h (0 Bft) SO 132 ° 0 min 0,000 mm 0,0 UV-I 0 W/m² -1,8 °C 0,0 km/h (0 Bft)
03.11.2016 21:16 -0,9 °C -0,8 °C 93 % 1021,7 hPa 0,0 mm 0,0 km/h (0 Bft) SO 132 ° 0 min 0,000 mm 0,0 UV-I 0 W/m² -1,9 °C 0,0 km/h (0 Bft)
03.11.2016 21:17 -0,9 °C -0,9 °C 93 % 1021,7 hPa 0,0 mm 0,0 km/h (0 Bft) SO 132 ° 0 min 0,000 mm 0,0 UV-I 0 W/m² -1,9 °C 0,0 km/h (0 Bft)
03.11.2016 21:18 -0,9 °C -0,9 °C 93 % 1021,7 hPa 0,0 mm 0,0 km/h (0 Bft) SO 132 ° 0 min 0,000 mm 0,0 UV-I 0 W/m² -1,9 °C 0,0 km/h (0 Bft)
03.11.2016 21:19 -0,9 °C -0,9 °C 93 % 1021,7 hPa 0,0 mm 0,0 km/h (0 Bft) SO 132 ° 0 min 0,000 mm 0,0 UV-I 0 W/m² -1,9 °C 0,0 km/h (0 Bft)
03.11.2016 21:20 -0,9 °C -0,9 °C 93 % 1021,7 hPa 0,0 mm 0,0 km/h (0 Bft) SO 132 ° 0 min 0,000 mm 0,0 UV-I 0 W/m² -1,9 °C 0,0 km/h (0 Bft)
03.11.2016 21:21 -0,9 °C -0,9 °C 93 % 1021,7 hPa 0,0 mm 0,0 km/h (0 Bft) SO 132 ° 0 min 0,000 mm 0,0 UV-I 0 W/m² -1,9 °C 0,0 km/h (0 Bft)
03.11.2016 21:22 -0,9 °C -0,9 °C 93 % 1021,7 hPa 0,0 mm 0,0 km/h (0 Bft) SO 132 ° 0 min 0,000 mm 0,0 UV-I 0 W/m² -1,9 °C 0,0 km/h (0 Bft)
03.11.2016 21:23 -0,9 °C -0,9 °C 93 % 1021,7 hPa 0,0 mm 0,0 km/h (0 Bft) SO 132 ° 0 min 0,000 mm 0,0 UV-I 0 W/m² -1,9 °C 0,0 km/h (0 Bft)
03.11.2016 21:24 -0,9 °C -0,9 °C 93 % 1021,7 hPa 0,0 mm 0,0 km/h (0 Bft) SO 132 ° 0 min 0,000 mm 0,0 UV-I 0 W/m² -1,9 °C 0,0 km/h (0 Bft)
03.11.2016 21:25 -0,9 °C -0,9 °C 93 % 1021,6 hPa 0,0 mm 0,0 km/h (0 Bft) SO 132 ° 0 min 0,000 mm 0,0 UV-I 0 W/m² -1,9 °C 0,0 km/h (0 Bft)
03.11.2016 21:26 -1,0 °C -0,9 °C 93 % 1021,7 hPa 0,0 mm 0,0 km/h (0 Bft) SO 132 ° 0 min 0,000 mm 0,0 UV-I 0 W/m² -2,0 °C 0,0 km/h (0 Bft)
03.11.2016 21:27 -1,0 °C -1,0 °C 93 % 1021,7 hPa 0,0 mm 0,0 km/h (0 Bft) SO 132 ° 0 min 0,000 mm 0,0 UV-I 0 W/m² -2,0 °C 0,0 km/h (0 Bft)
03.11.2016 21:28 -1,0 °C -1,0 °C 93 % 1021,7 hPa 0,0 mm 0,0 km/h (0 Bft) SO 132 ° 0 min 0,000 mm 0,0 UV-I 0 W/m² -2,0 °C 0,0 km/h (0 Bft)
03.11.2016 21:29 -1,0 °C -1,0 °C 93 % 1021,6 hPa 0,0 mm 0,0 km/h (0 Bft) SO 132 ° 0 min 0,000 mm 0,0 UV-I 0 W/m² -2,0 °C 0,0 km/h (0 Bft)
03.11.2016 21:30 -1,1 °C -1,0 °C 93 % 1021,6 hPa 0,0 mm 0,0 km/h (0 Bft) SO 132 ° 0 min 0,000 mm 0,0 UV-I 0 W/m² -2,1 °C 0,0 km/h (0 Bft)
03.11.2016 21:31 -1,1 °C -1,1 °C 93 % 1021,6 hPa 0,0 mm 0,0 km/h (0 Bft) SO 132 ° 0 min 0,000 mm 0,0 UV-I 0 W/m² -2,1 °C 0,0 km/h (0 Bft)
03.11.2016 21:32 -1,1 °C -1,1 °C 93 % 1021,6 hPa 0,0 mm 0,0 km/h (0 Bft) SO 132 ° 0 min 0,000 mm 0,0 UV-I 0 W/m² -2,1 °C 0,0 km/h (0 Bft)
03.11.2016 21:33 -1,1 °C -1,1 °C 93 % 1021,7 hPa 0,0 mm 0,0 km/h (0 Bft) SO 132 ° 0 min 0,000 mm 0,0 UV-I 0 W/m² -2,1 °C 0,0 km/h (0 Bft)
03.11.2016 21:34 -1,2 °C -1,1 °C 93 % 1021,6 hPa 0,0 mm 0,5 km/h (0 Bft) SO 132 ° 0 min 0,000 mm 0,0 UV-I 0 W/m² -2,2 °C 1,6 km/h (1 Bft)
03.11.2016 21:35 -1,2 °C -1,1 °C 93 % 1021,7 hPa 0,0 mm 0,8 km/h (0 Bft) SO 132 ° 0 min 0,000 mm 0,0 UV-I 0 W/m² -2,2 °C 1,6 km/h (1 Bft)
03.11.2016 21:36 -1,2 °C -1,2 °C 93 % 1021,6 hPa 0,0 mm 1,1 km/h (1 Bft) SO 132 ° 0 min 0,000 mm 0,0 UV-I 0 W/m² -2,2 °C 1,6 km/h (1 Bft)
03.11.2016 21:37 -1,2 °C -1,2 °C 93 % 1021,6 hPa 0,0 mm 0,7 km/h (0 Bft) SO 132 ° 0 min 0,000 mm 0,0 UV-I 0 W/m² -2,2 °C 1,6 km/h (1 Bft)
03.11.2016 21:38 -1,2 °C -1,2 °C 93 % 1021,6 hPa 0,0 mm 0,3 km/h (0 Bft) SO 132 ° 0 min 0,000 mm 0,0 UV-I 0 W/m² -2,2 °C 1,6 km/h (1 Bft)
03.11.2016 21:39 -1,2 °C -1,2 °C 93 % 1021,6 hPa 0,0 mm 0,0 km/h (0 Bft) SO 132 ° 0 min 0,000 mm 0,0 UV-I 0 W/m² -2,2 °C 0,0 km/h (0 Bft)
03.11.2016 21:40 -1,2 °C -1,2 °C 93 % 1021,6 hPa 0,0 mm 0,0 km/h (0 Bft) SO 132 ° 0 min 0,000 mm 0,0 UV-I 0 W/m² -2,2 °C 0,0 km/h (0 Bft)
03.11.2016 21:41 -1,3 °C -1,2 °C 93 % 1021,6 hPa 0,0 mm 0,0 km/h (0 Bft) SO 132 ° 0 min 0,000 mm 0,0 UV-I 0 W/m² -2,3 °C 0,0 km/h (0 Bft)
03.11.2016 21:42 -1,2 °C -1,2 °C 93 % 1021,6 hPa 0,0 mm 0,0 km/h (0 Bft) SO 132 ° 0 min 0,000 mm 0,0 UV-I 0 W/m² -2,2 °C 0,0 km/h (0 Bft)
03.11.2016 21:43 -1,2 °C -1,2 °C 93 % 1021,5 hPa 0,0 mm 0,0 km/h (0 Bft) SO 132 ° 0 min 0,000 mm 0,0 UV-I 0 W/m² -2,2 °C 0,0 km/h (0 Bft)
03.11.2016 21:44 -1,3 °C -1,2 °C 93 % 1021,6 hPa 0,0 mm 0,0 km/h (0 Bft) SO 132 ° 0 min 0,000 mm 0,0 UV-I 0 W/m² -2,3 °C 0,0 km/h (0 Bft)
03.11.2016 21:45 -1,3 °C -1,3 °C 93 % 1021,5 hPa 0,0 mm 0,0 km/h (0 Bft) SO 132 ° 0 min 0,000 mm 0,0 UV-I 0 W/m² -2,3 °C 0,0 km/h (0 Bft)
03.11.2016 21:46 -1,3 °C -1,3 °C 93 % 1021,5 hPa 0,0 mm 0,0 km/h (0 Bft) SO 132 ° 0 min 0,000 mm 0,0 UV-I 0 W/m² -2,3 °C 0,0 km/h (0 Bft)
03.11.2016 21:47 -1,3 °C -1,3 °C 93 % 1021,5 hPa 0,0 mm 0,0 km/h (0 Bft) SO 132 ° 0 min 0,000 mm 0,0 UV-I 0 W/m² -2,3 °C 0,0 km/h (0 Bft)
03.11.2016 21:48 -1,3 °C -1,3 °C 93 % 1021,5 hPa 0,0 mm 0,0 km/h (0 Bft) SO 132 ° 0 min 0,000 mm 0,0 UV-I 0 W/m² -2,3 °C 0,0 km/h (0 Bft)
03.11.2016 21:49 -1,3 °C -1,3 °C 93 % 1021,5 hPa 0,0 mm 0,0 km/h (0 Bft) SO 132 ° 0 min 0,000 mm 0,0 UV-I 0 W/m² -2,3 °C 0,0 km/h (0 Bft)
03.11.2016 21:50 -1,3 °C -1,3 °C 93 % 1021,5 hPa 0,0 mm 0,0 km/h (0 Bft) SO 132 ° 0 min 0,000 mm 0,0 UV-I 0 W/m² -2,3 °C 0,0 km/h (0 Bft)
03.11.2016 21:51 -1,3 °C -1,3 °C 93 % 1021,4 hPa 0,0 mm 0,0 km/h (0 Bft) SO 132 ° 0 min 0,000 mm 0,0 UV-I 0 W/m² -2,3 °C 0,0 km/h (0 Bft)
03.11.2016 21:52 -1,3 °C -1,3 °C 93 % 1021,4 hPa 0,0 mm 0,0 km/h (0 Bft) SO 132 ° 0 min 0,000 mm 0,0 UV-I 0 W/m² -2,3 °C 0,0 km/h (0 Bft)
03.11.2016 21:53 -1,4 °C -1,3 °C 93 % 1021,5 hPa 0,0 mm 0,0 km/h (0 Bft) SO 132 ° 0 min 0,000 mm 0,0 UV-I 0 W/m² -2,4 °C 0,0 km/h (0 Bft)
03.11.2016 21:54 -1,4 °C -1,3 °C 93 % 1021,4 hPa 0,0 mm 0,0 km/h (0 Bft) SO 132 ° 0 min 0,000 mm 0,0 UV-I 0 W/m² -2,4 °C 0,0 km/h (0 Bft)
03.11.2016 21:55 -1,4 °C -1,4 °C 93 % 1021,4 hPa 0,0 mm 0,0 km/h (0 Bft) SO 132 ° 0 min 0,000 mm 0,0 UV-I 0 W/m² -2,4 °C 0,0 km/h (0 Bft)
03.11.2016 21:56 -1,4 °C -1,4 °C 93 % 1021,4 hPa 0,0 mm 0,0 km/h (0 Bft) SO 132 ° 0 min 0,000 mm 0,0 UV-I 0 W/m² -2,4 °C 0,0 km/h (0 Bft)
03.11.2016 21:57 -1,4 °C -1,4 °C 93 % 1021,4 hPa 0,0 mm 0,0 km/h (0 Bft) SO 132 ° 0 min 0,000 mm 0,0 UV-I 0 W/m² -2,4 °C 0,0 km/h (0 Bft)
03.11.2016 21:58 -1,4 °C -1,4 °C 93 % 1021,4 hPa 0,0 mm 0,0 km/h (0 Bft) SO 132 ° 0 min 0,000 mm 0,0 UV-I 0 W/m² -2,4 °C 0,0 km/h (0 Bft)
03.11.2016 21:59 -1,4 °C -1,4 °C 93 % 1021,4 hPa 0,0 mm 0,0 km/h (0 Bft) SO 132 ° 0 min 0,000 mm 0,0 UV-I 0 W/m² -2,4 °C 0,0 km/h (0 Bft)
03.11.2016 22:00 -1,4 °C -1,4 °C 93 % 1021,4 hPa 0,0 mm 0,0 km/h (0 Bft) SO 132 ° 0 min 0,000 mm 0,0 UV-I 0 W/m² -2,4 °C 0,0 km/h (0 Bft)
03.11.2016 22:01 -1,4 °C -1,4 °C 93 % 1021,4 hPa 0,0 mm 0,0 km/h (0 Bft) SO 132 ° 0 min 0,000 mm 0,0 UV-I 0 W/m² -2,4 °C 0,0 km/h (0 Bft)
03.11.2016 22:02 -1,4 °C -1,4 °C 93 % 1021,5 hPa 0,0 mm 0,0 km/h (0 Bft) SO 132 ° 0 min 0,000 mm 0,0 UV-I 0 W/m² -2,4 °C 0,0 km/h (0 Bft)
03.11.2016 22:03 -1,4 °C -1,4 °C 93 % 1021,5 hPa 0,0 mm 0,0 km/h (0 Bft) SO 132 ° 0 min 0,000 mm 0,0 UV-I 0 W/m² -2,4 °C 0,0 km/h (0 Bft)
03.11.2016 22:04 -1,5 °C -1,4 °C 93 % 1021,4 hPa 0,0 mm 0,0 km/h (0 Bft) SO 132 ° 0 min 0,000 mm 0,0 UV-I 0 W/m² -2,5 °C 0,0 km/h (0 Bft)
03.11.2016 22:05 -1,5 °C -1,5 °C 93 % 1021,4 hPa 0,0 mm 0,0 km/h (0 Bft) SO 132 ° 0 min 0,000 mm 0,0 UV-I 0 W/m² -2,5 °C 0,0 km/h (0 Bft)
03.11.2016 22:06 -1,5 °C -1,5 °C 93 % 1021,5 hPa 0,0 mm 0,0 km/h (0 Bft) SO 132 ° 0 min 0,000 mm 0,0 UV-I 0 W/m² -2,5 °C 0,0 km/h (0 Bft)
03.11.2016 22:07 -1,6 °C -1,5 °C 93 % 1021,4 hPa 0,0 mm 0,0 km/h (0 Bft) SO 132 ° 0 min 0,000 mm 0,0 UV-I 0 W/m² -2,6 °C 0,0 km/h (0 Bft)
03.11.2016 22:08 -1,5 °C -1,5 °C 93 % 1021,4 hPa 0,0 mm 0,0 km/h (0 Bft) SO 132 ° 0 min 0,000 mm 0,0 UV-I 0 W/m² -2,5 °C 0,0 km/h (0 Bft)
03.11.2016 22:09 -1,6 °C -1,5 °C 93 % 1021,4 hPa 0,0 mm 0,0 km/h (0 Bft) SO 132 ° 0 min 0,000 mm 0,0 UV-I 0 W/m² -2,6 °C 0,0 km/h (0 Bft)
03.11.2016 22:10 -1,6 °C -1,6 °C 92 % 1021,4 hPa 0,0 mm 0,0 km/h (0 Bft) SO 132 ° 0 min 0,000 mm 0,0 UV-I 0 W/m² -2,7 °C 0,0 km/h (0 Bft)
03.11.2016 22:11 -1,6 °C -1,6 °C 93 % 1021,5 hPa 0,0 mm 0,0 km/h (0 Bft) SO 132 ° 0 min 0,000 mm 0,0 UV-I 0 W/m² -2,6 °C 0,0 km/h (0 Bft)
03.11.2016 22:12 -1,6 °C -1,6 °C 93 % 1021,4 hPa 0,0 mm 0,0 km/h (0 Bft) SO 132 ° 0 min 0,000 mm 0,0 UV-I 0 W/m² -2,6 °C 0,0 km/h (0 Bft)
03.11.2016 22:13 -1,6 °C -1,6 °C 93 % 1021,4 hPa 0,0 mm 0,0 km/h (0 Bft) SO 132 ° 0 min 0,000 mm 0,0 UV-I 0 W/m² -2,6 °C 0,0 km/h (0 Bft)
03.11.2016 22:14 -1,6 °C -1,6 °C 93 % 1021,5 hPa 0,0 mm 0,0 km/h (0 Bft) SO 132 ° 0 min 0,000 mm 0,0 UV-I 0 W/m² -2,6 °C 0,0 km/h (0 Bft)
03.11.2016 22:15 -1,6 °C -1,6 °C 93 % 1021,4 hPa 0,0 mm 0,0 km/h (0 Bft) SO 132 ° 0 min 0,000 mm 0,0 UV-I 0 W/m² -2,6 °C 0,0 km/h (0 Bft)
03.11.2016 22:16 -1,6 °C -1,6 °C 93 % 1021,4 hPa 0,0 mm 0,0 km/h (0 Bft) SO 132 ° 0 min 0,000 mm 0,0 UV-I 0 W/m² -2,6 °C 0,0 km/h (0 Bft)
03.11.2016 22:17 -1,6 °C -1,6 °C 93 % 1021,4 hPa 0,0 mm 0,2 km/h (0 Bft) SO 132 ° 0 min 0,000 mm 0,0 UV-I 0 W/m² -2,6 °C 1,6 km/h (1 Bft)
03.11.2016 22:18 -1,6 °C -1,6 °C 93 % 1021,4 hPa 0,0 mm 0,6 km/h (0 Bft) SO 132 ° 0 min 0,000 mm 0,0 UV-I 0 W/m² -2,6 °C 1,6 km/h (1 Bft)
03.11.2016 22:19 -1,6 °C -1,6 °C 93 % 1021,4 hPa 0,0 mm 0,4 km/h (0 Bft) SO 132 ° 0 min 0,000 mm 0,0 UV-I 0 W/m² -2,6 °C 1,6 km/h (1 Bft)
03.11.2016 22:20 -1,6 °C -1,6 °C 93 % 1021,4 hPa 0,0 mm 0,3 km/h (0 Bft) SO 132 ° 0 min 0,000 mm 0,0 UV-I 0 W/m² -2,6 °C 1,6 km/h (1 Bft)
03.11.2016 22:21 -1,6 °C -1,6 °C 93 % 1021,4 hPa 0,0 mm 0,3 km/h (0 Bft) S-SO 166 ° 0 min 0,000 mm 0,0 UV-I 0 W/m² -2,6 °C 1,6 km/h (1 Bft)
03.11.2016 22:22 -1,6 °C -1,6 °C 93 % 1021,4 hPa 0,0 mm 0,9 km/h (0 Bft) S-SO 166 ° 0 min 0,000 mm 0,0 UV-I 0 W/m² -2,6 °C 4,8 km/h (1 Bft)
03.11.2016 22:23 -1,6 °C -1,6 °C 93 % 1021,4 hPa 0,0 mm 0,7 km/h (0 Bft) S-SO 166 ° 0 min 0,000 mm 0,0 UV-I 0 W/m² -2,6 °C 1,6 km/h (1 Bft)
03.11.2016 22:24 -1,6 °C -1,6 °C 93 % 1021,3 hPa 0,0 mm 0,7 km/h (0 Bft) S-SO 166 ° 0 min 0,000 mm 0,0 UV-I 0 W/m² -2,6 °C 1,6 km/h (1 Bft)
03.11.2016 22:25 -1,6 °C -1,6 °C 93 % 1021,3 hPa 0,0 mm 0,6 km/h (0 Bft) S-SO 166 ° 0 min 0,000 mm 0,0 UV-I 0 W/m² -2,6 °C 1,6 km/h (1 Bft)
03.11.2016 22:26 -1,6 °C -1,6 °C 93 % 1021,4 hPa 0,0 mm 1,0 km/h (0 Bft) S-SO 166 ° 0 min 0,000 mm 0,0 UV-I 0 W/m² -2,6 °C 1,6 km/h (1 Bft)
03.11.2016 22:27 -1,6 °C -1,6 °C 93 % 1021,3 hPa 0,0 mm 0,4 km/h (0 Bft) S-SO 166 ° 0 min 0,000 mm 0,0 UV-I 0 W/m² -2,6 °C 1,6 km/h (1 Bft)
03.11.2016 22:28 -1,6 °C -1,6 °C 93 % 1021,4 hPa 0,0 mm 0,2 km/h (0 Bft) S-SO 166 ° 0 min 0,000 mm 0,0 UV-I 0 W/m² -2,6 °C 1,6 km/h (1 Bft)
03.11.2016 22:29 -1,6 °C -1,6 °C 93 % 1021,3 hPa 0,0 mm 0,0 km/h (0 Bft) S-SO 166 ° 0 min 0,000 mm 0,0 UV-I 0 W/m² -2,6 °C 0,0 km/h (0 Bft)
03.11.2016 22:30 -1,6 °C -1,6 °C 93 % 1021,3 hPa 0,0 mm 0,0 km/h (0 Bft) S-SO 166 ° 0 min 0,000 mm 0,0 UV-I 0 W/m² -2,6 °C 0,0 km/h (0 Bft)
03.11.2016 22:31 -1,6 °C -1,6 °C 93 % 1021,3 hPa 0,0 mm 0,1 km/h (0 Bft) S-SO 166 ° 0 min 0,000 mm 0,0 UV-I 0 W/m² -2,6 °C 1,6 km/h (1 Bft)
03.11.2016 22:32 -1,6 °C -1,6 °C 93 % 1021,3 hPa 0,0 mm 0,0 km/h (0 Bft) S-SO 166 ° 0 min 0,000 mm 0,0 UV-I 0 W/m² -2,6 °C 0,0 km/h (0 Bft)
03.11.2016 22:33 -1,6 °C -1,6 °C 93 % 1021,3 hPa 0,0 mm 0,0 km/h (0 Bft) S-SO 166 ° 0 min 0,000 mm 0,0 UV-I 0 W/m² -2,6 °C 0,0 km/h (0 Bft)
03.11.2016 22:34 -1,6 °C -1,6 °C 93 % 1021,3 hPa 0,0 mm 0,0 km/h (0 Bft) S-SO 166 ° 0 min 0,000 mm 0,0 UV-I 0 W/m² -2,6 °C 0,0 km/h (0 Bft)
03.11.2016 22:35 -1,7 °C -1,6 °C 93 % 1021,2 hPa 0,0 mm 0,0 km/h (0 Bft) S-SO 166 ° 0 min 0,000 mm 0,0 UV-I 0 W/m² -2,7 °C 0,0 km/h (0 Bft)
03.11.2016 22:36 -1,7 °C -1,6 °C 93 % 1021,2 hPa 0,0 mm 0,0 km/h (0 Bft) S-SO 166 ° 0 min 0,000 mm 0,0 UV-I 0 W/m² -2,7 °C 0,0 km/h (0 Bft)
03.11.2016 22:37 -1,7 °C -1,6 °C 93 % 1021,2 hPa 0,0 mm 0,0 km/h (0 Bft) S-SO 166 ° 0 min 0,000 mm 0,0 UV-I 0 W/m² -2,7 °C 0,0 km/h (0 Bft)
03.11.2016 22:38 -1,7 °C -1,7 °C 93 % 1021,2 hPa 0,0 mm 0,0 km/h (0 Bft) S-SO 166 ° 0 min 0,000 mm 0,0 UV-I 0 W/m² -2,7 °C 0,0 km/h (0 Bft)
03.11.2016 22:39 -1,7 °C -1,7 °C 93 % 1021,2 hPa 0,0 mm 0,0 km/h (0 Bft) S-SO 166 ° 0 min 0,000 mm 0,0 UV-I 0 W/m² -2,7 °C 0,0 km/h (0 Bft)
03.11.2016 22:40 -1,7 °C -1,7 °C 93 % 1021,2 hPa 0,0 mm 0,0 km/h (0 Bft) S-SO 166 ° 0 min 0,000 mm 0,0 UV-I 0 W/m² -2,7 °C 0,0 km/h (0 Bft)
03.11.2016 22:41 -1,7 °C -1,7 °C 93 % 1021,3 hPa 0,0 mm 1,0 km/h (0 Bft) S-SO 166 ° 0 min 0,000 mm 0,0 UV-I 0 W/m² -2,7 °C 1,6 km/h (1 Bft)
03.11.2016 22:42 -1,7 °C -1,7 °C 94 % 1021,2 hPa 0,0 mm 1,8 km/h (1 Bft) S-SO 166 ° 0 min 0,000 mm 0,0 UV-I 0 W/m² -2,5 °C 4,8 km/h (1 Bft)
03.11.2016 22:43 -1,7 °C -1,6 °C 94 % 1021,2 hPa 0,0 mm 0,5 km/h (0 Bft) S-SO 166 ° 0 min 0,000 mm 0,0 UV-I 0 W/m² -2,5 °C 4,8 km/h (1 Bft)
03.11.2016 22:44 -1,7 °C -1,6 °C 94 % 1021,2 hPa 0,0 mm 1,7 km/h (1 Bft) S-SO 166 ° 0 min 0,000 mm 0,0 UV-I 0 W/m² -2,5 °C 4,8 km/h (1 Bft)
03.11.2016 22:45 -1,7 °C -1,7 °C 94 % 1021,2 hPa 0,0 mm 0,5 km/h (0 Bft) S-SO 166 ° 0 min 0,000 mm 0,0 UV-I 0 W/m² -2,5 °C 1,6 km/h (1 Bft)
03.11.2016 22:46 -1,7 °C -1,7 °C 94 % 1021,2 hPa 0,0 mm 0,0 km/h (0 Bft) S-SO 166 ° 0 min 0,000 mm 0,0 UV-I 0 W/m² -2,5 °C 0,0 km/h (0 Bft)
03.11.2016 22:47 -1,7 °C -1,7 °C 93 % 1021,2 hPa 0,0 mm 0,0 km/h (0 Bft) S-SO 166 ° 0 min 0,000 mm 0,0 UV-I 0 W/m² -2,7 °C 0,0 km/h (0 Bft)
03.11.2016 22:48 -1,7 °C -1,7 °C 93 % 1021,2 hPa 0,0 mm 0,0 km/h (0 Bft) S-SO 166 ° 0 min 0,000 mm 0,0 UV-I 0 W/m² -2,7 °C 0,0 km/h (0 Bft)
03.11.2016 22:49 -1,7 °C -1,7 °C 93 % 1021,1 hPa 0,0 mm 0,0 km/h (0 Bft) S-SO 166 ° 0 min 0,000 mm 0,0 UV-I 0 W/m² -2,7 °C 0,0 km/h (0 Bft)
03.11.2016 22:50 -1,7 °C -1,7 °C 94 % 1021,1 hPa 0,0 mm 0,0 km/h (0 Bft) S-SO 166 ° 0 min 0,000 mm 0,0 UV-I 0 W/m² -2,5 °C 0,0 km/h (0 Bft)
03.11.2016 22:51 -1,7 °C -1,7 °C 94 % 1021,2 hPa 0,0 mm 0,0 km/h (0 Bft) S-SO 166 ° 0 min 0,000 mm 0,0 UV-I 0 W/m² -2,5 °C 0,0 km/h (0 Bft)
03.11.2016 22:52 -1,7 °C -1,7 °C 94 % 1021,2 hPa 0,0 mm 0,0 km/h (0 Bft) S-SO 166 ° 0 min 0,000 mm 0,0 UV-I 0 W/m² -2,5 °C 0,0 km/h (0 Bft)
03.11.2016 22:53 -1,7 °C -1,7 °C 94 % 1021,2 hPa 0,0 mm 0,0 km/h (0 Bft) S-SO 166 ° 0 min 0,000 mm 0,0 UV-I 0 W/m² -2,5 °C 0,0 km/h (0 Bft)
03.11.2016 22:54 -1,7 °C -1,7 °C 94 % 1021,2 hPa 0,0 mm 0,0 km/h (0 Bft) S-SO 166 ° 0 min 0,000 mm 0,0 UV-I 0 W/m² -2,5 °C 0,0 km/h (0 Bft)
03.11.2016 22:55 -1,7 °C -1,7 °C 94 % 1021,2 hPa 0,0 mm 0,0 km/h (0 Bft) S-SO 166 ° 0 min 0,000 mm 0,0 UV-I 0 W/m² -2,5 °C 0,0 km/h (0 Bft)
03.11.2016 22:56 -1,7 °C -1,7 °C 94 % 1021,2 hPa 0,0 mm 0,0 km/h (0 Bft) S-SO 166 ° 0 min 0,000 mm 0,0 UV-I 0 W/m² -2,5 °C 0,0 km/h (0 Bft)
03.11.2016 22:57 -1,7 °C -1,7 °C 94 % 1021,2 hPa 0,0 mm 0,0 km/h (0 Bft) S-SO 166 ° 0 min 0,000 mm 0,0 UV-I 0 W/m² -2,5 °C 0,0 km/h (0 Bft)
03.11.2016 22:58 -1,7 °C -1,7 °C 94 % 1021,2 hPa 0,0 mm 0,0 km/h (0 Bft) S-SO 166 ° 0 min 0,000 mm 0,0 UV-I 0 W/m² -2,5 °C 0,0 km/h (0 Bft)
03.11.2016 22:59 -1,7 °C -1,7 °C 94 % 1021,2 hPa 0,0 mm 0,0 km/h (0 Bft) S-SO 166 ° 0 min 0,000 mm 0,0 UV-I 0 W/m² -2,5 °C 0,0 km/h (0 Bft)
03.11.2016 23:00 -1,7 °C -1,7 °C 94 % 1021,2 hPa 0,0 mm 0,0 km/h (0 Bft) S-SO 166 ° 0 min 0,000 mm 0,0 UV-I 0 W/m² -2,5 °C 0,0 km/h (0 Bft)
03.11.2016 23:01 -1,7 °C -1,7 °C 94 % 1021,2 hPa 0,0 mm 0,0 km/h (0 Bft) S-SO 166 ° 0 min 0,000 mm 0,0 UV-I 0 W/m² -2,5 °C 0,0 km/h (0 Bft)
03.11.2016 23:02 -1,7 °C -1,7 °C 94 % 1021,2 hPa 0,0 mm 0,0 km/h (0 Bft) S-SO 166 ° 0 min 0,000 mm 0,0 UV-I 0 W/m² -2,5 °C 0,0 km/h (0 Bft)
03.11.2016 23:03 -1,7 °C -1,7 °C 94 % 1021,2 hPa 0,0 mm 0,0 km/h (0 Bft) S-SO 166 ° 0 min 0,000 mm 0,0 UV-I 0 W/m² -2,5 °C 0,0 km/h (0 Bft)
03.11.2016 23:04 -1,7 °C -1,7 °C 94 % 1021,2 hPa 0,0 mm 0,0 km/h (0 Bft) S-SO 166 ° 0 min 0,000 mm 0,0 UV-I 0 W/m² -2,5 °C 0,0 km/h (0 Bft)
03.11.2016 23:05 -1,7 °C -1,7 °C 94 % 1021,2 hPa 0,0 mm 0,0 km/h (0 Bft) S-SO 166 ° 0 min 0,000 mm 0,0 UV-I 0 W/m² -2,5 °C 0,0 km/h (0 Bft)
03.11.2016 23:06 -1,7 °C -1,7 °C 94 % 1021,3 hPa 0,0 mm 0,0 km/h (0 Bft) S-SO 166 ° 0 min 0,000 mm 0,0 UV-I 0 W/m² -2,5 °C 0,0 km/h (0 Bft)
03.11.2016 23:07 -1,7 °C -1,7 °C 94 % 1021,2 hPa 0,0 mm 0,0 km/h (0 Bft) S-SO 166 ° 0 min 0,000 mm 0,0 UV-I 0 W/m² -2,5 °C 0,0 km/h (0 Bft)
03.11.2016 23:08 -1,7 °C -1,7 °C 94 % 1021,2 hPa 0,0 mm 0,0 km/h (0 Bft) S-SO 166 ° 0 min 0,000 mm 0,0 UV-I 0 W/m² -2,5 °C 0,0 km/h (0 Bft)
03.11.2016 23:09 -1,8 °C -1,7 °C 94 % 1021,3 hPa 0,0 mm 0,0 km/h (0 Bft) S-SO 166 ° 0 min 0,000 mm 0,0 UV-I 0 W/m² -2,6 °C 0,0 km/h (0 Bft)
03.11.2016 23:10 -1,7 °C -1,7 °C 94 % 1021,2 hPa 0,0 mm 0,0 km/h (0 Bft) S-SO 166 ° 0 min 0,000 mm 0,0 UV-I 0 W/m² -2,5 °C 0,0 km/h (0 Bft)
03.11.2016 23:11 -1,8 °C -1,7 °C 94 % 1021,2 hPa 0,0 mm 0,0 km/h (0 Bft) S-SO 166 ° 0 min 0,000 mm 0,0 UV-I 0 W/m² -2,6 °C 0,0 km/h (0 Bft)
03.11.2016 23:12 -1,8 °C -1,7 °C 94 % 1021,2 hPa 0,0 mm 0,0 km/h (0 Bft) S-SO 166 ° 0 min 0,000 mm 0,0 UV-I 0 W/m² -2,6 °C 0,0 km/h (0 Bft)
03.11.2016 23:13 -1,8 °C -1,7 °C 94 % 1021,2 hPa 0,0 mm 0,0 km/h (0 Bft) S-SO 166 ° 0 min 0,000 mm 0,0 UV-I 0 W/m² -2,6 °C 0,0 km/h (0 Bft)
03.11.2016 23:14 -1,7 °C -1,7 °C 94 % 1021,2 hPa 0,0 mm 0,0 km/h (0 Bft) S-SO 166 ° 0 min 0,000 mm 0,0 UV-I 0 W/m² -2,5 °C 0,0 km/h (0 Bft)
03.11.2016 23:15 -1,8 °C -1,7 °C 94 % 1021,2 hPa 0,0 mm 0,0 km/h (0 Bft) S-SO 166 ° 0 min 0,000 mm 0,0 UV-I 0 W/m² -2,6 °C 0,0 km/h (0 Bft)
03.11.2016 23:16 -1,8 °C -1,8 °C 94 % 1021,2 hPa 0,0 mm 0,0 km/h (0 Bft) S-SO 166 ° 0 min 0,000 mm 0,0 UV-I 0 W/m² -2,6 °C 0,0 km/h (0 Bft)
03.11.2016 23:17 -1,8 °C -1,8 °C 94 % 1021,2 hPa 0,0 mm 0,0 km/h (0 Bft) S-SO 166 ° 0 min 0,000 mm 0,0 UV-I 0 W/m² -2,6 °C 0,0 km/h (0 Bft)
03.11.2016 23:18 -1,8 °C -1,8 °C 94 % 1021,2 hPa 0,0 mm 0,0 km/h (0 Bft) S-SO 166 ° 0 min 0,000 mm 0,0 UV-I 0 W/m² -2,6 °C 0,0 km/h (0 Bft)
03.11.2016 23:19 -1,8 °C -1,8 °C 94 % 1021,2 hPa 0,0 mm 0,0 km/h (0 Bft) S-SO 166 ° 0 min 0,000 mm 0,0 UV-I 0 W/m² -2,6 °C 0,0 km/h (0 Bft)
03.11.2016 23:20 -1,8 °C -1,8 °C 94 % 1021,2 hPa 0,0 mm 0,0 km/h (0 Bft) S-SO 166 ° 0 min 0,000 mm 0,0 UV-I 0 W/m² -2,6 °C 0,0 km/h (0 Bft)
03.11.2016 23:21 -1,8 °C -1,8 °C 94 % 1021,2 hPa 0,0 mm 0,0 km/h (0 Bft) S-SO 166 ° 0 min 0,000 mm 0,0 UV-I 0 W/m² -2,6 °C 0,0 km/h (0 Bft)
03.11.2016 23:22 -1,8 °C -1,8 °C 94 % 1021,2 hPa 0,0 mm 0,0 km/h (0 Bft) S-SO 166 ° 0 min 0,000 mm 0,0 UV-I 0 W/m² -2,6 °C 0,0 km/h (0 Bft)
03.11.2016 23:23 -1,8 °C -1,8 °C 94 % 1021,2 hPa 0,0 mm 0,0 km/h (0 Bft) S-SO 166 ° 0 min 0,000 mm 0,0 UV-I 0 W/m² -2,6 °C 0,0 km/h (0 Bft)
03.11.2016 23:24 -1,8 °C -1,8 °C 94 % 1021,2 hPa 0,0 mm 0,0 km/h (0 Bft) S-SO 166 ° 0 min 0,000 mm 0,0 UV-I 0 W/m² -2,6 °C 0,0 km/h (0 Bft)
03.11.2016 23:25 -1,8 °C -1,8 °C 94 % 1021,1 hPa 0,0 mm 0,0 km/h (0 Bft) S-SO 166 ° 0 min 0,000 mm 0,0 UV-I 0 W/m² -2,6 °C 0,0 km/h (0 Bft)
03.11.2016 23:26 -1,8 °C -1,8 °C 94 % 1021,2 hPa 0,0 mm 0,0 km/h (0 Bft) S-SO 166 ° 0 min 0,000 mm 0,0 UV-I 0 W/m² -2,6 °C 0,0 km/h (0 Bft)
03.11.2016 23:27 -1,8 °C -1,8 °C 94 % 1021,2 hPa 0,0 mm 0,0 km/h (0 Bft) S-SO 166 ° 0 min 0,000 mm 0,0 UV-I 0 W/m² -2,6 °C 0,0 km/h (0 Bft)
03.11.2016 23:28 -1,8 °C -1,8 °C 94 % 1021,2 hPa 0,0 mm 0,0 km/h (0 Bft) S-SO 166 ° 0 min 0,000 mm 0,0 UV-I 0 W/m² -2,6 °C 0,0 km/h (0 Bft)
03.11.2016 23:29 -1,8 °C -1,8 °C 94 % 1021,2 hPa 0,0 mm 0,0 km/h (0 Bft) S-SO 166 ° 0 min 0,000 mm 0,0 UV-I 0 W/m² -2,6 °C 0,0 km/h (0 Bft)
03.11.2016 23:30 -1,8 °C -1,8 °C 94 % 1021,2 hPa 0,0 mm 0,0 km/h (0 Bft) S-SO 166 ° 0 min 0,000 mm 0,0 UV-I 0 W/m² -2,6 °C 0,0 km/h (0 Bft)
03.11.2016 23:31 -1,8 °C -1,8 °C 94 % 1021,2 hPa 0,0 mm 0,0 km/h (0 Bft) S-SO 166 ° 0 min 0,000 mm 0,0 UV-I 0 W/m² -2,6 °C 0,0 km/h (0 Bft)
03.11.2016 23:32 -1,9 °C -1,8 °C 94 % 1021,1 hPa 0,0 mm 0,0 km/h (0 Bft) S-SO 166 ° 0 min 0,000 mm 0,0 UV-I 0 W/m² -2,7 °C 0,0 km/h (0 Bft)
03.11.2016 23:33 -1,8 °C -1,8 °C 94 % 1021,1 hPa 0,0 mm 0,0 km/h (0 Bft) S-SO 166 ° 0 min 0,000 mm 0,0 UV-I 0 W/m² -2,6 °C 0,0 km/h (0 Bft)
03.11.2016 23:34 -1,9 °C -1,8 °C 94 % 1021,1 hPa 0,0 mm 0,0 km/h (0 Bft) S-SO 166 ° 0 min 0,000 mm 0,0 UV-I 0 W/m² -2,7 °C 0,0 km/h (0 Bft)
03.11.2016 23:35 -1,9 °C -1,8 °C 94 % 1021,1 hPa 0,0 mm 0,0 km/h (0 Bft) S-SO 166 ° 0 min 0,000 mm 0,0 UV-I 0 W/m² -2,7 °C 0,0 km/h (0 Bft)
03.11.2016 23:36 -1,9 °C -1,8 °C 94 % 1021,1 hPa 0,0 mm 0,0 km/h (0 Bft) S-SO 166 ° 0 min 0,000 mm 0,0 UV-I 0 W/m² -2,7 °C 0,0 km/h (0 Bft)
03.11.2016 23:37 -1,9 °C -1,8 °C 94 % 1021,1 hPa 0,0 mm 0,0 km/h (0 Bft) S-SO 166 ° 0 min 0,000 mm 0,0 UV-I 0 W/m² -2,7 °C 0,0 km/h (0 Bft)
03.11.2016 23:38 -1,9 °C -1,9 °C 94 % 1021,1 hPa 0,0 mm 0,0 km/h (0 Bft) S-SO 166 ° 0 min 0,000 mm 0,0 UV-I 0 W/m² -2,7 °C 0,0 km/h (0 Bft)
03.11.2016 23:39 -1,9 °C -1,9 °C 94 % 1021,2 hPa 0,0 mm 0,0 km/h (0 Bft) S-SO 166 ° 0 min 0,000 mm 0,0 UV-I 0 W/m² -2,7 °C 0,0 km/h (0 Bft)
03.11.2016 23:40 -1,9 °C -1,9 °C 94 % 1021,2 hPa 0,0 mm 0,0 km/h (0 Bft) S-SO 166 ° 0 min 0,000 mm 0,0 UV-I 0 W/m² -2,7 °C 0,0 km/h (0 Bft)
03.11.2016 23:41 -1,9 °C -1,9 °C 94 % 1021,2 hPa 0,0 mm 0,0 km/h (0 Bft) S-SO 166 ° 0 min 0,000 mm 0,0 UV-I 0 W/m² -2,7 °C 0,0 km/h (0 Bft)
03.11.2016 23:42 -1,9 °C -1,9 °C 94 % 1021,1 hPa 0,0 mm 0,0 km/h (0 Bft) S-SO 166 ° 0 min 0,000 mm 0,0 UV-I 0 W/m² -2,7 °C 0,0 km/h (0 Bft)
03.11.2016 23:43 -1,9 °C -1,9 °C 94 % 1021,1 hPa 0,0 mm 0,0 km/h (0 Bft) S-SO 166 ° 0 min 0,000 mm 0,0 UV-I 0 W/m² -2,7 °C 0,0 km/h (0 Bft)
03.11.2016 23:44 -1,9 °C -1,9 °C 94 % 1021,2 hPa 0,0 mm 0,0 km/h (0 Bft) S-SO 166 ° 0 min 0,000 mm 0,0 UV-I 0 W/m² -2,7 °C 0,0 km/h (0 Bft)
03.11.2016 23:45 -1,9 °C -1,9 °C 94 % 1021,1 hPa 0,0 mm 0,0 km/h (0 Bft) S-SO 166 ° 0 min 0,000 mm 0,0 UV-I 0 W/m² -2,7 °C 0,0 km/h (0 Bft)
03.11.2016 23:46 -1,9 °C -1,9 °C 94 % 1021,1 hPa 0,0 mm 0,0 km/h (0 Bft) S-SO 166 ° 0 min 0,000 mm 0,0 UV-I 0 W/m² -2,7 °C 0,0 km/h (0 Bft)
03.11.2016 23:47 -1,9 °C -1,9 °C 94 % 1021,1 hPa 0,0 mm 0,0 km/h (0 Bft) S-SO 166 ° 0 min 0,000 mm 0,0 UV-I 0 W/m² -2,7 °C 0,0 km/h (0 Bft)
03.11.2016 23:48 -1,9 °C -1,9 °C 94 % 1021,1 hPa 0,0 mm 0,0 km/h (0 Bft) S-SO 166 ° 0 min 0,000 mm 0,0 UV-I 0 W/m² -2,7 °C 0,0 km/h (0 Bft)
03.11.2016 23:49 -1,9 °C -1,9 °C 94 % 1021,1 hPa 0,0 mm 0,0 km/h (0 Bft) S-SO 166 ° 0 min 0,000 mm 0,0 UV-I 0 W/m² -2,7 °C 0,0 km/h (0 Bft)
03.11.2016 23:50 -1,9 °C -1,9 °C 94 % 1021,1 hPa 0,0 mm 0,0 km/h (0 Bft) S-SO 165 ° 0 min 0,000 mm 0,0 UV-I 0 W/m² -2,7 °C 0,0 km/h (0 Bft)
03.11.2016 23:51 -1,9 °C -1,9 °C 94 % 1021,0 hPa 0,0 mm 0,0 km/h (0 Bft) S-SO 166 ° 0 min 0,000 mm 0,0 UV-I 0 W/m² -2,7 °C 0,0 km/h (0 Bft)
03.11.2016 23:52 -1,9 °C -1,9 °C 94 % 1021,1 hPa 0,0 mm 0,0 km/h (0 Bft) S-SO 166 ° 0 min 0,000 mm 0,0 UV-I 0 W/m² -2,7 °C 0,0 km/h (0 Bft)
03.11.2016 23:53 -1,9 °C -1,9 °C 94 % 1021,1 hPa 0,0 mm 0,0 km/h (0 Bft) S-SO 166 ° 0 min 0,000 mm 0,0 UV-I 0 W/m² -2,7 °C 0,0 km/h (0 Bft)
03.11.2016 23:54 -1,9 °C -1,9 °C 94 % 1021,1 hPa 0,0 mm 0,0 km/h (0 Bft) S-SO 166 ° 0 min 0,000 mm 0,0 UV-I 0 W/m² -2,7 °C 0,0 km/h (0 Bft)
03.11.2016 23:55 -1,9 °C -1,9 °C 94 % 1021,1 hPa 0,0 mm 0,0 km/h (0 Bft) S-SO 166 ° 0 min 0,000 mm 0,0 UV-I 0 W/m² -2,7 °C 0,0 km/h (0 Bft)
03.11.2016 23:56 -1,9 °C -1,9 °C 94 % 1021,1 hPa 0,0 mm 0,0 km/h (0 Bft) S-SO 166 ° 0 min 0,000 mm 0,0 UV-I 0 W/m² -2,7 °C 0,0 km/h (0 Bft)
03.11.2016 23:57 -1,9 °C -1,9 °C 94 % 1021,0 hPa 0,0 mm 0,0 km/h (0 Bft) S-SO 166 ° 0 min 0,000 mm 0,0 UV-I 0 W/m² -2,7 °C 0,0 km/h (0 Bft)
03.11.2016 23:58 -2,0 °C -1,9 °C 94 % 1021,0 hPa 0,0 mm 0,0 km/h (0 Bft) S-SO 166 ° 0 min 0,000 mm 0,0 UV-I 0 W/m² -2,8 °C 0,0 km/h (0 Bft)
03.11.2016 23:59 -2,0 °C -2,0 °C 94 % 1021,0 hPa 0,0 mm 0,0 km/h (0 Bft) S-SO 166 ° 0 min 0,000 mm 0,0 UV-I 0 W/m² -2,8 °C 0,0 km/h (0 Bft)
_ Min-Zeit 23:59 23:59 14:21 00:44 - 23:59 - - - - - - 23:59 23:59
Minimum _ -2,0 °C -2,0 °C 73 % 1019,4 hPa - 0,0 km/h (0 Bft) - - - - - - -2,8 °C 0,0 km/h (0 Bft)
_ Max-Zeit 14:07 14:08 09:35 10:43 23:59 13:17 - - 14:15 14:01 13:36 13:22 13:13 13:20
Maximum _ 6,3 °C 6,3 °C 96 % 1023,1 hPa 0,0 mm 10,3 km/h
O-NO (2 Bft)
- - 1 min 0,153 mm 1,7 UV-I 513 W/m² 2,4 °C 16,1 km/h
O-NO (3 Bft)
Durchschnitt _ 2,1 °C 2,1 °C 89 % 1021,3 hPa #0,0 mm 1,4 km/h (1 Bft) S-SW - #48 min. #0,457 mm 1,1 UV-I 42 W/m² 0,4 °C 2,5 km/h (1 Bft)